[[{"header":{"parameterUnit":"m.s-1","parameterCategory":1,"la1":30.6,"la2":29.2853,"lo1":-89.7004,"lo2":-87.6739,"dy":0.0162,"dx":0.0183,"nx":112,"ny":82,"refTime":"2026-04-06T12:00:00:Z","depth":0,"parameterNumber":2,"parameterNumberName":"U-component_of_WINDS"},"data":[0.0,0.0,0.0,0.0,0.0,0.0,0.0,0.0,0.0,0.0,0.0,0.0,0.0,0.0,0.0,0.0,0.0,0.0,0.0,0.0,0.0,0.0,0.0,0.0,0.0,0.0,0.0,0.0,0.0,0.0,0.0,0.0,0.0,0.0,0.0,0.0,0.0,0.0,0.0,0.0,0.0,0.0,0.0,0.0,0.0,0.0,0.0,0.0,0.0,0.0,0.0,0.0,0.0,0.0,0.0,0.0,0.0,0.0,0.0,0.0,0.0,0.0,0.0,0.0,0.0,0.0,0.0,0.0,0.0,0.0,0.0,0.0,0.0,0.0,0.0,0.0,0.0,0.0,0.0,0.0,0.0,0.0,0.0,0.0,0.0,0.0,0.0,0.0,0.0,0.0,5.3831,5.3754,5.6308,5.7962,5.7826,5.6497,5.3972,5.0021,0.0,0.0,0.0,0.0,0.0,0.0,0.0,0.0,0.0,0.0,0.0,0.0,0.0,0.0,0.0,0.0,0.0,0.0,0.0,0.0,0.0,0.0,0.0,0.0,0.0,0.0,0.0,0.0,0.0,0.0,0.0,0.0,0.0,0.0,0.0,0.0,0.0,0.0,0.0,0.0,0.0,0.0,0.0,0.0,0.0,0.0,0.0,0.0,0.0,0.0,0.0,0.0,0.0,0.0,0.0,0.0,0.0,0.0,0.0,0.0,0.0,0.0,0.0,0.0,0.0,0.0,0.0,0.0,0.0,0.0,0.0,0.0,0.0,0.0,0.0,0.0,0.0,0.0,0.0,0.0,0.0,0.0,0.0,0.0,0.0,0.0,0.0,0.0,0.0,0.0,0.0,0.0,0.0,0.0,0.0,0.0,0.0,0.0,0.0,0.0,0.0,0.0,0.0,0.0,5.2733,5.5922,5.7299,5.7744,5.711,5.6173,5.3742,4.9396,0.0,0.0,0.0,0.0,0.0,0.0,0.0,0.0,0.0,0.0,0.0,0.0,0.0,0.0,0.0,0.0,0.0,0.0,0.0,0.0,0.0,0.0,0.0,0.0,0.0,0.0,0.0,0.0,0.0,0.0,0.0,0.0,0.0,0.0,0.0,0.0,0.0,0.0,0.0,0.0,0.0,0.0,0.0,0.0,0.0,0.0,0.0,0.0,0.0,0.0,0.0,0.0,0.0,0.0,0.0,0.0,0.0,0.0,0.0,0.0,0.0,0.0,0.0,0.0,0.0,0.0,0.0,0.0,0.0,0.0,0.0,0.0,0.0,0.0,0.0,0.0,0.0,0.0,0.0,0.0,0.0,0.0,0.0,0.0,0.0,0.0,0.0,0.0,0.0,0.0,0.0,0.0,0.0,0.0,0.0,0.0,0.0,0.0,0.0,0.0,0.0,0.0,0.0,5.2023,5.3545,5.7087,5.7776,5.7844,5.751,5.6345,5.4062,5.0305,4.8257,0.0,0.0,0.0,0.0,0.0,0.0,0.0,0.0,0.0,0.0,0.0,0.0,0.0,0.0,0.0,0.0,0.0,0.0,0.0,0.0,0.0,0.0,0.0,0.0,0.0,0.0,0.0,0.0,0.0,0.0,0.0,0.0,0.0,0.0,0.0,0.0,0.0,0.0,0.0,0.0,0.0,0.0,0.0,0.0,0.0,0.0,0.0,0.0,0.0,0.0,0.0,0.0,0.0,0.0,0.0,0.0,0.0,0.0,0.0,0.0,0.0,0.0,0.0,0.0,0.0,0.0,0.0,0.0,0.0,0.0,0.0,0.0,0.0,0.0,0.0,0.0,0.0,0.0,0.0,0.0,0.0,0.0,0.0,0.0,0.0,0.0,0.0,0.0,0.0,0.0,0.0,0.0,0.0,0.0,0.0,0.0,0.0,0.0,0.0,0.0,0.0,0.0,5.3805,5.4834,5.7709,5.8002,5.7939,5.775,5.6291,5.408,5.097,4.8039,0.0,0.0,0.0,0.0,0.0,0.0,0.0,0.0,0.0,0.0,0.0,0.0,0.0,0.0,0.0,0.0,0.0,0.0,0.0,0.0,0.0,0.0,0.0,0.0,0.0,0.0,0.0,0.0,0.0,0.0,0.0,0.0,0.0,0.0,0.0,0.0,0.0,0.0,0.0,0.0,0.0,0.0,0.0,0.0,0.0,0.0,0.0,0.0,0.0,0.0,0.0,0.0,0.0,0.0,0.0,0.0,0.0,0.0,0.0,0.0,0.0,0.0,0.0,0.0,0.0,0.0,0.0,0.0,0.0,0.0,0.0,0.0,0.0,0.0,0.0,0.0,0.0,0.0,0.0,0.0,0.0,0.0,0.0,0.0,0.0,0.0,0.0,0.0,0.0,0.0,0.0,0.0,0.0,0.0,0.0,0.0,0.0,0.0,0.0,0.0,0.0,0.0,5.4175,5.6093,5.7819,5.8002,5.7726,5.7034,5.545,5.3241,5.0355,4.7206,0.0,0.0,0.0,0.0,0.0,0.0,0.0,0.0,0.0,0.0,0.0,0.0,0.0,0.0,0.0,0.0,0.0,0.0,0.0,0.0,0.0,0.0,0.0,0.0,0.0,0.0,0.0,0.0,0.0,0.0,0.0,0.0,0.0,0.0,0.0,0.0,0.0,0.0,0.0,0.0,0.0,0.0,0.0,0.0,0.0,0.0,0.0,0.0,0.0,0.0,0.0,0.0,0.0,0.0,0.0,0.0,0.0,0.0,0.0,0.0,0.0,0.0,0.0,0.0,0.0,0.0,0.0,0.0,0.0,0.0,0.0,0.0,0.0,0.0,0.0,0.0,0.0,0.0,0.0,0.0,0.0,0.0,0.0,0.0,0.0,0.0,0.0,0.0,0.0,0.0,0.0,0.0,0.0,0.0,0.0,0.0,0.0,0.0,0.0,0.0,0.0,0.0,5.4468,5.6209,5.7813,5.7607,5.7185,5.6919,5.5015,5.2765,5.0264,0.0,0.0,0.0,0.0,0.0,0.0,0.0,0.0,0.0,0.0,0.0,0.0,0.0,0.0,0.0,0.0,0.0,0.0,0.0,0.0,0.0,0.0,0.0,0.0,0.0,0.0,0.0,0.0,0.0,0.0,0.0,0.0,0.0,0.0,0.0,0.0,0.0,0.0,0.0,0.0,0.0,0.0,0.0,0.0,0.0,0.0,0.0,0.0,0.0,0.0,0.0,0.0,0.0,0.0,0.0,0.0,0.0,0.0,0.0,0.0,0.0,0.0,0.0,0.0,0.0,0.0,0.0,0.0,0.0,0.0,0.0,0.0,0.0,0.0,0.0,0.0,0.0,0.0,0.0,0.0,0.0,0.0,0.0,0.0,0.0,0.0,0.0,0.0,0.0,0.0,0.0,0.0,0.0,0.0,0.0,0.0,0.0,0.0,0.0,0.0,0.0,0.0,5.283,5.484,5.6492,5.7849,5.7324,5.6917,5.6902,5.4557,5.2111,4.9896,0.0,0.0,0.0,0.0,0.0,0.0,0.0,0.0,0.0,0.0,0.0,0.0,0.0,0.0,0.0,0.0,0.0,0.0,0.0,0.0,0.0,0.0,0.0,0.0,0.0,0.0,0.0,0.0,0.0,0.0,0.0,0.0,0.0,0.0,0.0,0.0,0.0,0.0,0.0,0.0,0.0,0.0,0.0,0.0,0.0,0.0,0.0,0.0,0.0,0.0,0.0,0.0,0.0,0.0,0.0,0.0,0.0,0.0,0.0,0.0,0.0,0.0,0.0,0.0,0.0,0.0,0.0,0.0,0.0,0.0,0.0,0.0,0.0,0.0,0.0,0.0,0.0,0.0,0.0,0.0,0.0,0.0,0.0,0.0,0.0,0.0,0.0,0.0,0.0,0.0,0.0,0.0,0.0,0.0,0.0,0.0,0.0,0.0,0.0,0.0,0.0,0.0,5.2835,5.5337,5.7137,5.7936,5.7336,5.6915,5.6885,5.3991,5.1291,0.0,0.0,0.0,0.0,0.0,0.0,0.0,0.0,0.0,0.0,0.0,0.0,0.0,0.0,0.0,0.0,0.0,0.0,0.0,0.0,0.0,0.0,0.0,0.0,0.0,0.0,0.0,0.0,0.0,0.0,0.0,0.0,0.0,0.0,0.0,0.0,0.0,0.0,0.0,0.0,0.0,0.0,0.0,0.0,0.0,0.0,0.0,0.0,0.0,0.0,0.0,0.0,0.0,0.0,0.0,0.0,0.0,0.0,0.0,0.0,0.0,0.0,0.0,0.0,0.0,0.0,0.0,0.0,0.0,0.0,0.0,0.0,0.0,0.0,0.0,0.0,0.0,0.0,0.0,0.0,0.0,0.0,0.0,0.0,0.0,0.0,0.0,0.0,0.0,0.0,0.0,0.0,0.0,0.0,0.0,0.0,0.0,0.0,0.0,0.0,0.0,0.0,0.0,5.3683,5.6144,5.7953,5.8769,5.7625,5.6604,5.6102,5.3748,5.1116,4.8392,0.0,0.0,0.0,0.0,0.0,0.0,0.0,0.0,0.0,0.0,0.0,0.0,0.0,0.0,0.0,0.0,0.0,0.0,0.0,0.0,0.0,0.0,0.0,0.0,0.0,0.0,0.0,0.0,0.0,0.0,0.0,0.0,0.0,0.0,0.0,0.0,0.0,0.0,0.0,0.0,0.0,0.0,0.0,0.0,0.0,0.0,0.0,0.0,0.0,0.0,0.0,0.0,0.0,0.0,0.0,0.0,0.0,0.0,0.0,0.0,0.0,0.0,0.0,0.0,0.0,0.0,0.0,0.0,0.0,0.0,0.0,0.0,0.0,0.0,0.0,0.0,0.0,0.0,0.0,0.0,0.0,0.0,0.0,0.0,0.0,0.0,0.0,0.0,0.0,0.0,0.0,0.0,0.0,0.0,0.0,0.0,0.0,0.0,0.0,0.0,0.0,0.0,5.3575,5.63,5.8176,5.8614,5.7545,5.6629,5.6188,5.4056,5.1514,4.8529,0.0,0.0,0.0,0.0,0.0,0.0,0.0,0.0,0.0,0.0,0.0,0.0,0.0,0.0,0.0,0.0,0.0,0.0,0.0,0.0,0.0,0.0,0.0,0.0,0.0,0.0,0.0,0.0,0.0,0.0,0.0,0.0,0.0,0.0,0.0,0.0,0.0,0.0,0.0,0.0,0.0,0.0,0.0,0.0,0.0,0.0,0.0,0.0,0.0,0.0,0.0,0.0,0.0,0.0,0.0,0.0,0.0,0.0,0.0,0.0,0.0,0.0,0.0,0.0,0.0,0.0,0.0,0.0,0.0,0.0,0.0,0.0,0.0,0.0,0.0,0.0,0.0,0.0,0.0,0.0,0.0,0.0,0.0,0.0,0.0,0.0,0.0,0.0,0.0,0.0,0.0,0.0,0.0,0.0,0.0,0.0,0.0,0.0,0.0,0.0,0.0,0.0,5.2867,5.5946,5.7911,5.7998,5.7343,5.6882,5.6803,5.4828,5.23,4.9281,0.0,0.0,0.0,0.0,0.0,0.0,0.0,0.0,0.0,0.0,0.0,0.0,0.0,0.0,0.0,0.0,0.0,0.0,0.0,0.0,0.0,0.0,0.0,0.0,0.0,0.0,0.0,0.0,0.0,0.0,0.0,0.0,0.0,0.0,0.0,0.0,0.0,0.0,0.0,0.0,0.0,0.0,0.0,0.0,0.0,0.0,0.0,0.0,0.0,0.0,0.0,0.0,0.0,0.0,0.0,0.0,0.0,0.0,0.0,0.0,4.4444,4.3152,0.0,0.0,0.0,0.0,0.0,0.0,0.0,0.0,0.0,0.0,0.0,0.0,0.0,0.0,0.0,0.0,0.0,0.0,0.0,0.0,0.0,0.0,0.0,0.0,0.0,0.0,0.0,0.0,0.0,0.0,0.0,0.0,0.0,0.0,0.0,0.0,0.0,0.0,0.0,0.0,5.2983,5.5512,5.7516,5.873,5.8135,5.742,5.6851,5.531,5.3086,5.0075,4.7943,0.0,0.0,0.0,0.0,0.0,0.0,0.0,0.0,0.0,0.0,0.0,0.0,0.0,0.0,0.0,0.0,0.0,0.0,0.0,0.0,0.0,0.0,0.0,0.0,0.0,0.0,0.0,0.0,0.0,0.0,0.0,0.0,0.0,0.0,0.0,0.0,0.0,0.0,0.0,0.0,0.0,0.0,0.0,0.0,0.0,0.0,0.0,0.0,0.0,0.0,0.0,0.0,0.0,0.0,0.0,0.0,0.0,0.0,0.0,4.7252,4.6094,0.0,0.0,0.0,0.0,0.0,0.0,0.0,0.0,0.0,0.0,0.0,0.0,0.0,0.0,0.0,0.0,0.0,0.0,0.0,0.0,0.0,0.0,0.0,0.0,0.0,0.0,0.0,0.0,0.0,0.0,0.0,0.0,0.0,0.0,0.0,0.0,0.0,0.0,0.0,0.0,5.248,5.5147,5.7242,5.8392,5.8155,5.7755,5.734,5.5987,5.416,5.1868,4.9289,0.0,0.0,0.0,0.0,0.0,0.0,0.0,0.0,0.0,0.0,0.0,0.0,0.0,0.0,0.0,0.0,0.0,0.0,0.0,0.0,0.0,0.0,0.0,0.0,0.0,0.0,0.0,0.0,0.0,0.0,0.0,0.0,0.0,0.0,0.0,0.0,0.0,0.0,0.0,0.0,0.0,0.0,0.0,0.0,0.0,0.0,0.0,0.0,0.0,0.0,0.0,0.0,0.0,5.1818,5.2249,5.2393,5.3002,5.2934,5.2291,5.1082,5.0168,4.9518,4.8766,0.0,0.0,0.0,0.0,0.0,0.0,0.0,0.0,0.0,0.0,0.0,0.0,0.0,0.0,0.0,0.0,0.0,0.0,0.0,0.0,0.0,0.0,4.9932,5.0549,5.0684,4.9872,4.68,0.0,0.0,0.0,0.0,0.0,0.0,0.0,0.0,0.0,0.0,0.0,5.1943,5.4791,5.6926,5.7803,5.7891,5.7891,5.7891,5.6655,5.5268,5.378,5.1116,4.8545,0.0,0.0,0.0,0.0,0.0,0.0,0.0,0.0,0.0,0.0,0.0,0.0,0.0,0.0,0.0,0.0,0.0,0.0,0.0,0.0,0.0,0.0,0.0,0.0,0.0,0.0,0.0,0.0,0.0,0.0,0.0,0.0,4.8951,4.9601,0.0,0.0,0.0,0.0,0.0,0.0,0.0,0.0,0.0,0.0,0.0,0.0,0.0,5.0405,5.1725,5.2494,5.3611,5.4955,5.5708,5.6393,5.7011,5.7112,5.7112,5.7011,5.6808,0.0,5.1826,5.1066,0.0,0.0,0.0,0.0,0.0,0.0,0.0,0.0,0.0,0.0,0.0,0.0,0.0,0.0,0.0,0.0,0.0,0.0,0.0,0.0,0.0,0.0,5.2934,5.3044,5.3036,5.2909,5.2435,5.0431,4.824,4.6658,4.7015,4.7109,0.0,0.0,0.0,0.0,0.0,0.0,5.2082,5.4381,5.6381,5.773,5.7891,5.7891,5.7891,5.7137,5.6021,5.4541,5.2891,5.065,4.7718,4.6203,0.0,0.0,0.0,0.0,0.0,0.0,0.0,0.0,0.0,0.0,0.0,0.0,0.0,0.0,0.0,0.0,0.0,0.0,0.0,0.0,0.0,0.0,0.0,0.0,0.0,0.0,0.0,0.0,0.0,4.956,5.0364,5.0668,5.1082,5.1022,0.0,0.0,0.0,0.0,0.0,0.0,0.0,0.0,0.0,5.1995,5.2799,5.3746,5.4837,5.5581,5.6528,5.7559,5.7863,5.8414,5.9142,5.9142,5.9142,5.9142,5.9142,5.8186,5.6528,5.4558,5.3543,5.3103,0.0,0.0,0.0,0.0,5.104,5.1133,5.1894,5.2131,5.2063,5.1522,0.0,0.0,0.0,0.0,0.0,0.0,0.0,5.1623,5.2807,5.3619,5.4329,5.5175,5.5336,5.5336,5.5336,5.4329,5.257,4.9822,4.9544,4.9138,4.7244,4.7564,0.0,0.0,0.0,5.1725,5.2841,5.493,5.6722,5.7789,5.7891,5.7891,5.7891,5.7205,5.6528,5.5894,5.4439,5.2646,5.0465,4.8951,4.6921,0.0,0.0,0.0,0.0,0.0,0.0,0.0,0.0,0.0,0.0,0.0,0.0,0.0,0.0,0.0,0.0,0.0,0.0,0.0,0.0,0.0,0.0,0.0,0.0,0.0,0.0,0.0,0.0,5.1352,5.1987,5.1818,5.2427,5.2367,0.0,0.0,0.0,0.0,0.0,0.0,5.263,5.3881,5.4803,5.5166,5.6452,5.75,5.822,5.8964,5.9607,6.0163,6.0341,6.0714,6.1264,6.1264,6.1264,6.1264,6.1264,6.1129,6.0747,5.7771,5.6443,5.6147,5.4862,5.4219,5.4084,5.4253,5.4355,5.4465,5.5184,5.5455,5.5252,5.4101,5.3348,5.2536,5.071,0.0,0.0,0.0,0.0,5.3509,5.5049,5.5581,5.6064,5.734,5.7636,5.7636,5.7636,5.75,5.6316,5.2765,5.2089,5.148,4.9645,4.9789,0.0,4.9409,5.1344,5.3179,5.3949,5.5818,5.7273,5.7823,5.806,5.8094,5.7924,5.7408,5.7002,5.679,5.575,5.4473,5.2942,5.1665,4.9669,4.6887,0.0,0.0,0.0,0.0,0.0,0.0,0.0,0.0,0.0,0.0,0.0,0.0,0.0,0.0,0.0,0.0,0.0,0.0,0.0,0.0,0.0,0.0,0.0,0.0,0.0,0.0,0.0,0.0,0.0,5.3484,5.4033,0.0,0.0,0.0,0.0,5.427,5.4439,5.5082,5.6461,5.7248,5.833,5.9708,6.0588,6.1366,6.212,6.2844,6.324,6.3274,6.3994,6.4343,6.4377,6.4377,6.4377,6.4377,6.4377,6.3971,6.3115,6.0061,5.8414,5.7721,5.6934,5.6215,5.5665,5.6393,5.663,5.6731,5.7485,5.7721,5.7721,5.762,5.6199,5.4338,5.3518,5.2773,0.0,0.0,5.4414,5.5868,5.7349,5.8254,5.8979,5.9742,5.9945,5.9945,5.9945,5.9394,5.8008,5.5015,5.4439,5.4169,5.3374,0.0,5.3272,5.3205,5.3923,5.4735,5.5496,5.69,5.7857,5.7891,5.8524,5.865,5.7958,5.7857,5.7552,5.6833,5.6731,5.6021,5.4541,5.3754,5.2232,4.9906,4.8469,0.0,0.0,0.0,0.0,0.0,0.0,0.0,0.0,0.0,0.0,0.0,0.0,0.0,0.0,0.0,0.0,0.0,0.0,0.0,0.0,0.0,0.0,0.0,0.0,0.0,0.0,0.0,0.0,5.5615,5.6697,0.0,5.6402,5.6064,5.6131,5.6673,5.7586,5.8592,5.9641,6.0858,6.1728,6.2269,6.3024,6.3565,6.3802,6.4072,6.4197,6.4197,6.4478,6.4613,6.4613,6.4613,6.4613,6.4613,6.4613,6.4444,6.413,6.3047,6.1603,6.0013,5.9235,5.8752,5.8549,5.8829,5.893,5.8964,5.9235,5.9302,5.9244,5.8761,5.7746,5.6673,5.6402,5.6131,5.6055,5.6824,5.7433,5.8032,5.9066,5.9505,5.9766,6.0047,6.0114,6.0114,6.0114,5.9902,5.9404,5.8355,5.7002,5.5615,5.4431,5.4591,5.4761,5.4262,5.5658,5.6808,5.707,5.8389,5.9302,5.9302,5.9539,5.9404,5.8684,5.8616,5.8287,5.7552,5.7518,5.7079,5.6055,5.575,5.4329,5.1555,5.1014,4.8943,0.0,0.0,0.0,0.0,0.0,0.0,0.0,0.0,0.0,0.0,0.0,0.0,0.0,0.0,0.0,0.0,0.0,0.0,0.0,0.0,0.0,0.0,0.0,0.0,0.0,5.5437,5.7264,5.75,5.909,5.9877,5.9109,5.9041,5.9235,5.9742,6.0689,6.1603,6.2381,6.3589,6.4241,6.4241,6.4942,6.5347,6.5347,6.5347,6.5347,6.5347,6.5347,6.5347,6.5347,6.5347,6.5347,6.5347,6.5347,6.5189,6.4952,6.4952,6.3971,6.2347,6.1839,6.1637,6.1603,6.1332,6.1264,6.1231,6.096,6.0723,6.0419,5.9936,5.9268,5.8635,5.8635,5.8635,5.8736,5.9225,5.9564,5.9902,6.0385,6.0689,6.0892,6.0892,6.0892,6.0892,6.0892,6.0892,6.0791,6.0554,5.9099,5.7611,5.663,5.6858,5.6925,5.619,5.7552,5.8567,5.8287,5.9573,6.0419,6.0148,6.0351,6.0216,5.9428,5.8921,5.8524,5.8287,5.7577,5.7036,5.679,5.6553,5.5369,5.3112,5.2325,5.0228,4.6812,0.0,0.0,0.0,0.0,0.0,0.0,0.0,0.0,0.0,0.0,0.0,0.0,0.0,0.0,0.0,0.0,0.0,0.0,0.0,0.0,0.0,0.0,0.0,5.471,5.7857,5.9902,5.9225,6.1095,6.2188,6.1501,6.1434,6.2009,6.3453,6.3579,6.3893,6.4647,6.5368,6.574,6.574,6.644,6.6802,6.6802,6.6802,6.6802,6.6802,6.6802,6.6802,6.6802,6.6802,6.6802,6.6802,6.6802,6.6406,6.574,6.574,6.53,6.4647,6.4613,6.4613,6.4512,6.3792,6.3511,6.3419,6.2719,6.2009,6.14,6.14,6.0858,6.0216,6.0216,6.0182,6.0182,6.0182,6.0723,6.1332,6.1332,6.1873,6.2391,6.2391,6.2391,6.2391,6.2391,6.2391,6.2188,6.1467,6.0689,6.0148,6.0114,6.0114,5.9877,5.9148,5.9665,0.0,5.9148,6.0409,6.1028,6.0216,6.0825,6.096,6.0182,5.877,5.822,5.8912,5.6916,5.6046,5.6765,5.6105,5.5403,5.4642,5.2359,5.0491,4.9044,0.0,0.0,0.0,0.0,0.0,0.0,0.0,0.0,0.0,0.0,0.0,0.0,0.0,0.0,0.0,0.0,0.0,0.0,0.0,0.0,0.0,5.6122,5.7602,5.7079,5.9278,6.1289,6.2168,6.3294,6.415,6.4454,6.4005,6.4072,6.5019,6.5097,6.5425,6.6159,6.6396,6.6497,6.6497,6.67,6.6802,6.6802,6.6802,6.6802,6.6802,6.6802,6.6802,6.6802,6.6802,6.6802,6.6802,6.6802,6.6667,6.6497,6.6497,6.6362,6.6092,6.5019,6.4613,6.458,6.4367,6.4299,6.4265,6.4072,6.3869,6.37,6.37,6.3183,6.2574,6.2574,6.2178,6.1782,6.1782,6.1917,6.212,6.212,6.2255,6.2391,6.2391,6.2391,6.2391,6.2391,6.2391,6.2357,6.2154,6.1917,6.1409,6.0283,6.0114,6.0047,5.9844,6.0486,6.0892,6.068,6.1501,6.1815,6.1061,6.1163,6.096,6.0182,5.9235,5.8558,5.822,5.7137,5.6596,5.679,5.6596,5.6147,5.5403,5.2621,5.0736,0.0,0.0,0.0,0.0,0.0,0.0,0.0,0.0,0.0,0.0,0.0,0.0,0.0,0.0,0.0,0.0,0.0,0.0,0.0,0.0,0.0,0.0,5.8684,6.0486,6.0699,6.211,6.3463,6.4309,6.5358,6.6034,6.6136,6.5764,6.5696,6.6136,6.617,6.6339,6.6768,6.6802,6.6802,6.6802,6.6802,6.6802,6.6802,6.6802,6.6802,6.6802,6.6802,6.6802,6.6802,6.6802,6.6802,6.6802,6.6802,6.6802,6.6802,6.6802,6.6802,6.67,0.0,0.0,0.0,0.0,6.486,6.4613,6.4613,6.4613,6.4613,6.4613,6.4096,6.3555,6.3859,6.3463,6.2922,6.3226,6.3338,6.3338,6.3338,6.3338,6.3338,6.3338,6.3338,6.3338,6.3338,6.3338,6.3338,6.3338,6.3338,0.0,6.2144,6.1467,6.096,6.0655,6.1264,6.1637,6.1332,6.1941,6.2347,6.2236,6.1941,6.1704,6.1535,6.0274,0.0,0.0,0.0,5.6664,5.635,5.635,0.0,0.0,0.0,0.0,0.0,0.0,0.0,0.0,4.9729,4.9484,0.0,0.0,0.0,0.0,0.0,0.0,0.0,0.0,0.0,0.0,0.0,0.0,0.0,0.0,0.0,0.0,6.1231,6.3169,6.4647,6.5561,6.6011,6.5842,6.6981,6.7557,6.6971,6.6937,6.6971,6.7039,6.7072,6.7072,6.7072,6.7072,0.0,0.0,0.0,6.7072,6.7072,6.7072,6.7072,6.7072,6.7072,6.7072,6.7072,6.7072,6.7005,6.6937,6.6937,6.6869,6.6802,6.6802,6.6802,6.6802,6.6802,6.6802,6.6734,6.6079,6.5402,6.485,6.485,0.0,0.0,6.4715,6.4174,6.3646,6.4377,6.4096,6.3656,6.44,6.4613,6.4613,6.4613,6.4613,6.4613,6.4613,6.4613,6.4613,6.4613,6.4613,6.4613,6.4613,6.4613,6.4613,6.4613,6.3497,6.2424,6.1772,6.2144,6.2313,6.1738,6.2178,6.2753,6.3443,6.2922,0.0,6.3453,6.1492,6.025,6.025,5.8211,5.6756,5.6105,5.6003,5.5936,5.5936,5.5868,5.5834,5.5834,5.5911,5.564,5.5015,5.1522,5.0879,0.0,0.0,0.0,0.0,0.0,0.0,0.0,0.0,0.0,0.0,0.0,0.0,0.0,0.0,0.0,6.1443,6.3091,6.4681,6.6159,6.7557,6.7996,6.6734,6.6836,6.7174,6.7658,6.7692,6.7963,6.8605,6.8673,6.8673,6.8673,6.8673,6.8673,6.8673,6.8673,6.8673,6.8673,6.8673,6.8673,6.8673,6.8673,0.0,6.8673,6.8673,6.8301,6.7692,6.7692,6.7343,6.6802,6.6802,6.6802,6.6802,6.6802,6.6802,6.6768,6.6633,6.6497,6.6362,6.6362,6.6,6.5503,6.5503,6.458,6.3646,6.4377,6.4096,0.0,6.44,6.4613,6.4613,6.4613,6.4613,6.4613,6.4613,6.4613,6.4613,6.4613,6.4613,6.4613,6.4613,6.4613,6.4613,6.4613,6.4377,6.414,6.3971,6.3589,6.3453,6.3903,6.3555,6.3352,6.3477,6.3386,6.3352,6.3487,6.1999,6.1061,6.1061,5.9496,5.8515,5.8371,5.778,5.7476,5.7476,5.69,5.6596,5.6596,5.7171,5.7712,5.8109,5.6181,5.52,0.0,0.0,0.0,0.0,0.0,0.0,0.0,0.0,0.0,0.0,0.0,5.8346,5.9868,0.0,6.254,6.4793,6.6102,6.7117,6.785,6.8944,6.9079,6.7523,6.8019,6.8504,6.8504,6.8504,6.8673,6.9079,6.9113,6.9113,6.9113,6.9113,6.9113,6.9113,6.9113,6.9113,6.9113,6.9113,6.9113,6.9113,6.9113,6.9113,6.9113,6.9113,6.8876,6.8504,6.8504,6.829,6.7952,6.7952,6.7715,6.7343,6.7343,6.7106,6.6802,6.6802,6.6802,6.6802,6.6802,6.6565,6.6237,6.6237,6.5493,6.4749,6.5483,6.5178,6.4749,6.5483,6.5686,6.5686,6.5686,6.5686,6.5686,6.5686,6.5686,6.5686,6.5686,6.5686,6.5686,6.5686,6.5686,6.5686,6.5686,6.5686,6.5449,6.4715,6.4299,6.4164,6.4546,6.4275,6.4197,6.4546,6.4265,6.4197,6.458,6.2922,6.167,6.1332,6.0206,5.9564,5.9564,5.9201,5.9007,5.9007,5.8626,5.8457,5.8457,5.8829,5.9201,5.953,5.9201,5.865,0.0,0.0,0.0,0.0,0.0,0.0,0.0,5.6482,5.8017,5.9191,5.98,6.0738,6.2906,6.3672,6.472,6.6954,6.8103,6.8796,6.9065,6.9882,7.0003,6.891,6.9485,6.9868,6.9553,6.9417,6.9417,6.9722,6.962,6.9519,6.9519,6.9519,6.9519,6.9519,6.9519,6.9519,6.9519,6.9519,6.9519,6.9519,6.9519,6.9519,6.9519,6.9519,6.9451,6.9316,6.9147,6.9113,6.9113,6.9113,6.8707,6.8132,6.8132,6.7658,6.7005,6.6869,6.6802,6.6802,6.6802,6.67,6.6599,6.6599,6.6102,6.5639,6.6362,6.617,6.5842,6.6599,6.6802,6.6802,6.6802,6.6802,6.6802,6.6802,6.6802,6.6802,6.6802,6.6802,6.6802,6.6802,6.6802,6.6802,6.6802,6.6802,6.6396,6.5222,6.4918,6.4884,6.5019,6.4884,6.5087,6.5842,6.5392,6.5222,6.5672,6.4082,6.2729,6.1975,6.1332,6.096,6.096,6.0689,6.0554,6.0554,6.0554,6.0554,6.0554,6.0825,6.096,6.0994,6.1637,6.1366,5.1082,5.0307,5.0061,5.0703,5.2754,5.4815,0.0,5.8306,6.0849,6.1028,6.2618,6.3669,6.2778,6.4288,6.5527,6.5279,6.6356,6.7701,6.8991,7.0349,7.1368,7.1853,7.0297,6.9722,7.0928,7.0466,7.0612,7.1921,7.1436,7.1064,7.1064,7.1064,7.1064,7.1064,7.1064,7.1064,7.1064,7.1064,7.1064,7.1064,7.1064,7.1064,7.1064,7.1064,7.0703,7.0037,6.9383,6.9113,6.9113,6.9113,6.9045,6.8977,6.8977,6.847,6.7692,6.7039,6.6802,6.6802,6.6802,6.6373,6.5808,6.5808,6.5334,6.485,6.5605,6.5774,6.5842,6.6599,6.6802,6.6802,6.6802,6.6802,6.6802,6.6802,6.6802,6.6802,6.6802,6.6802,6.6802,6.6802,6.6802,6.6802,6.6802,6.6802,6.6724,6.6599,6.6,6.5808,6.6464,6.5967,6.5876,6.6599,6.6599,6.6339,6.574,6.5469,6.503,6.4275,6.414,6.4106,6.4106,6.2821,6.2154,6.2154,6.2154,6.2154,6.2154,6.3463,6.4106,6.4106,6.4174,6.3125,5.1207,5.0713,5.0856,5.1918,5.436,5.6892,5.8446,6.017,6.1939,6.3623,6.4067,6.4232,6.453,6.5364,6.607,6.6222,6.7069,6.7905,6.8545,7.0177,7.1418,7.173,7.094,7.0946,7.2427,7.2304,7.2372,7.2981,7.2732,7.2563,7.2563,7.2563,7.2563,7.2563,7.2563,7.2563,7.2563,7.2563,7.2563,7.2563,7.2563,7.2563,7.2563,7.2157,7.1548,7.0838,7.0522,7.0387,7.0387,7.0387,7.0128,6.9733,6.9733,6.9282,6.8504,6.7726,6.7174,6.6802,6.6802,6.6599,6.6339,6.6339,6.6136,6.5922,6.6271,6.6339,6.6396,6.67,6.6802,6.6802,6.6802,6.6802,6.6802,6.6802,6.6802,6.6802,6.6802,6.6802,6.6802,6.6802,6.6802,6.6802,6.6802,6.6802,6.6802,6.6802,6.6531,6.643,6.6768,6.6531,6.6474,6.6768,6.6802,6.6497,6.5774,6.5706,6.5402,6.4647,6.4613,6.4613,6.4613,6.4005,6.3666,6.3666,6.3666,6.3666,6.3666,6.4309,6.4613,6.4613,6.4613,6.4106,5.0886,5.1171,5.2192,5.4099,5.6946,5.9763,6.169,6.2759,6.3901,6.5784,6.5384,6.4905,6.5668,6.5946,6.614,6.6289,6.7223,6.7988,6.8178,6.9821,7.1039,7.1051,7.1051,7.1638,7.3103,7.303,7.3137,7.3758,7.3624,7.3488,7.3488,7.3488,7.3488,7.3488,7.3488,7.3488,7.3488,7.3488,7.3488,7.3488,7.3488,7.3488,7.3488,7.2947,7.2428,7.1887,7.1672,7.1605,7.1605,7.1402,7.0996,7.0511,7.0511,7.006,6.9316,6.8751,6.8064,6.7444,6.7444,6.7444,6.7444,6.7444,6.7444,6.7444,6.7444,6.7275,6.7106,6.7106,6.6971,6.6802,6.6802,6.6937,6.7039,6.6869,6.7106,6.7309,6.6903,6.6971,6.7039,6.6836,6.6802,6.6802,6.6802,6.6802,6.6802,6.6802,6.6802,6.6802,6.6802,6.6802,6.6802,6.6802,6.6802,6.6565,6.6045,6.6011,6.5764,6.5246,6.5222,6.5222,6.5222,6.5019,6.4884,6.4884,6.4884,6.4884,6.4884,6.5324,6.5425,6.5222,6.5425,6.5392,5.0163,5.1642,5.3929,5.7225,6.0502,6.3288,6.468,6.6424,6.7646,6.6984,6.6901,6.6513,6.5256,6.561,6.5657,6.4325,6.5804,6.737,6.8095,6.943,7.0353,7.0402,7.0415,7.1017,7.2484,7.187,7.2264,7.442,7.3883,7.3488,7.3488,7.3488,7.3488,7.3488,7.3488,7.3488,7.3488,7.3488,7.3488,7.3488,7.3488,7.3488,7.3488,7.3488,7.3454,7.3387,7.2665,7.236,7.2326,7.1605,7.13,7.1267,7.1267,7.0804,7.0172,7.0139,6.9654,6.9045,6.9045,6.9045,6.9045,6.9045,6.9045,6.9045,6.9045,6.8504,6.7861,6.7861,6.7343,6.6802,6.6802,6.7343,6.7692,6.6971,6.7952,6.8639,6.7106,6.7343,6.7658,6.6937,6.6802,6.6802,6.6802,6.6802,6.6802,6.6802,6.6802,6.6802,6.6802,6.6802,6.6802,6.6802,6.6802,6.6802,6.6768,6.6768,6.6768,6.6734,6.6734,6.6734,6.6734,6.6045,6.5672,6.5672,6.5672,6.5672,6.5672,6.7083,6.7421,6.6768,6.7489,6.7421,5.1814,5.3665,5.5768,5.817,6.0968,6.3445,6.4773,6.5569,6.6209,6.6878,6.5964,6.4875,6.4425,6.4535,6.4543,6.4094,6.5333,6.6794,6.8019,6.9353,7.0788,7.2346,7.1191,7.1066,7.3071,7.1701,7.2,7.5115,7.4241,7.3964,7.493,7.4977,7.4977,7.4977,7.4977,7.4977,7.4977,7.4977,7.4977,7.4977,7.4977,7.4695,7.4221,7.4221,7.395,7.3488,7.3251,7.3116,7.3082,7.2326,7.2011,7.1988,7.1503,7.1131,7.0939,7.0939,7.0759,7.0421,6.9451,6.9113,6.9113,6.9113,6.9113,6.9113,6.9113,6.891,6.8707,6.8707,6.8538,6.8335,6.8335,6.8504,6.8639,6.8402,6.873,6.8977,6.8425,6.8538,6.8605,6.8358,6.8335,6.8335,6.8335,6.8335,6.8121,6.7624,6.7106,6.6802,6.6802,6.6802,6.6802,6.6802,6.6802,6.6802,6.6802,6.6802,6.7005,6.7489,6.7523,6.7749,6.829,6.8098,6.7963,6.7963,6.7963,6.7963,6.7963,6.8436,6.8301,6.7557,6.7793,6.7489,5.3665,5.573,5.7808,6.0298,6.2544,6.4452,6.5544,6.5979,6.621,6.6631,6.5264,6.4006,6.4006,6.3827,6.3827,6.4291,6.5458,6.6944,6.8718,6.9228,7.0062,7.185,7.0058,6.9561,7.1794,7.0093,7.052,7.462,7.4371,7.4638,7.6043,7.6386,7.6533,7.6533,7.6533,7.6533,7.6533,7.6251,7.598,7.5709,7.5709,7.5439,7.4987,7.4987,7.4728,7.4266,7.403,7.3883,7.3849,7.3116,7.2812,7.2732,7.2259,7.209,7.209,7.209,7.209,7.1887,7.0387,6.9891,6.9891,6.9891,6.9891,6.9891,6.9891,6.9688,6.9485,6.9485,6.9316,6.9113,6.9113,6.9316,6.9417,6.9147,6.9508,6.9744,6.9214,6.9316,6.9417,6.9147,6.9113,6.9113,6.9113,6.9113,6.891,6.8402,6.7929,6.7411,6.6869,6.6802,6.6802,6.6802,6.6802,6.6802,6.6802,6.6802,6.7106,6.7861,6.7895,6.8267,6.9079,6.9113,6.9113,6.9113,6.9113,6.9113,6.9113,6.9113,6.8707,6.7895,6.7895,6.7489,5.5593,5.7736,5.9977,6.3177,6.5032,6.6228,6.6832,6.7515,6.7607,6.6267,6.4904,6.3947,6.3977,6.3512,6.3542,6.4859,6.6192,6.7895,7.0146,6.9154,6.8561,6.9516,6.7602,6.7034,6.9104,6.7378,6.8239,7.322,7.4213,7.5272,7.6821,7.7616,7.7988,7.7988,7.7988,7.7988,7.7988,7.7312,7.6555,7.5743,7.5743,7.5743,7.5709,7.5709,7.5709,7.5676,7.4953,7.4649,7.4581,7.3849,7.3556,7.3556,7.3522,7.3488,7.3488,7.3488,7.3488,7.3285,7.1909,7.1402,7.1402,7.1402,7.1402,7.1402,7.1402,7.0906,7.0375,7.0375,6.9823,6.9282,6.9282,6.9755,7.0071,6.9383,7.0286,7.0928,6.9508,6.9755,7.0037,6.935,6.9214,6.9214,6.9214,6.918,6.9147,6.9147,6.9113,6.8571,6.7039,6.6869,6.6836,6.6802,6.6802,6.6802,6.6802,6.6802,6.7106,6.7861,6.7929,6.8335,6.9113,6.918,6.9169,6.9147,6.9147,6.9147,6.9147,6.9147,6.8774,6.803,6.803,6.7624,5.7034,5.9056,6.0918,6.2284,6.3954,6.5314,6.5495,6.6039,6.6447,6.6087,6.4575,6.3482,6.3917,6.3512,6.3692,6.5458,6.7406,6.9631,7.2301,7.1816,7.1925,7.3851,7.1074,6.9421,7.0573,6.9184,6.9715,7.3242,7.3241,7.4176,7.6772,7.7616,7.7988,7.7988,7.7988,7.7988,7.7988,7.7819,7.7333,7.6589,7.6589,7.6284,7.5709,7.5709,7.5709,7.5676,7.5506,7.5439,7.5371,7.4627,7.4322,7.4243,7.3725,7.3488,7.3488,7.3488,7.3488,7.3454,7.3082,7.2947,7.2947,7.2947,7.2947,7.2947,7.2947,7.2812,7.2642,7.2642,7.2135,7.1548,7.1548,7.1278,7.0962,7.0793,7.103,7.1199,7.0827,7.0894,7.0962,7.0793,7.0725,7.0725,7.0725,7.0297,6.9936,6.9936,6.9451,6.8741,6.776,6.7624,6.7421,6.6869,6.6802,6.6802,6.6802,6.6802,6.7106,6.7861,6.847,6.9113,6.9902,7.0466,7.05,6.9936,6.9936,6.9936,6.9936,6.9936,6.98,6.9597,6.9597,6.9225,5.8966,6.0671,6.2121,6.278,6.3992,6.4845,6.4291,6.4665,6.4874,6.4022,6.2989,6.2435,6.3049,6.2884,6.3393,6.5652,6.7547,6.9811,7.2916,7.241,7.2411,7.4417,7.1905,7.0194,7.0632,6.9674,7.0065,7.2681,7.3211,7.4705,7.7693,7.8551,7.8969,7.8969,7.8969,7.8822,7.8483,7.8157,7.7785,7.7367,7.669,7.6318,7.6217,7.5845,7.5709,7.5709,7.5709,7.5709,7.5676,7.5258,7.51,7.5021,7.4639,7.4469,7.4503,7.4875,7.4774,7.4537,7.4875,7.4774,7.4368,7.3691,7.3488,7.3488,7.3488,7.3488,7.3488,7.3488,7.3218,7.2879,7.2879,7.2563,7.2259,7.2259,7.2259,7.2259,7.2259,7.2259,7.2157,7.1842,7.2045,7.2056,7.1402,7.1244,7.1052,7.0737,7.0319,6.9789,6.9022,6.8639,6.8267,6.785,6.7478,6.7275,6.7275,6.7005,6.7106,6.7861,6.8673,6.9282,6.9688,7.0725,7.0962,7.0206,7.0511,7.0669,7.0669,7.0375,7.0206,7.0206,6.9868,6.9485,6.112,6.2391,6.3482,6.4006,6.456,6.468,6.3482,6.3468,6.3258,6.1569,6.103,6.112,6.2061,6.2151,6.3019,6.5802,6.7408,6.9486,7.2876,7.2184,7.191,7.3386,7.1675,7.0396,7.0396,6.9842,7.0297,7.2227,7.3915,7.5996,7.8644,7.9702,8.0209,8.0209,8.0209,7.9904,7.9249,7.8619,7.8259,7.8124,7.6792,7.6454,7.7029,7.6217,7.5845,7.5845,7.5743,7.5709,7.5709,7.5709,7.5709,7.5709,7.5709,7.5709,7.5777,7.6487,7.6284,7.5811,7.6487,7.6284,7.5473,7.4199,7.3793,7.3793,7.3793,7.3793,7.3793,7.3793,7.3725,7.3657,7.3657,7.3556,7.3488,7.3488,7.3488,7.3488,7.3488,7.3488,7.3319,7.2665,7.3048,7.3082,7.1808,7.2124,7.2293,7.1571,7.1436,7.1165,7.0443,6.9688,6.9214,6.9113,6.847,6.8064,6.8064,6.7478,6.7377,6.803,6.8808,6.9248,6.9248,7.0556,7.0962,7.0206,7.0838,7.1165,7.1165,7.05,7.024,7.0342,6.9688,6.9383,6.3139,6.4052,6.471,6.4785,6.4904,6.4785,6.4006,6.3109,6.2331,6.2002,6.0595,6.0146,6.2495,6.2465,6.3333,6.7044,6.8925,7.0884,7.3633,7.3803,7.3956,7.4763,7.3418,7.2398,7.2398,7.2279,7.2669,7.3741,7.5276,7.647,7.7179,7.9126,8.0209,8.0209,8.0209,8.0141,8.0006,7.987,7.9498,7.8911,7.864,7.8247,7.7785,7.7029,7.669,7.6657,7.598,7.5709,7.5709,7.5709,7.5709,7.5709,7.5709,7.5709,7.5709,7.5845,7.5811,7.5709,7.5845,7.5811,7.5676,7.5405,7.5315,7.5315,7.5315,7.5315,7.5315,7.5315,7.4897,7.4412,7.4412,7.395,7.3488,7.3488,7.3488,7.3488,7.3488,7.3488,7.3454,7.3319,7.3421,7.3421,7.315,7.3218,7.3048,7.2326,7.2225,7.1943,7.1199,7.0466,6.9766,6.918,6.8977,6.8876,6.8876,6.8774,6.8774,6.8876,6.9586,7.0003,7.0003,7.0838,7.0962,7.0206,7.0342,7.0409,7.0409,7.0274,7.05,7.1097,7.0996,7.0928,6.4351,6.5248,6.5966,6.5607,6.5518,6.4979,6.2945,6.2032,6.1194,5.9787,5.9548,6.0116,6.1762,6.2375,6.3452,6.6011,6.7336,6.9093,7.2061,7.2472,7.2973,7.434,7.3874,7.3266,7.2937,7.2907,7.3076,7.3487,7.4641,7.5905,7.7286,7.9165,7.9824,7.9033,7.9773,7.9811,7.902,7.9415,7.9621,7.9655,7.8889,7.8551,7.8551,7.7807,7.7266,7.6893,7.6906,7.642,7.5743,7.6149,7.6318,7.6284,7.5845,7.5946,7.6352,7.677,7.6657,7.6386,7.677,7.6906,7.6838,7.6454,7.6048,7.5709,7.5709,7.5709,7.5709,7.5709,7.5439,7.5168,7.5168,7.4897,7.4627,7.4627,7.4627,7.4627,7.4627,7.4627,7.4537,7.4153,7.439,7.4402,7.3624,7.3827,7.3815,7.3071,7.2981,7.2845,7.2496,7.1785,7.1041,7.0319,6.9891,6.9665,6.9665,6.9316,6.9113,6.9113,6.98,7.0037,6.962,7.0692,7.0962,7.0206,7.0567,7.077,7.077,7.077,7.0962,7.13,7.13,7.1503,6.5488,6.64,6.7104,6.655,6.6311,6.5383,6.2241,6.1299,6.0462,5.8215,5.8903,6.0206,6.1343,6.2405,6.3572,6.4979,6.5667,6.7148,7.044,7.0889,7.1697,7.3851,7.4091,7.3911,7.3373,7.3343,7.3266,7.3133,7.3783,7.513,7.7281,7.8684,7.8823,7.746,7.8881,7.9124,7.7909,7.8847,7.9621,8.0175,7.9037,7.8754,7.9317,7.8585,7.7908,7.7401,7.7819,7.7312,7.6251,7.686,7.713,7.7063,7.642,7.6589,7.7198,7.7785,7.765,7.7198,7.7785,7.7988,7.7887,7.7299,7.669,7.6183,7.6183,7.6082,7.5946,7.5946,7.5946,7.5946,7.5946,7.5946,7.5912,7.5743,7.5709,7.5709,7.5709,7.5709,7.554,7.4953,7.5303,7.5337,7.4165,7.4458,7.4593,7.386,7.3725,7.3691,7.3522,7.2981,7.236,7.1605,7.0872,7.0443,7.0443,6.9891,6.9575,6.9575,7.0128,7.0161,6.9586,7.0692,7.103,7.0443,7.0996,7.1368,7.1537,7.1537,7.1605,7.1774,7.1774,7.2078,6.7044,6.7808,6.7898,6.7822,6.7373,6.6206,6.3512,6.1972,6.0851,6.001,5.9488,5.9937,6.2465,6.3018,6.3722,6.5592,6.5966,6.7148,7.044,7.0889,7.1876,7.4497,7.4796,7.4766,7.4706,7.4706,7.4467,7.3851,7.4058,7.4678,7.5741,7.652,7.6599,7.5842,7.7303,7.803,7.7895,7.9363,8.0141,8.0209,8.0073,8.004,8.0073,7.9329,7.8945,7.8877,7.8247,7.7921,7.7785,7.7887,7.7887,7.7887,7.7819,7.7819,7.7921,7.7988,7.7954,7.7921,7.7988,7.7988,7.7988,7.7921,7.7853,7.7785,7.7785,7.7299,7.6792,7.6792,7.6792,7.6792,7.6792,7.6792,7.6623,7.5879,7.5709,7.5709,7.5709,7.5709,7.5676,7.5608,7.5642,7.5642,7.5506,7.554,7.5337,7.4615,7.4514,7.4255,7.359,7.3454,7.3116,7.2394,7.1639,7.1199,7.1199,7.1131,7.1097,7.1097,7.1165,7.1165,7.1097,7.1233,7.1267,7.1199,7.1267,7.1639,7.2293,7.2293,7.2631,7.3285,7.3285,7.3319,6.7014,6.8002,6.8421,6.7613,6.7194,6.6206,6.3183,6.2091,6.1283,5.9787,5.9937,6.0731,6.2225,6.2824,6.3333,6.4141,6.4246,6.5278,6.8136,6.89,7.0277,7.3343,7.4031,7.4467,7.4856,7.4886,7.4616,7.3941,7.4355,7.4424,7.4012,7.5647,7.6228,7.5394,7.6857,7.7011,7.5689,7.7253,7.8296,7.8802,7.8802,7.9314,8.0175,7.9904,7.952,7.9114,7.9261,7.8834,7.8022,7.8483,7.8653,7.8619,7.8157,7.8259,7.8653,7.8653,7.8653,7.8653,7.8653,7.8957,7.924,7.8822,7.8957,7.9172,7.8259,7.7785,7.7548,7.7548,7.7548,7.7548,7.7548,7.7548,7.7481,7.7176,7.6758,7.642,7.642,7.642,7.642,7.642,7.6792,7.7075,7.7075,7.6736,7.6318,7.6036,7.5574,7.5168,7.4864,7.4424,7.4052,7.377,7.2653,7.1774,7.1334,7.13,7.13,7.13,7.13,7.13,7.13,7.13,7.1503,7.1943,7.1943,7.2326,7.3048,7.3048,7.3218,7.3488,7.3488,7.3725,6.7178,6.8286,6.8764,6.7852,6.7298,6.6206,6.3093,6.2405,6.1882,6.0086,6.0581,6.1613,6.2271,6.2794,6.3108,6.3108,6.3243,6.4231,6.6655,6.7403,6.878,7.168,7.2445,7.309,7.3928,7.4557,7.4706,7.421,7.4437,7.4287,7.3522,7.4959,7.5418,7.4542,7.6009,7.6066,7.4516,7.6363,7.7603,7.8198,7.7981,7.8465,7.9508,7.9508,7.9239,7.8815,7.9761,7.96,7.8699,7.9228,7.9418,7.935,7.8855,7.8957,7.9418,7.9418,7.9553,7.9735,7.9486,8.004,8.0682,7.9735,7.9938,8.0289,7.9037,7.8496,7.8314,7.8314,7.8314,7.8314,7.8314,7.8314,7.8259,7.8056,7.7616,7.7232,7.7232,7.7232,7.7232,7.7232,7.765,7.7988,7.7988,7.7582,7.7232,7.7232,7.6555,7.6048,7.6048,7.5405,7.4852,7.4615,7.3668,7.2766,7.2011,7.1954,7.1954,7.1954,7.1954,7.1954,7.1954,7.1954,7.2191,7.271,7.2732,7.3071,7.3827,7.3827,7.3928,7.4165,7.4165,7.4559,6.8076,6.9004,6.9004,6.8974,6.7986,6.6326,6.3692,6.3108,6.2704,6.1373,6.1613,6.2301,6.2988,6.3108,6.3108,6.3108,6.3602,6.4695,6.6715,6.7014,6.7747,6.9706,6.9991,7.0546,7.1803,7.3719,7.4886,7.4886,7.4287,7.418,7.4826,7.4291,7.3632,7.294,7.4428,7.5197,7.5181,7.7657,7.8887,7.8867,7.8231,7.7895,7.7909,7.7909,7.7922,7.799,7.9521,8.0175,8.0175,8.0175,8.0175,8.0175,8.0175,8.0175,8.0175,8.0175,8.0648,8.1169,8.0445,8.1156,8.2124,8.0682,8.0695,8.1135,8.0412,7.9667,7.908,7.908,7.908,7.908,7.908,7.908,7.8911,7.8157,7.7988,7.7988,7.7988,7.7988,7.7988,7.7988,7.7988,7.7988,7.7988,7.7988,7.7988,7.7988,7.7367,7.6893,7.6893,7.6183,7.5405,7.4683,7.4581,7.4277,7.3556,7.3488,7.3488,7.3488,7.3488,7.3488,7.3488,7.3488,7.3488,7.3488,7.3488,7.386,7.4581,7.4581,7.4953,7.5676,7.5676,7.6115,6.5727,6.6595,6.6849,6.6385,6.5936,6.5188,6.3482,6.3108,6.2854,6.1972,6.1942,6.2315,6.2988,6.3108,6.3257,6.3662,6.3887,6.4395,6.5488,6.643,6.7567,6.9108,7.1278,7.3,7.3868,7.4527,7.4886,7.4886,7.4706,7.4676,7.4886,7.4706,7.4497,7.4287,7.4751,7.4764,7.4323,7.4637,7.5107,7.5669,7.5035,7.5304,7.6322,7.6322,7.6322,7.6351,7.686,7.7665,7.8631,7.8631,7.9241,8.0209,8.0209,8.0513,8.0898,8.0378,8.0987,8.1934,8.1202,8.1596,8.2225,8.127,8.1101,8.1169,8.0412,8.004,7.987,7.987,7.9095,7.8285,7.8285,7.7498,7.665,7.6421,7.6774,7.7176,7.7176,7.8022,7.8754,7.8754,7.916,7.9498,7.9498,7.9092,7.8754,7.8754,7.8111,7.7481,7.6961,7.669,7.6217,7.5439,7.5337,7.4864,7.359,7.3488,7.3488,7.3488,7.3488,7.3488,7.3488,7.3488,7.3725,7.4255,7.4255,7.4615,7.5337,7.5912,7.6555,7.7278,7.7278,7.7413,6.4441,6.5488,6.5906,6.5473,6.5009,6.4351,6.3333,6.3108,6.2914,6.2255,6.2315,6.2614,6.3003,6.3108,6.3213,6.3602,6.3857,6.4156,6.456,6.5547,6.6849,6.8451,7.1068,7.3133,7.4078,7.4587,7.4886,7.4886,7.4886,7.4886,7.4886,7.4886,7.4886,7.4886,7.4886,7.4706,7.4287,7.4188,7.4281,7.4578,7.3927,7.4013,7.4703,7.4703,7.475,7.4748,7.5348,7.6138,0.0,7.7027,7.8101,7.9669,7.9069,7.9986,8.1599,8.0515,8.1264,8.2712,8.1968,8.2374,8.3071,8.2035,8.1301,8.0628,7.9508,7.9422,7.9565,7.8956,7.8311,7.7688,7.7455,7.6667,7.6094,7.6714,7.7035,7.7357,7.7966,7.8823,7.952,7.952,7.9904,8.0209,8.0209,7.9837,7.952,7.952,7.8889,7.8247,7.7807,7.7502,7.7109,7.6635,7.6567,7.6195,7.5281,7.4672,7.4334,7.4334,7.4334,7.4334,7.4334,7.4334,7.4559,7.4999,7.5021,7.5405,7.6149,7.6927,7.7536,7.7988,7.7988,7.8157,0.0,6.5218,6.5727,6.5772,6.4874,6.3782,6.3227,6.3108,0.0,6.2315,6.2674,6.3108,6.3108,6.3108,6.3108,6.3168,6.3632,6.4006,6.4006,6.465,6.5906,6.8047,6.9901,7.1577,7.2907,7.4151,7.4886,7.4886,7.4886,7.4886,7.4886,7.4886,7.4886,7.4886,7.4886,7.4886,7.4886,7.5676,7.5701,7.5099,7.4436,7.3772,7.3185,7.3247,7.3278,7.3339,7.4756,7.5414,7.558,7.5516,7.6835,7.8754,7.732,7.9041,8.2128,8.0701,8.1623,8.3456,8.2733,8.3409,8.4364,8.2818,8.1189,7.9505,7.7901,7.8046,7.849,7.7003,7.6923,7.7187,7.6577,7.64,7.6781,7.8294,7.8297,7.8358,7.9801,8.0145,8.0209,8.0209,8.0209,8.0209,8.0276,8.0242,8.0209,8.0276,7.9667,7.9147,7.9114,7.8483,7.8056,7.8022,7.7988,7.7988,7.7988,7.6702,7.5845,7.5845,7.5845,7.5845,7.5845,7.5845,7.5845,7.5845,7.5845,7.6251,7.7063,7.7739,7.809,7.8157,7.8157,7.8517,6.1658,0.0,6.3139,6.3662,6.3542,6.3273,0.0,6.3108,6.3048,6.2884,6.2988,6.3108,6.3108,6.3108,6.3243,6.3707,6.3917,6.4006,6.4006,6.5473,6.7643,7.0636,7.1846,7.2954,7.4317,7.4706,7.4886,7.4886,7.4886,7.4886,7.4886,7.4886,7.4886,7.4886,7.4886,7.4886,7.4886,7.4586,7.4366,7.4215,7.3521,7.3129,7.2978,7.2978,7.2978,7.298,7.2827,7.3719,7.5246,7.4731,7.5829,7.7932,7.8814,8.0095,8.1445,8.1719,8.2916,8.4255,8.349,8.3849,8.4237,8.2086,7.9902,7.7889,7.6838,7.7121,7.7742,7.7374,7.6526,7.5699,7.5543,7.5542,7.5682,7.6066,7.7471,7.8842,7.9214,7.9747,8.0209,8.0209,8.0209,8.0378,8.0932,8.056,8.0378,8.0966,8.0412,7.9735,7.9181,7.8945,7.8619,7.8056,7.7988,7.7988,7.7988,7.7684,7.7447,7.7447,7.7447,7.7447,7.7447,7.7447,7.7447,7.7447,7.7447,7.7841,7.8572,7.8742,7.9126,7.9667,7.9667,7.9769,6.091,6.1583,6.2241,6.2914,6.3108,6.3108,6.3108,6.3108,6.3108,6.3108,6.3108,6.3108,6.3108,6.3108,6.3213,6.3542,6.3602,6.3901,6.4784,6.6386,6.8571,7.1534,7.2744,7.3762,7.4796,7.4886,7.4886,7.4886,7.4886,7.4886,7.4886,7.4886,7.4886,7.4886,7.4886,7.4886,7.4886,7.4527,7.4197,7.3881,7.3522,7.3206,7.2907,7.2907,7.2907,7.2877,7.2505,7.3033,7.4107,7.3757,7.4916,7.6958,7.7143,7.9005,8.1572,8.1322,8.2637,8.4546,8.4153,8.3793,8.3043,8.0266,7.8453,7.7183,7.5973,7.5933,7.6239,7.5928,7.5475,7.514,7.5579,7.574,7.6135,7.7613,7.8733,7.9611,7.9995,8.0418,8.0581,8.0276,8.0479,8.083,8.1236,8.1257,8.1224,8.1304,8.1257,8.0818,7.9735,7.9904,7.9837,7.9105,7.9003,7.9003,7.9003,7.9003,7.8733,7.8056,7.7988,7.7988,7.7988,7.7988,7.7988,7.7988,7.8314,7.8855,7.9621,7.9938,8.0479,8.1224,8.1224,8.1224,6.091,6.1583,6.2241,6.2914,6.3108,6.3108,6.3108,6.3108,6.3108,6.3108,6.3108,6.3108,6.3108,6.3108,6.3123,6.3213,6.3393,6.4201,6.6041,6.7463,6.9229,7.1743,7.315,7.4168,7.4826,7.4886,7.4886,7.4886,7.4886,7.4886,7.4886,7.4886,7.4886,7.4886,7.4886,7.4886,7.4886,7.4886,7.4616,7.4031,7.4031,7.3762,7.3223,7.3223,7.3223,7.3206,7.3086,7.3116,7.3206,7.3086,7.4241,7.5987,7.5145,7.7685,8.1708,8.0573,8.1882,8.4184,8.3933,8.2797,8.0971,7.8203,7.7112,7.6683,7.5303,7.4886,7.4834,7.4519,7.4814,7.5439,7.6238,7.6836,7.7899,8.0615,8.0944,8.0805,8.1498,8.1541,8.127,8.0648,8.1033,8.1507,8.1608,8.2069,8.2238,8.171,8.2069,8.1955,8.0682,8.1088,8.1236,8.0615,8.0445,8.0378,8.0378,8.0276,7.968,7.8428,7.8327,7.8327,7.8327,7.8327,7.8327,7.8327,7.8957,7.9621,8.0378,8.0999,8.1676,8.2395,8.2395,8.2395,6.091,6.1583,6.2241,6.2914,6.3108,6.3108,6.3108,6.3108,6.3108,6.3108,6.3108,6.3108,6.3108,6.3108,6.3273,6.3782,6.4814,6.6041,6.7493,6.8794,7.0394,7.2505,7.3432,7.4168,7.4826,7.4886,7.4886,7.4886,7.4886,7.4886,7.4886,7.4886,7.4886,7.4886,7.4886,7.4886,7.4886,7.4886,7.4856,7.4736,7.4736,7.4676,7.4587,7.4587,7.4587,7.4557,7.3971,7.4078,7.4557,7.3971,7.429,7.5372,7.7903,7.9417,8.0303,8.1432,8.2126,8.2373,8.1003,7.945,7.7965,7.7467,7.6384,7.5231,7.4971,7.4886,7.515,7.6413,7.6838,7.6965,7.7101,7.9197,8.1411,8.1904,8.2502,8.3003,8.3146,8.2678,8.2205,8.209,8.2158,8.2441,8.305,8.2746,8.2564,8.3084,8.2746,8.2327,8.209,8.2171,8.2192,8.2056,8.1494,8.1135,8.1135,8.0547,8.0107,7.987,7.987,7.987,7.987,7.987,7.987,7.987,7.9972,8.0378,8.1135,8.1236,8.1676,8.2395,8.2395,8.2395,6.1553,6.2121,6.2884,6.3887,6.3602,6.3108,6.3108,6.3108,6.3108,6.3108,6.3108,6.3108,6.3108,6.3662,6.4455,6.5443,6.6131,6.6999,6.8361,6.9632,7.1052,7.2698,7.3821,7.4557,7.4856,7.4886,7.4886,7.4886,7.4886,7.4886,7.4886,7.4886,7.4886,7.4886,7.4886,7.4886,7.4886,7.4886,7.4886,7.4886,7.4886,7.4886,7.4886,7.4886,7.4886,7.4886,7.4557,7.4616,7.4886,7.4557,7.4616,7.5057,7.6549,7.7691,7.8643,8.0301,8.0914,8.0677,7.9002,7.7948,7.7175,7.6285,7.5506,7.4886,7.4886,7.5155,7.5773,7.742,7.7632,7.7693,7.9479,8.1092,8.243,8.3296,8.3807,8.3984,8.3592,8.3219,8.2881,8.2462,8.2733,8.3084,8.3422,8.3545,8.3578,8.3524,8.3545,8.3308,8.2496,8.2746,8.2847,8.2428,8.2103,8.19,8.19,8.1596,8.1054,8.0242,8.0209,8.0378,8.0796,8.0796,8.0987,8.138,8.1393,8.1765,8.2488,8.2488,8.2881,8.3578,8.3578,8.3578,6.2091,6.2584,6.3363,6.45,0.0,6.3422,6.3916,6.3901,6.3782,6.3782,6.3662,6.3512,6.3333,6.4351,6.5637,6.6819,6.7523,6.8315,6.9512,7.0799,7.1996,7.2997,7.4197,7.4886,7.4886,7.4886,7.4886,7.4886,7.4886,7.4886,7.4886,7.4886,7.4886,7.4886,7.5035,7.5125,7.5125,7.5275,7.5185,7.4886,7.4886,7.4886,7.4886,7.4886,7.4886,7.4886,7.4886,7.4886,7.4886,7.4886,7.4886,7.4937,7.5303,7.6294,7.7652,7.8816,7.9162,7.8864,7.7299,7.6933,7.6962,7.557,7.5245,7.5335,7.5335,7.5987,7.7056,7.8741,7.9081,7.9492,8.1854,8.2619,8.3068,8.4325,8.4614,8.4458,8.3896,8.3761,8.3592,8.3003,8.3375,8.3761,8.3761,8.4221,8.4424,8.3862,8.4255,8.4174,8.3071,8.3422,8.3545,8.297,8.2767,8.2598,8.2395,8.2395,8.1921,8.0784,8.0716,8.0953,8.1541,8.1575,8.1832,8.2395,8.2395,8.2767,8.349,8.349,8.3896,8.4614,8.4614,8.4614,6.2091,6.2584,6.3243,6.3917,6.4006,0.0,6.6281,6.6251,0.0,6.5787,6.5308,6.4665,6.4066,6.5024,6.6161,6.6879,6.9034,7.0859,7.1593,7.2851,7.3702,7.3821,7.4467,7.4886,7.4886,7.4886,7.4886,7.4886,7.4886,7.4886,7.4886,7.4886,7.4886,7.4886,7.5497,7.5826,7.5826,7.6377,7.6048,7.4886,7.4886,7.4886,7.4886,7.4886,7.4886,7.4886,7.4886,7.4886,7.4886,7.4886,7.4886,7.5057,7.6535,7.7562,7.8156,7.7667,7.7283,7.6833,7.5515,7.5854,7.6732,7.6041,7.6198,7.6659,7.6659,7.7817,7.9505,8.1189,8.2742,8.379,8.3336,8.3838,8.446,8.4553,8.4614,8.458,8.4512,8.4512,8.4512,8.4444,8.4478,8.4512,8.4512,8.4546,8.458,8.4512,8.458,8.4546,8.4444,8.4478,8.4512,8.4444,8.3815,8.3152,8.2462,8.2395,8.2361,8.2259,8.2225,8.2259,8.2327,8.2327,8.2361,8.2395,8.2395,8.2767,8.349,8.349,8.3896,8.4614,8.4614,8.4614,6.2211,6.2584,6.3333,6.4351,6.462,0.0,0.0,6.6176,6.6131,6.655,6.643,6.6161,6.5922,6.6281,6.6969,6.8076,7.0081,7.1623,7.1863,7.3043,7.3881,7.3881,7.4497,7.4886,7.4886,7.4886,7.4886,7.4886,7.5305,7.5527,7.5527,7.5886,7.6078,7.6078,7.6317,7.6467,7.6467,7.6317,7.5988,7.5527,7.5527,7.5305,7.4886,7.4886,7.4886,7.4886,7.4886,7.4886,7.4886,7.4886,7.4886,7.4984,7.6027,7.6567,7.681,7.6931,7.6908,7.6719,7.6258,7.6407,7.6749,7.6527,7.6617,7.7007,7.808,7.9173,8.0603,8.338,8.4567,8.5002,8.4865,8.5079,8.5215,8.4715,8.4614,8.4614,8.4614,8.4614,8.4614,8.4614,8.4614,8.4614,8.4614,8.4614,8.4614,8.4614,8.4614,8.4614,8.4614,8.4614,8.4614,8.4614,8.4356,8.4086,8.3781,8.3781,8.3781,8.3781,8.2902,8.2598,8.3084,8.3084,8.3308,8.3781,8.3781,8.3917,8.4187,8.4187,8.4323,8.4614,8.4614,8.4614,6.2555,6.2734,6.3363,6.4411,0.0,0.0,6.637,6.6789,6.7148,6.7822,6.7433,6.6954,6.6729,6.7044,6.7703,6.8824,7.0799,7.2312,7.2491,7.3509,7.4227,7.4227,7.4616,7.4886,7.4886,7.4886,7.4976,7.5215,7.5437,7.5766,7.6168,7.6407,7.6599,7.6779,7.7006,7.7125,7.7125,7.6706,7.6377,7.6168,7.6168,7.5856,7.5215,7.5215,7.5335,7.5467,7.5065,7.5006,7.5215,7.4976,7.5006,7.5275,7.5946,7.6317,7.6527,7.6736,7.7065,7.7365,7.6946,7.7095,7.7501,7.7844,7.8079,7.8577,8.0336,8.154,8.2812,8.5152,8.6174,8.6573,8.6511,8.6311,8.596,8.5168,8.4965,8.4898,8.4647,8.4614,8.4614,8.4614,8.4614,8.4614,8.4614,8.4614,8.4614,8.4614,8.4614,8.4614,8.4614,8.4614,8.4614,8.4614,8.4614,8.4614,8.4614,8.4614,8.4614,8.4614,8.3646,8.3308,8.3828,8.3862,8.4086,8.458,8.4614,8.4614,8.4614,8.4614,8.4614,8.4614,8.4614,8.4614,6.3108,6.3108,6.3243,6.3871,6.453,6.5547,6.7553,6.8541,6.9183,6.9887,6.8421,6.6819,6.6161,6.7134,6.8257,6.8884,7.1218,7.3146,7.3821,7.4467,7.4886,7.4886,7.4886,7.4886,7.4886,7.4916,7.5185,7.5856,7.5305,7.5467,7.6719,7.6258,7.6198,7.6779,7.7454,7.7813,7.7813,7.7801,7.7454,7.6808,7.6808,7.6497,7.5916,7.5916,7.6228,7.6719,7.5467,7.5288,7.5856,7.5185,7.5305,7.5976,7.6587,7.7215,7.7724,7.7065,7.7664,7.8609,7.7275,7.7711,7.8998,8.0046,8.0888,8.1768,8.3495,8.5196,8.648,8.6528,8.7781,8.8917,8.8192,8.7482,8.6724,8.6007,8.5804,8.5587,8.4783,8.4614,8.4614,8.4614,8.4614,8.4614,8.4614,8.4614,8.4614,8.4614,8.4614,8.4614,8.4614,8.4614,8.4614,8.4614,8.4614,8.4614,8.4614,8.4614,8.4614,8.4614,8.4614,8.4614,8.4614,8.4614,8.4614,8.4614,8.4614,8.4614,8.4614,8.4614,8.4614,8.4614,8.4614,8.4614,6.2405,6.2734,6.3363,6.4441,6.5547,6.7029,6.9482,6.9887,7.0007,7.1115,7.0157,6.89,6.8226,6.884,6.9468,6.9678,7.1906,7.3672,7.3881,7.4467,7.4886,7.4886,7.4886,7.4886,7.4886,7.5335,7.5677,7.5886,7.6544,7.7113,7.7484,7.7771,7.8011,7.819,7.84,7.8489,7.8489,7.8041,7.7694,7.7484,7.7484,7.6946,7.5916,7.6347,7.6647,7.6779,7.6407,7.6347,7.6527,7.6317,7.6347,7.6617,7.7245,7.7604,7.7813,7.81,7.846,7.8747,7.834,7.9272,8.0673,8.0993,8.2053,8.356,8.5225,8.6103,8.6753,8.7969,8.8714,8.9052,8.8815,8.8612,8.8125,8.6873,8.6569,8.6501,8.6284,8.6217,8.6217,8.6217,8.6217,8.6217,8.6217,8.579,8.5452,8.5452,8.4965,8.4614,8.4614,8.4614,8.4614,8.4614,8.4614,8.4614,8.4614,8.51,8.5452,8.5452,8.5452,8.5168,8.4614,8.4614,8.4614,8.4614,8.4614,8.4614,8.4614,8.5182,8.5452,8.5452,8.598,8.5946,6.278,6.3348,6.4096,6.5129,6.64,6.8151,7.1038,7.1427,7.1278,7.1803,7.1294,7.0636,7.0247,7.0486,7.0755,7.0755,7.2521,7.3881,7.3881,7.4467,7.4886,7.4886,7.5125,7.5185,7.4933,7.5707,7.6258,7.6258,7.6976,7.7634,7.816,7.834,7.8519,7.8807,7.8807,7.8807,7.8807,7.813,7.7801,7.7801,7.7801,7.7412,7.6664,7.7035,7.7335,7.7574,7.7305,7.7065,7.6808,7.7095,7.7215,7.7275,7.7951,7.819,7.825,7.8639,7.9243,7.9822,7.9822,8.0949,8.2526,8.3202,8.4139,8.532,8.7024,8.7529,8.7766,8.8799,8.9086,8.9086,8.9086,8.9086,8.8815,8.7617,8.7347,8.7279,8.6961,8.6893,8.6893,8.6893,8.6893,8.6893,8.6893,8.6535,8.623,8.623,8.5811,8.5493,8.5493,8.5493,8.5493,8.5493,8.5493,8.5493,8.5493,8.596,8.623,8.623,8.623,8.6027,8.5527,8.4931,8.4749,8.5067,8.4762,8.4762,8.5067,8.5249,8.5499,8.5804,8.6264,8.6366,6.3842,6.459,6.5353,6.6176,6.7448,6.9289,7.2219,7.2997,7.2877,7.2222,7.2072,7.2072,7.2013,7.2042,7.2072,7.2072,7.318,7.3971,7.3971,7.4527,7.4886,7.4886,7.5455,7.5587,7.5035,7.6096,7.6826,7.6886,7.6946,7.7514,7.8729,7.822,7.816,7.8777,7.8807,7.8807,7.8807,7.819,7.7891,7.7891,7.7891,7.7891,7.7891,7.7891,7.822,7.8777,7.816,7.7544,7.7035,7.7634,7.7891,7.7951,7.8549,7.8807,7.8825,7.8975,8.0051,8.1411,8.1582,8.2758,8.4489,8.6012,8.6618,8.7039,8.8609,8.8988,8.8855,8.8855,8.8756,8.8643,8.8643,8.8643,8.8503,8.8003,8.7994,8.7922,8.7231,8.7096,8.7096,8.7096,8.7096,8.7096,8.7096,8.7028,8.6961,8.6927,8.6893,8.6893,8.6893,8.6893,8.6893,8.6893,8.6893,8.6893,8.6893,8.6961,8.6995,8.6995,8.6995,8.6995,8.6995,8.5608,8.5134,8.577,8.5067,8.508,8.5804,8.5134,8.5202,8.6007,8.6075,8.6399,6.3842,6.5263,6.6969,6.872,7.0905,7.2684,7.2847,7.3702,7.4287,7.3612,7.3479,7.3313,7.2774,7.3103,7.3479,7.3479,7.4138,7.4676,7.4676,7.4796,7.4886,7.4886,7.5035,7.5275,7.5647,7.6347,7.7035,7.7544,7.8071,7.8489,7.8759,7.8639,7.8639,7.8807,7.8807,7.8807,7.8807,7.8639,7.8579,7.8579,7.8579,7.8579,7.8579,7.8579,7.8639,7.8807,7.8639,7.8489,7.837,7.8519,7.8579,7.8579,7.8747,7.8807,7.8987,8.0335,8.1083,8.1599,8.2956,8.4536,8.6027,8.6375,8.7441,8.8595,8.8988,8.8147,8.7069,8.7069,8.612,8.5102,8.5102,8.5102,8.5396,8.6558,8.7869,8.8815,8.8646,8.8646,8.8646,8.8646,8.8646,8.8646,8.8646,8.8158,8.7583,8.6995,8.6893,8.6893,8.6893,8.6893,8.6893,8.6893,8.6893,8.6893,8.6893,8.7448,8.7753,8.7753,8.7753,8.7753,8.7753,8.6893,8.6217,8.5804,8.5635,8.5635,8.5804,8.6196,8.6792,8.755,8.8105,8.8172,6.4141,6.5951,6.8122,7.0739,7.2654,7.3881,7.3851,7.4407,7.4886,7.4869,7.4599,7.4287,7.3911,7.4138,7.448,7.4809,7.4886,7.5006,7.5335,7.5095,7.4886,7.4886,7.5455,7.5826,7.5886,7.7023,7.7753,7.7801,7.843,7.8807,7.8807,7.8807,7.8807,7.8807,7.8807,7.8807,7.8807,7.8807,7.8639,7.834,7.8639,7.8639,7.831,7.831,7.831,7.831,7.831,7.8489,7.8807,7.8807,7.8807,7.8807,7.8807,7.9302,8.0143,8.1066,8.2427,8.3979,8.4867,8.6332,8.7752,8.7752,8.7795,8.7853,8.7853,8.6648,8.532,8.532,8.4662,8.4011,8.4011,8.4011,8.4235,8.5118,8.6603,8.8089,8.8931,8.9086,8.9086,8.9086,8.9086,8.9086,8.9086,8.8781,8.8409,8.8023,8.7955,8.7955,8.7955,8.7955,8.7955,8.7955,8.7955,8.7955,8.7955,8.8294,8.8545,8.8545,8.8545,8.8545,8.8545,8.8158,8.7617,8.6887,8.6514,8.6501,8.6853,8.6873,8.7265,8.8023,8.8395,8.8545,6.4201,6.655,6.9199,7.2159,7.3492,7.4227,7.4766,7.4976,7.5245,7.5796,7.5455,7.5095,7.5215,7.5215,7.5407,7.5976,7.5587,7.5407,7.5976,7.5587,7.5215,7.5215,7.6168,7.6647,7.6275,7.7682,7.846,7.8011,7.8489,7.8807,7.8807,7.8807,7.8807,7.8807,7.8807,7.8807,7.8807,7.8687,7.834,7.7813,7.837,7.828,7.7634,7.7753,7.7801,7.7801,7.7801,7.819,7.8807,7.8807,7.8807,7.8825,7.9136,8.0108,8.1463,8.2057,8.4075,8.6558,8.6842,8.7897,8.9044,8.8756,8.7693,8.6468,8.6148,8.4882,8.356,8.356,8.3332,8.3103,8.3103,8.3103,8.3185,8.3478,8.4599,8.6179,8.8204,8.8657,8.8742,8.9044,8.9086,8.9086,8.9086,8.9086,8.9086,8.9086,8.9086,8.9086,8.9086,8.9086,8.9086,8.9086,8.9086,8.9086,8.9086,8.9086,8.9086,8.9086,8.9086,8.9086,8.9086,8.9086,8.8815,8.8192,8.7482,8.738,8.7989,8.738,8.7482,8.8206,8.8206,8.8511,6.3123,6.6864,7.0889,7.2488,7.3821,7.4796,7.4886,7.5365,7.5796,7.5886,7.5826,7.5946,7.6467,7.6557,7.6587,7.6676,7.6599,7.6587,7.6676,7.6617,7.6557,7.6557,7.6706,7.7006,7.7484,7.7801,7.813,7.8627,7.8747,7.8807,7.8807,7.8807,7.8807,7.8807,7.8807,7.8807,7.8807,7.822,7.7891,7.7801,7.7891,7.7574,7.6946,7.7544,7.7801,7.7801,7.7801,7.819,7.8807,7.8807,7.8807,7.8969,8.0475,8.122,8.1737,8.4741,8.6118,8.6723,8.8219,8.8917,8.8841,8.7353,8.6693,8.6224,8.4757,8.312,8.1751,8.1751,8.0652,7.9498,7.9498,7.9498,7.9875,8.1394,8.1906,8.2972,8.6148,8.6842,8.7275,8.8799,8.9086,8.9086,8.9086,8.9086,8.9086,8.9086,8.9086,8.9086,8.9086,8.9086,8.9086,8.9086,8.9086,8.9086,8.9086,8.9086,8.9086,8.9086,8.9086,8.9086,8.9086,8.9086,8.9052,8.8951,8.824,8.7888,8.7989,8.7888,8.8226,8.8951,8.8951,8.9018,6.45,6.8016,7.1308,7.3043,7.3881,7.4437,7.4796,7.5125,7.5527,7.6258,7.6407,7.6497,7.6749,7.6779,7.6898,7.7305,7.7065,7.6946,7.7305,7.7035,7.6779,7.6779,7.7125,7.7484,7.7753,7.813,7.8489,7.8777,7.8807,7.8807,7.8807,7.8807,7.8807,7.8807,7.843,7.825,7.825,7.7574,7.7245,7.7245,7.6886,7.6766,7.6808,7.7125,7.7454,7.7801,7.7801,7.819,7.8807,7.8807,7.9374,8.0335,8.1118,8.2576,8.4441,8.5951,8.7128,8.8075,8.8827,8.8467,8.7514,8.6753,8.5194,8.3495,8.2758,8.1326,7.9945,7.9945,7.9391,7.8807,7.8807,7.8807,7.8975,7.9751,8.0687,8.2074,8.4552,8.5844,8.7024,8.8756,8.9086,8.9086,8.9086,8.9086,8.9086,8.9086,8.9086,8.9086,8.9086,8.9086,8.9086,8.9086,8.9086,8.9086,8.9086,8.9086,8.9086,8.9086,8.9086,8.9086,8.9086,8.9086,8.9086,8.9086,8.8781,8.8612,8.8612,8.8612,8.8781,8.9086,8.9086,8.9086,6.4919,6.7657,6.9945,7.2295,7.3133,7.3612,7.4437,7.4916,7.5467,7.6587,7.6946,7.7125,7.7275,7.7305,7.7484,7.7981,7.7634,7.7484,7.7981,7.7604,7.7305,7.7305,7.7753,7.8041,7.8041,7.8669,7.8968,7.8807,7.8938,7.8968,7.8807,7.8807,7.8807,7.8807,7.831,7.8041,7.8041,7.7215,7.6647,7.6317,7.6198,7.6347,7.6808,7.7155,7.7574,7.8041,7.7873,7.819,7.8843,7.9297,8.023,8.1497,8.2343,8.4266,8.654,8.7009,8.7689,8.8438,8.8438,8.7323,8.5798,8.5334,8.3479,8.1309,8.0877,7.9822,7.8807,7.8807,7.8807,7.8807,7.8807,7.8807,7.8807,7.8807,7.9786,8.1463,8.4059,8.5966,8.7543,8.8841,8.9086,8.9086,8.9086,8.9086,8.9086,8.9086,8.9086,8.9086,8.9086,8.9086,8.9086,8.9086,8.9086,8.9086,8.9086,8.9086,8.9086,8.9086,8.9086,8.9086,8.9086,8.9086,8.9086,8.9086,8.9086,8.9086,8.9086,8.9086,8.9086,8.9086,8.9086,8.9086,6.2704,6.4276,6.6071,6.9301,7.1068,7.2342,7.3642,7.4929,7.6036,7.6676,7.7305,7.7951,7.8579,7.8699,7.8699,7.8747,7.8717,7.8699,7.8747,7.8717,7.8699,7.8699,7.8747,7.8747,7.8747,7.9357,7.9489,7.8867,7.9387,7.9477,7.8819,7.8807,7.8807,7.8807,7.8777,7.8747,7.8747,7.7454,7.6198,7.5006,7.6198,7.6766,7.6838,7.813,7.8717,7.8699,7.8071,7.819,7.8933,8.0565,8.1309,8.1703,8.4976,8.633,8.6693,8.8367,8.7969,8.6648,8.6648,8.5552,8.3866,8.2208,8.1548,8.11,7.9427,7.8879,7.8807,7.8807,7.8807,7.8807,7.8807,7.8807,7.8807,7.8807,7.8879,8.0305,8.5303,8.7752,8.9002,8.9072,8.9086,8.9086,8.9086,8.9086,8.9086,8.9086,8.9086,8.9086,8.9086,8.9086,8.9086,8.9086,8.9086,8.9086,8.9086,8.9086,8.9086,8.9086,8.9086,8.9086,8.9086,8.9086,8.9086,8.9086,8.9086,8.9086,8.9086,8.9086,8.9086,8.9086,8.9086,8.9086,6.2165,6.3693,6.5473,6.7537,6.9379,7.1025,7.2312,7.3642,7.5048,7.6497,7.7006,7.7484,7.8579,7.8807,7.8938,7.9387,7.9429,7.9429,7.9429,7.9429,7.9297,7.8849,7.8807,7.8807,7.8807,7.9417,7.9519,7.8849,7.9399,7.9489,7.8837,7.8807,7.8807,7.8807,7.837,7.7771,7.6963,7.6036,7.5557,7.5557,7.5988,7.6647,7.7454,7.7951,7.84,7.8807,7.8549,7.8579,7.8951,8.0669,8.2057,8.3299,8.5614,8.7172,8.8233,8.8855,8.7984,8.648,8.648,8.4662,8.2224,8.1599,8.0635,7.9622,7.8975,7.8807,7.8807,7.8807,7.8807,7.8807,7.8807,7.8807,7.9082,8.0195,8.1326,8.2924,8.589,8.8235,8.9951,9.0439,9.0121,8.9816,8.9816,8.9424,8.8951,8.8477,8.8781,8.8917,8.8443,8.8815,8.9086,8.9086,8.9086,8.9086,8.9086,8.9086,8.9086,8.9086,8.9086,8.9086,8.9086,8.9086,8.9086,8.9086,8.9086,8.9086,8.9086,8.9086,8.9086,8.9086,8.9086,8.9086,6.1268,6.2361,6.3842,6.5832,6.7328,6.8944,7.1354,7.2611,7.3911,7.6317,7.6779,7.7215,7.8549,7.8807,7.9028,7.9698,7.9997,8.0147,8.0147,8.0147,7.9986,7.9507,7.9477,7.9387,7.9148,7.9728,7.9776,7.8867,7.9399,7.9489,7.8837,7.8807,7.8807,7.8807,7.837,7.7502,7.6198,7.5766,7.5647,7.5916,7.6125,7.6766,7.7813,7.8041,7.837,7.8843,7.9409,7.9663,7.9804,8.1565,8.3299,8.5024,8.6693,8.8089,8.903,8.8453,8.7128,8.5615,8.5235,8.3097,8.0575,8.0802,7.9946,7.8807,7.8807,7.8938,7.9088,7.8849,7.8968,7.9088,7.8867,7.8807,7.9243,8.0997,8.2708,8.4538,8.6461,8.8622,9.029,9.0493,9.0357,9.0106,8.9884,8.9424,8.8917,8.8443,8.8781,8.8917,8.8429,8.8781,8.9086,8.9086,8.9086,8.9086,8.9086,8.9086,8.9086,8.9086,8.9086,8.9086,8.9086,8.9086,8.9086,8.9086,8.9086,8.9086,8.9086,8.9086,8.9086,8.9086,8.9086,8.9086,0.0,0.0,0.0,6.4052,6.4904,6.6146,7.0666,7.1773,7.2744,7.6048,7.6719,7.7185,7.8549,7.8837,7.9028,7.9698,8.0356,8.0794,8.0794,8.0823,8.0823,8.0794,8.0794,8.0536,7.9878,8.0434,8.0255,7.8926,7.9447,7.9537,7.8837,7.8807,7.8807,7.8807,7.8777,7.816,7.6838,7.6808,7.6527,7.5976,7.6557,7.7185,7.7861,7.8489,7.8807,7.8897,8.0635,8.146,8.1647,8.3348,8.5007,8.6678,8.8424,8.9072,8.8813,8.7161,8.5445,8.3817,8.2767,8.0858,7.8956,7.9578,7.9357,7.8807,7.8807,7.9267,7.9638,7.8968,7.9267,7.9608,7.8968,7.8843,7.9285,8.0997,8.2758,8.473,8.7067,8.8956,8.9985,8.9289,8.9715,8.9985,8.9255,8.912,8.9086,8.9052,8.9052,8.9052,8.9052,8.9052,8.9086,8.9086,8.9086,8.9086,8.9086,8.9086,8.9086,8.9086,8.9086,8.9086,8.9086,8.9086,8.9086,8.9086,8.9086,8.9086,8.9086,8.9086,8.9086,8.9086,8.9086,8.9086,5.9189,0.0,0.0,0.0,0.0,0.0,6.6505,6.839,7.0739,7.4031,7.5078,7.6113,7.8388,7.9208,7.9578,7.9758,8.0356,8.0794,8.0794,8.1231,8.1351,8.0853,8.0794,8.0734,8.0554,8.1123,8.0973,7.9608,8.0147,8.0016,7.8867,7.8807,7.8807,7.8807,7.834,7.7921,7.7514,7.7035,7.6976,7.7293,7.7424,7.7873,7.8519,7.8717,7.8807,7.8897,8.0635,8.2422,8.4178,8.5328,8.6072,8.6678,8.8424,8.8353,8.7224,8.7242,8.5341,8.2867,8.3069,8.1543,7.9548,7.9728,7.9357,7.8807,7.8807,7.8938,7.9028,7.8849,7.8938,7.9028,7.8867,7.9734,8.0791,8.1306,8.3657,8.6001,8.6653,8.8588,9.029,9.0628,9.0425,9.014,8.9918,8.9458,8.8917,8.8375,8.8294,8.8294,8.8294,8.8294,8.8511,8.9052,8.9086,8.9086,8.9086,8.9086,8.9086,8.9086,8.9086,8.9086,8.9086,8.9086,8.9086,8.9086,8.9086,8.9086,8.9086,8.9086,8.9086,8.9086,8.9086,8.9086,0.0,0.0,0.0,6.0386,0.0,0.0,6.5308,6.7043,6.9243,7.3103,7.4227,7.5215,7.7532,7.8292,7.8651,7.892,8.0016,8.0883,8.1183,8.18,8.2069,8.168,8.165,8.153,8.1242,8.159,8.1381,8.0296,8.0326,7.9926,7.8867,7.9058,7.9088,7.8807,7.843,7.81,7.7801,7.7424,7.7424,7.7801,7.7801,7.816,7.8807,7.9088,7.946,8.0011,8.2359,8.4417,8.6219,8.7039,8.7829,8.855,8.8804,8.8265,8.7238,8.6161,8.4543,8.2805,8.2768,8.1456,7.9848,8.0117,7.9567,7.8807,7.8807,7.8998,7.9148,7.8878,7.8807,7.8807,7.8807,8.0073,8.1582,8.2325,8.4536,8.6693,8.7441,8.8717,8.9884,9.0304,9.029,9.0106,8.9782,8.939,8.8951,8.8511,8.8477,8.8477,8.8477,8.8477,8.8612,8.9052,8.9086,8.9086,8.9086,8.9086,8.9086,8.9086,8.9086,8.9086,8.9086,8.9086,8.9086,8.9086,8.9086,8.9086,8.9086,8.9086,8.9086,8.9086,8.9086,8.9086,5.9069,5.9099,0.0,0.0,6.0535,0.0,6.5428,6.6505,6.7912,7.2342,7.3223,7.3881,7.5988,7.6317,7.6467,7.7155,7.8998,8.0674,8.156,8.2327,8.2806,8.2806,8.2806,8.2567,8.1979,8.1919,8.159,8.0853,8.0087,7.9459,7.8938,7.9417,7.9447,7.8926,7.8837,7.8519,7.7921,7.7921,7.7921,7.7921,7.7921,7.825,7.8938,7.9519,8.0474,8.1793,8.4805,8.6662,8.7604,8.84,8.961,9.0817,8.901,8.819,8.7671,8.4613,8.3357,8.3075,8.2124,8.0973,7.9997,8.0524,7.9836,7.8807,7.8807,7.9267,7.9668,7.9088,7.8867,7.8807,7.8807,8.023,8.2074,8.3641,8.5444,8.7202,8.877,8.9086,8.9086,8.9086,8.9613,8.9884,8.9221,8.9086,8.9086,8.9086,8.9018,8.9018,8.9086,8.9018,8.9018,8.9086,8.9086,8.9086,8.9086,8.9086,8.9086,8.9086,8.9086,8.9086,8.9086,8.9086,8.9086,8.9086,8.9086,8.9086,8.9086,8.9086,8.9086,8.9086,8.9086,8.9086,5.8936,5.9099,5.9159,5.9415,6.0192,0.0,6.2061,6.3468,6.5443,6.8511,6.9139,7.0067,7.3086,7.3223,7.3073,7.3762,7.5958,7.8382,8.0674,8.2039,8.2806,8.2806,8.2806,8.2747,8.2627,8.2597,8.2099,8.0883,7.9686,7.9178,7.9578,7.9238,7.9178,7.9578,7.9088,7.8747,7.8627,7.8579,7.8579,7.8579,7.8579,7.8968,7.9608,7.9728,8.0994,8.3179,8.5217,8.6545,8.7388,8.8882,8.9336,8.8949,8.7129,8.5597,8.4391,8.4208,8.326,8.2092,8.1871,8.1291,8.0554,8.0117,7.9447,7.8807,7.8807,7.9267,7.9788,7.9638,7.9208,7.8807,7.8807,8.1138,8.3576,8.3915,8.6348,8.87,8.903,8.9086,8.9086,8.9086,8.9221,8.9255,8.912,8.9086,8.9086,8.9086,8.8578,8.8443,8.9018,8.8578,8.8443,8.9052,8.9086,8.9086,8.9086,8.9086,8.9086,8.9086,8.9086,8.9086,8.9086,8.9086,8.9086,8.9086,8.9086,8.9086,8.9086,8.9086,8.9086,8.9086,8.9086,8.9086,5.9099,5.9099,5.9189,5.9518,0.0,0.0,0.0,6.2361,6.3797,6.6475,6.7014,6.7807,7.047,7.0679,7.0859,7.2176,7.4612,7.6826,7.816,8.0632,8.2297,8.2297,8.2597,8.2806,8.2806,8.2507,8.174,8.0405,8.0285,8.0135,7.9818,8.0105,8.0135,7.9818,7.9459,7.9148,7.8807,7.8807,7.8807,7.8807,7.8807,7.9148,7.9818,8.0147,8.1939,8.4836,8.5496,8.6813,8.8392,8.7849,8.7385,8.6981,8.6038,8.5189,8.4369,8.3751,8.301,8.2297,8.2297,8.165,8.0734,8.0405,7.9627,7.8807,7.8807,7.9028,7.9297,7.9297,7.9058,7.8807,7.8807,8.1411,8.4011,8.4011,8.6621,8.9086,8.9086,8.9086,8.9086,8.9086,8.9086,8.9086,8.9086,8.9086,8.9086,8.9086,8.8781,8.868,8.9052,8.8781,8.868,8.9052,8.9086,8.9086,8.9086,8.9086,8.9086,8.9086,8.9086,8.9086,8.9086,8.9086,8.9086,8.9086,8.9086,8.9086,8.9086,8.9086,8.9086,8.9086,8.9086,8.9086,0.0,5.9578,5.9757,6.004,0.0,6.0027,0.0,0.0,0.0,6.4964,6.5353,6.5847,6.7851,6.8136,6.8585,7.0306,7.2804,7.4569,7.4569,7.7879,8.0513,8.1141,8.1938,8.2477,8.2597,8.177,8.0883,8.0057,8.0524,8.0524,7.9848,8.0704,8.0823,8.0027,7.9728,7.9477,7.9178,7.8926,7.8849,7.8998,7.8998,7.9357,8.0027,8.0704,8.2824,8.5987,8.5629,8.6797,8.8717,8.6442,8.5287,8.4993,8.4993,8.4993,8.4794,8.3349,8.2806,8.2776,8.2657,8.18,8.0764,8.0644,7.9776,7.8819,7.8938,7.8878,7.8837,7.8938,7.8878,7.8807,7.8807,8.1138,8.3592,8.3931,8.6348,8.87,8.903,8.9086,8.9086,8.9086,8.9086,8.9086,8.9086,8.9086,8.9086,8.9086,8.9086,8.9086,8.9086,8.9086,8.9086,8.9086,8.9086,8.9086,8.9086,8.9086,8.9086,8.9086,8.9086,8.9086,8.9086,8.9086,8.9086,8.9086,8.9086,8.9086,8.9086,8.9086,8.9086,8.9086,8.9086,8.9086,0.0,0.0,0.0,0.0,6.0938,6.1493,6.0549,0.0,6.1642,6.3123,0.0,6.3139,6.5084,0.0,0.0,6.5667,6.8031,6.9782,6.9782,7.2684,7.5874,7.8807,8.0255,8.1242,8.186,8.0243,7.9567,8.0614,7.8621,7.8083,7.9728,7.9387,7.9615,8.0644,7.9537,7.9447,8.0554,7.9387,7.9088,7.9698,7.9698,8.0045,8.0704,8.1381,8.3094,8.5557,8.5499,8.569,8.5951,8.5619,8.457,8.3116,8.3116,8.3116,8.3097,8.2901,8.2806,8.2717,8.2129,8.1441,8.0704,8.0117,7.9417,7.8908,7.9489,7.9267,7.8908,7.9519,7.9267,7.8807,7.8807,8.023,8.2074,8.3641,8.5444,8.7216,8.877,8.9086,8.9086,8.9086,8.9086,8.9086,8.9086,8.9086,8.9086,8.9086,8.9086,8.9086,8.9086,8.9086,8.9086,8.9086,8.9086,8.9086,8.9086,8.9086,8.9086,8.9086,8.9086,8.9086,8.9086,8.9086,8.9086,8.9086,8.9086,8.9086,8.9086,8.9086,8.9086,8.9086,8.9086,8.9086,0.0,0.0,0.0,6.0924,6.1104,6.1283,6.031,6.034,6.0775,6.1732,0.0,0.0,0.0,0.0,0.0,0.0,6.6595,6.7837,6.7837,7.032,7.3103,7.5647,7.6801,7.7639,7.831,7.7921,7.7873,7.8442,7.7783,7.7903,7.9148,7.9686,8.0045,8.0207,7.9668,7.9477,7.9627,7.9477,7.9519,7.9788,8.0177,8.0734,8.1411,8.168,8.3166,8.5449,8.4387,8.4533,8.5431,8.4369,8.3498,8.2806,8.2806,8.2806,8.2806,8.2806,8.2806,8.2747,8.2477,8.168,8.0614,7.9567,7.9028,7.8926,7.9608,7.9327,7.8938,7.9608,7.9327,7.8807,7.8807,8.0073,8.1821,8.3592,8.5289,8.6994,8.8728,8.9086,8.9086,8.9086,8.9086,8.9086,8.9086,8.9086,8.9086,8.9086,8.9086,8.9086,8.9086,8.9086,8.9086,8.9086,8.9086,8.9086,8.9086,8.9086,8.9086,8.9086,8.9086,8.9086,8.9086,8.9086,8.9086,8.9086,8.9086,8.9086,8.9086,8.9086,8.9086,8.9086,8.9086,8.9086,6.1933,6.2376,6.266,6.1628,6.1359,6.1164,6.028,6.025,6.0639,6.1463,6.2181,0.0,0.0,0.0,6.3857,0.0,0.0,6.64,6.6191,6.7986,7.0171,7.2535,7.4048,7.5155,7.5826,7.5809,7.6031,7.6766,7.6587,7.7065,7.846,7.9447,7.9907,7.9788,7.9608,7.9477,7.9357,7.9656,7.9878,8.0087,8.0764,8.1351,8.18,8.1979,8.3052,8.4685,8.3367,8.3543,8.4649,8.3349,8.2806,8.2806,8.2806,8.2806,8.2806,8.2806,8.2806,8.2806,8.2806,8.1919,8.0614,7.9447,7.9058,7.9178,7.9638,7.9477,7.9148,7.9429,7.9178,7.8807,7.8807,8.0073,8.1821,8.3592,8.5289,8.6994,8.8728,8.9086,8.9086,8.9086,8.9086,8.9086,8.9086,8.9086,8.9086,8.9086,8.9086,8.9086,8.9086,8.9086,8.9086,8.9086,8.8917,8.8883,8.9086,8.8917,8.8883,8.9086,8.9086,8.9086,8.9086,8.9086,8.9086,8.9086,8.9086,8.9086,8.9086,8.9086,8.9086,8.9086,8.9086,8.9086,6.3595,6.4411,6.4456,6.254,6.2061,6.1702,6.04,6.0595,6.1419,6.2764,6.3512,6.4156,6.4829,0.0,0.0,0.0,0.0,0.0,0.0,6.474,6.6415,6.9738,7.294,7.5155,7.5826,7.4163,7.4074,7.6599,7.4493,7.4433,7.7682,7.7873,7.8471,7.9758,7.9178,7.9447,8.0734,8.0117,8.0117,8.0764,8.1471,8.177,8.183,8.2477,8.2814,8.2871,8.2844,8.2844,8.2871,8.2825,8.2806,8.2806,8.2806,8.2806,8.2806,8.2806,8.2806,8.2806,8.2806,8.1919,8.0704,7.9997,7.9758,7.9758,7.9788,7.9788,7.9638,7.8998,7.8837,7.8807,7.8807,8.0073,8.1821,8.3592,8.5289,8.6994,8.8728,8.9086,8.9086,8.9086,8.9086,8.9086,8.9086,8.9086,8.9086,8.9086,8.9086,8.9086,8.9086,8.9086,8.9086,8.9086,8.8477,8.8328,8.9052,8.8443,8.8328,8.9052,8.9086,8.9086,8.9086,8.9086,8.9086,8.9086,8.9086,8.9086,8.9086,8.9086,8.9086,8.9086,8.9086,8.9086,6.5353,6.6131,6.6416,6.3947,6.3693,6.3453,6.1239,6.1928,6.3139,6.3602,6.4545,0.0,0.0,0.0,0.0,0.0,0.0,0.0,0.0,6.4216,6.5084,6.7119,6.9512,7.1248,7.1936,7.2146,7.2595,7.3492,7.3146,7.3775,7.5784,7.6676,7.7544,7.8442,7.8699,7.8998,7.9477,8.0135,8.0584,8.0823,8.1919,8.2477,8.2477,8.2687,8.2806,8.2806,8.2806,8.2806,8.2806,8.2806,8.2806,8.2806,8.2806,8.2806,8.2806,8.2806,8.2806,8.2687,8.177,8.1471,8.1291,8.0147,7.9788,7.9878,8.0345,7.9836,7.9178,7.9417,7.9148,7.8807,7.8807,8.0073,8.1821,8.3592,8.5289,8.6994,8.8728,8.9086,8.9086,8.9086,8.9086,8.9086,8.9086,8.9086,8.9086,8.9086,8.9086,8.9086,8.9086,8.9086,8.9086,8.9086,8.8883,8.8815,8.9086,8.8883,8.8849,8.9086,8.9086,8.9086,8.9086,8.9086,8.9086,8.9086,8.9086,8.9086,8.9086,8.9086,8.9086,8.9086,8.9086,8.9086,6.7069,6.7882,6.8241,6.6281,6.5922,6.5547,6.3647,6.4336,6.5577,6.6056,6.643,6.6909,0.0,0.0,0.0,0.0,0.0,0.0,0.0,6.3857,6.4575,6.6161,6.7717,6.9079,7.0217,7.0426,7.0905,7.1833,7.1667,7.2295,7.4108,7.5647,7.6886,7.7753,7.846,7.9046,7.9507,8.0375,8.0913,8.1153,8.2249,8.2806,8.2806,8.2806,8.2806,8.2806,8.2806,8.2806,8.2806,8.2806,8.2806,8.2806,8.2806,8.2806,8.2806,8.2806,8.2806,8.2627,8.153,8.1441,8.162,8.0524,8.0165,8.0177,8.0405,7.9836,7.9208,7.9387,7.9118,7.8807,7.8807,8.0548,8.2624,8.3737,8.5752,8.7752,8.8841,8.9086,8.9086,8.9086,8.9086,8.9086,8.9086,8.9086,8.9086,8.9086,8.9086,8.9086,8.9086,8.9086,8.9086,8.9086,8.8883,8.8714,8.8714,8.8951,8.9086,8.9086,8.9086,8.9086,8.9086,8.9086,8.9086,8.9086,8.9086,8.9086,8.9086,8.9086,8.9086,8.9086,8.9086,8.9086]},{"header":{"parameterUnit":"m.s-1","parameterCategory":1,"la1":30.6,"la2":29.2853,"lo1":-89.7004,"lo2":-87.6739,"dy":0.0162,"dx":0.0183,"nx":112,"ny":82,"refTime":"2026-04-06T12:00:00:Z","depth":0,"parameterNumber":3,"parameterNumberName":"V-component_of_WINDS"},"data":[0.0,0.0,0.0,0.0,0.0,0.0,0.0,0.0,0.0,0.0,0.0,0.0,0.0,0.0,0.0,0.0,0.0,0.0,0.0,0.0,0.0,0.0,0.0,0.0,0.0,0.0,0.0,0.0,0.0,0.0,0.0,0.0,0.0,0.0,0.0,0.0,0.0,0.0,0.0,0.0,0.0,0.0,0.0,0.0,0.0,0.0,0.0,0.0,0.0,0.0,0.0,0.0,0.0,0.0,0.0,0.0,0.0,0.0,0.0,0.0,0.0,0.0,0.0,0.0,0.0,0.0,0.0,0.0,0.0,0.0,0.0,0.0,0.0,0.0,0.0,0.0,0.0,0.0,0.0,0.0,0.0,0.0,0.0,0.0,0.0,0.0,0.0,0.0,0.0,0.0,1.9876,1.9631,2.0494,2.1204,2.1459,2.2202,2.2201,2.112,0.0,0.0,0.0,0.0,0.0,0.0,0.0,0.0,0.0,0.0,0.0,0.0,0.0,0.0,0.0,0.0,0.0,0.0,0.0,0.0,0.0,0.0,0.0,0.0,0.0,0.0,0.0,0.0,0.0,0.0,0.0,0.0,0.0,0.0,0.0,0.0,0.0,0.0,0.0,0.0,0.0,0.0,0.0,0.0,0.0,0.0,0.0,0.0,0.0,0.0,0.0,0.0,0.0,0.0,0.0,0.0,0.0,0.0,0.0,0.0,0.0,0.0,0.0,0.0,0.0,0.0,0.0,0.0,0.0,0.0,0.0,0.0,0.0,0.0,0.0,0.0,0.0,0.0,0.0,0.0,0.0,0.0,0.0,0.0,0.0,0.0,0.0,0.0,0.0,0.0,0.0,0.0,0.0,0.0,0.0,0.0,0.0,0.0,0.0,0.0,0.0,0.0,0.0,0.0,2.0673,2.0527,2.0855,2.1679,2.3092,2.1633,2.173,2.4276,0.0,0.0,0.0,0.0,0.0,0.0,0.0,0.0,0.0,0.0,0.0,0.0,0.0,0.0,0.0,0.0,0.0,0.0,0.0,0.0,0.0,0.0,0.0,0.0,0.0,0.0,0.0,0.0,0.0,0.0,0.0,0.0,0.0,0.0,0.0,0.0,0.0,0.0,0.0,0.0,0.0,0.0,0.0,0.0,0.0,0.0,0.0,0.0,0.0,0.0,0.0,0.0,0.0,0.0,0.0,0.0,0.0,0.0,0.0,0.0,0.0,0.0,0.0,0.0,0.0,0.0,0.0,0.0,0.0,0.0,0.0,0.0,0.0,0.0,0.0,0.0,0.0,0.0,0.0,0.0,0.0,0.0,0.0,0.0,0.0,0.0,0.0,0.0,0.0,0.0,0.0,0.0,0.0,0.0,0.0,0.0,0.0,0.0,0.0,0.0,0.0,0.0,0.0,2.0019,2.0303,2.0866,2.1029,2.1411,2.2184,2.1947,2.2083,2.2809,2.3847,0.0,0.0,0.0,0.0,0.0,0.0,0.0,0.0,0.0,0.0,0.0,0.0,0.0,0.0,0.0,0.0,0.0,0.0,0.0,0.0,0.0,0.0,0.0,0.0,0.0,0.0,0.0,0.0,0.0,0.0,0.0,0.0,0.0,0.0,0.0,0.0,0.0,0.0,0.0,0.0,0.0,0.0,0.0,0.0,0.0,0.0,0.0,0.0,0.0,0.0,0.0,0.0,0.0,0.0,0.0,0.0,0.0,0.0,0.0,0.0,0.0,0.0,0.0,0.0,0.0,0.0,0.0,0.0,0.0,0.0,0.0,0.0,0.0,0.0,0.0,0.0,0.0,0.0,0.0,0.0,0.0,0.0,0.0,0.0,0.0,0.0,0.0,0.0,0.0,0.0,0.0,0.0,0.0,0.0,0.0,0.0,0.0,0.0,0.0,0.0,0.0,0.0,1.9833,1.9975,2.0986,2.1093,2.1267,2.1664,2.2085,2.2245,2.208,2.2865,0.0,0.0,0.0,0.0,0.0,0.0,0.0,0.0,0.0,0.0,0.0,0.0,0.0,0.0,0.0,0.0,0.0,0.0,0.0,0.0,0.0,0.0,0.0,0.0,0.0,0.0,0.0,0.0,0.0,0.0,0.0,0.0,0.0,0.0,0.0,0.0,0.0,0.0,0.0,0.0,0.0,0.0,0.0,0.0,0.0,0.0,0.0,0.0,0.0,0.0,0.0,0.0,0.0,0.0,0.0,0.0,0.0,0.0,0.0,0.0,0.0,0.0,0.0,0.0,0.0,0.0,0.0,0.0,0.0,0.0,0.0,0.0,0.0,0.0,0.0,0.0,0.0,0.0,0.0,0.0,0.0,0.0,0.0,0.0,0.0,0.0,0.0,0.0,0.0,0.0,0.0,0.0,0.0,0.0,0.0,0.0,0.0,0.0,0.0,0.0,0.0,0.0,2.0626,2.0399,2.1026,2.1093,2.1727,2.3279,2.1337,2.1612,2.533,2.2706,0.0,0.0,0.0,0.0,0.0,0.0,0.0,0.0,0.0,0.0,0.0,0.0,0.0,0.0,0.0,0.0,0.0,0.0,0.0,0.0,0.0,0.0,0.0,0.0,0.0,0.0,0.0,0.0,0.0,0.0,0.0,0.0,0.0,0.0,0.0,0.0,0.0,0.0,0.0,0.0,0.0,0.0,0.0,0.0,0.0,0.0,0.0,0.0,0.0,0.0,0.0,0.0,0.0,0.0,0.0,0.0,0.0,0.0,0.0,0.0,0.0,0.0,0.0,0.0,0.0,0.0,0.0,0.0,0.0,0.0,0.0,0.0,0.0,0.0,0.0,0.0,0.0,0.0,0.0,0.0,0.0,0.0,0.0,0.0,0.0,0.0,0.0,0.0,0.0,0.0,0.0,0.0,0.0,0.0,0.0,0.0,0.0,0.0,0.0,0.0,0.0,0.0,2.0179,2.0424,2.1042,2.2041,2.2905,2.3558,2.4333,2.5115,2.5853,0.0,0.0,0.0,0.0,0.0,0.0,0.0,0.0,0.0,0.0,0.0,0.0,0.0,0.0,0.0,0.0,0.0,0.0,0.0,0.0,0.0,0.0,0.0,0.0,0.0,0.0,0.0,0.0,0.0,0.0,0.0,0.0,0.0,0.0,0.0,0.0,0.0,0.0,0.0,0.0,0.0,0.0,0.0,0.0,0.0,0.0,0.0,0.0,0.0,0.0,0.0,0.0,0.0,0.0,0.0,0.0,0.0,0.0,0.0,0.0,0.0,0.0,0.0,0.0,0.0,0.0,0.0,0.0,0.0,0.0,0.0,0.0,0.0,0.0,0.0,0.0,0.0,0.0,0.0,0.0,0.0,0.0,0.0,0.0,0.0,0.0,0.0,0.0,0.0,0.0,0.0,0.0,0.0,0.0,0.0,0.0,0.0,0.0,0.0,0.0,0.0,0.0,1.9654,1.996,2.0788,2.1953,2.2979,2.3867,2.4502,2.5895,2.6445,2.5715,0.0,0.0,0.0,0.0,0.0,0.0,0.0,0.0,0.0,0.0,0.0,0.0,0.0,0.0,0.0,0.0,0.0,0.0,0.0,0.0,0.0,0.0,0.0,0.0,0.0,0.0,0.0,0.0,0.0,0.0,0.0,0.0,0.0,0.0,0.0,0.0,0.0,0.0,0.0,0.0,0.0,0.0,0.0,0.0,0.0,0.0,0.0,0.0,0.0,0.0,0.0,0.0,0.0,0.0,0.0,0.0,0.0,0.0,0.0,0.0,0.0,0.0,0.0,0.0,0.0,0.0,0.0,0.0,0.0,0.0,0.0,0.0,0.0,0.0,0.0,0.0,0.0,0.0,0.0,0.0,0.0,0.0,0.0,0.0,0.0,0.0,0.0,0.0,0.0,0.0,0.0,0.0,0.0,0.0,0.0,0.0,0.0,0.0,0.0,0.0,0.0,0.0,1.9639,2.0192,2.1629,2.3961,2.3878,2.4471,2.6451,2.5356,2.4757,0.0,0.0,0.0,0.0,0.0,0.0,0.0,0.0,0.0,0.0,0.0,0.0,0.0,0.0,0.0,0.0,0.0,0.0,0.0,0.0,0.0,0.0,0.0,0.0,0.0,0.0,0.0,0.0,0.0,0.0,0.0,0.0,0.0,0.0,0.0,0.0,0.0,0.0,0.0,0.0,0.0,0.0,0.0,0.0,0.0,0.0,0.0,0.0,0.0,0.0,0.0,0.0,0.0,0.0,0.0,0.0,0.0,0.0,0.0,0.0,0.0,0.0,0.0,0.0,0.0,0.0,0.0,0.0,0.0,0.0,0.0,0.0,0.0,0.0,0.0,0.0,0.0,0.0,0.0,0.0,0.0,0.0,0.0,0.0,0.0,0.0,0.0,0.0,0.0,0.0,0.0,0.0,0.0,0.0,0.0,0.0,0.0,0.0,0.0,0.0,0.0,0.0,0.0,1.9938,2.171,2.3507,2.4399,2.6527,2.8029,2.8335,2.8465,2.8079,2.7031,0.0,0.0,0.0,0.0,0.0,0.0,0.0,0.0,0.0,0.0,0.0,0.0,0.0,0.0,0.0,0.0,0.0,0.0,0.0,0.0,0.0,0.0,0.0,0.0,0.0,0.0,0.0,0.0,0.0,0.0,0.0,0.0,0.0,0.0,0.0,0.0,0.0,0.0,0.0,0.0,0.0,0.0,0.0,0.0,0.0,0.0,0.0,0.0,0.0,0.0,0.0,0.0,0.0,0.0,0.0,0.0,0.0,0.0,0.0,0.0,0.0,0.0,0.0,0.0,0.0,0.0,0.0,0.0,0.0,0.0,0.0,0.0,0.0,0.0,0.0,0.0,0.0,0.0,0.0,0.0,0.0,0.0,0.0,0.0,0.0,0.0,0.0,0.0,0.0,0.0,0.0,0.0,0.0,0.0,0.0,0.0,0.0,0.0,0.0,0.0,0.0,0.0,2.0986,2.28,2.4901,2.6712,2.8593,2.9952,3.0527,3.0506,2.976,2.8054,0.0,0.0,0.0,0.0,0.0,0.0,0.0,0.0,0.0,0.0,0.0,0.0,0.0,0.0,0.0,0.0,0.0,0.0,0.0,0.0,0.0,0.0,0.0,0.0,0.0,0.0,0.0,0.0,0.0,0.0,0.0,0.0,0.0,0.0,0.0,0.0,0.0,0.0,0.0,0.0,0.0,0.0,0.0,0.0,0.0,0.0,0.0,0.0,0.0,0.0,0.0,0.0,0.0,0.0,0.0,0.0,0.0,0.0,0.0,0.0,0.0,0.0,0.0,0.0,0.0,0.0,0.0,0.0,0.0,0.0,0.0,0.0,0.0,0.0,0.0,0.0,0.0,0.0,0.0,0.0,0.0,0.0,0.0,0.0,0.0,0.0,0.0,0.0,0.0,0.0,0.0,0.0,0.0,0.0,0.0,0.0,0.0,0.0,0.0,0.0,0.0,0.0,2.2611,2.3856,2.6182,3.0031,3.019,3.0804,3.263,3.1675,3.0195,2.847,0.0,0.0,0.0,0.0,0.0,0.0,0.0,0.0,0.0,0.0,0.0,0.0,0.0,0.0,0.0,0.0,0.0,0.0,0.0,0.0,0.0,0.0,0.0,0.0,0.0,0.0,0.0,0.0,0.0,0.0,0.0,0.0,0.0,0.0,0.0,0.0,0.0,0.0,0.0,0.0,0.0,0.0,0.0,0.0,0.0,0.0,0.0,0.0,0.0,0.0,0.0,0.0,0.0,0.0,0.0,0.0,0.0,0.0,0.0,0.0,2.5676,2.4945,0.0,0.0,0.0,0.0,0.0,0.0,0.0,0.0,0.0,0.0,0.0,0.0,0.0,0.0,0.0,0.0,0.0,0.0,0.0,0.0,0.0,0.0,0.0,0.0,0.0,0.0,0.0,0.0,0.0,0.0,0.0,0.0,0.0,0.0,0.0,0.0,0.0,0.0,0.0,0.0,2.4373,2.6795,2.9089,3.0573,3.1853,3.2652,3.2781,3.1934,3.063,2.8893,2.7663,0.0,0.0,0.0,0.0,0.0,0.0,0.0,0.0,0.0,0.0,0.0,0.0,0.0,0.0,0.0,0.0,0.0,0.0,0.0,0.0,0.0,0.0,0.0,0.0,0.0,0.0,0.0,0.0,0.0,0.0,0.0,0.0,0.0,0.0,0.0,0.0,0.0,0.0,0.0,0.0,0.0,0.0,0.0,0.0,0.0,0.0,0.0,0.0,0.0,0.0,0.0,0.0,0.0,0.0,0.0,0.0,0.0,0.0,0.0,2.7298,2.6646,0.0,0.0,0.0,0.0,0.0,0.0,0.0,0.0,0.0,0.0,0.0,0.0,0.0,0.0,0.0,0.0,0.0,0.0,0.0,0.0,0.0,0.0,0.0,0.0,0.0,0.0,0.0,0.0,0.0,0.0,0.0,0.0,0.0,0.0,0.0,0.0,0.0,0.0,0.0,0.0,2.6059,2.8231,3.0296,3.187,3.2861,3.3324,3.3105,3.2324,3.1269,2.9927,2.8457,0.0,0.0,0.0,0.0,0.0,0.0,0.0,0.0,0.0,0.0,0.0,0.0,0.0,0.0,0.0,0.0,0.0,0.0,0.0,0.0,0.0,0.0,0.0,0.0,0.0,0.0,0.0,0.0,0.0,0.0,0.0,0.0,0.0,0.0,0.0,0.0,0.0,0.0,0.0,0.0,0.0,0.0,0.0,0.0,0.0,0.0,0.0,0.0,0.0,0.0,0.0,0.0,0.0,2.9936,3.0204,3.0268,3.062,3.0581,3.021,2.9492,2.8965,2.8607,2.8191,0.0,0.0,0.0,0.0,0.0,0.0,0.0,0.0,0.0,0.0,0.0,0.0,0.0,0.0,0.0,0.0,0.0,0.0,0.0,0.0,0.0,0.0,2.8828,2.9166,2.9244,2.8775,2.6986,0.0,0.0,0.0,0.0,0.0,0.0,0.0,0.0,0.0,0.0,0.0,2.7782,2.9248,3.0969,3.3163,3.3402,3.3402,3.3402,3.273,3.1929,3.1069,2.9512,2.8027,0.0,0.0,0.0,0.0,0.0,0.0,0.0,0.0,0.0,0.0,0.0,0.0,0.0,0.0,0.0,0.0,0.0,0.0,0.0,0.0,0.0,0.0,0.0,0.0,0.0,0.0,0.0,0.0,0.0,0.0,0.0,0.0,2.8262,2.8619,0.0,0.0,0.0,0.0,0.0,0.0,0.0,0.0,0.0,0.0,0.0,0.0,0.0,2.9101,2.9863,3.0327,3.0972,3.1768,3.2183,3.2559,3.2895,3.2953,3.2953,3.2895,3.2777,0.0,2.9922,2.952,0.0,0.0,0.0,0.0,0.0,0.0,0.0,0.0,0.0,0.0,0.0,0.0,0.0,0.0,0.0,0.0,0.0,0.0,0.0,0.0,0.0,0.0,3.0581,3.0625,3.0639,3.0547,3.0273,2.9135,2.7851,2.6921,2.7161,2.7233,0.0,0.0,0.0,0.0,0.0,0.0,2.9711,3.1042,3.2265,3.3289,3.3402,3.3402,3.3402,3.2988,3.2344,3.1469,3.0498,2.9224,2.7585,2.6692,0.0,0.0,0.0,0.0,0.0,0.0,0.0,0.0,0.0,0.0,0.0,0.0,0.0,0.0,0.0,0.0,0.0,0.0,0.0,0.0,0.0,0.0,0.0,0.0,0.0,0.0,0.0,0.0,0.0,2.8613,2.9096,2.9272,2.9492,2.9439,0.0,0.0,0.0,0.0,0.0,0.0,0.0,0.0,0.0,3.0019,3.0503,3.105,3.166,3.209,3.2637,3.3274,3.3449,3.3746,3.4124,3.4124,3.4124,3.4124,3.4124,3.3594,3.2637,3.1519,3.0932,3.0678,0.0,0.0,0.0,0.0,2.9487,2.9559,2.9961,3.0098,3.0059,2.9746,0.0,0.0,0.0,0.0,0.0,0.0,0.0,2.9805,3.0488,3.0957,3.1367,3.1855,3.1968,3.1968,3.1968,3.1367,3.0351,2.8783,2.864,2.8406,2.7311,2.7461,0.0,0.0,0.0,2.9863,3.0508,3.1734,3.2769,3.3344,3.3402,3.3402,3.3402,3.3027,3.2637,3.225,3.1411,3.0376,2.9154,2.8262,2.709,0.0,0.0,0.0,0.0,0.0,0.0,0.0,0.0,0.0,0.0,0.0,0.0,0.0,0.0,0.0,0.0,0.0,0.0,0.0,0.0,0.0,0.0,0.0,0.0,0.0,0.0,0.0,0.0,2.9648,3.0034,2.9936,3.0288,3.0234,0.0,0.0,0.0,0.0,0.0,0.0,3.0405,3.1128,3.1641,3.187,3.2613,3.3219,3.3613,3.4043,3.4414,3.4779,3.486,3.5075,3.5371,3.5371,3.5371,3.5371,3.5371,3.5293,3.5095,3.3375,3.2628,3.2437,3.1695,3.1323,3.1245,3.1343,3.1401,3.1445,3.184,3.1997,3.1879,3.1216,3.0801,3.0332,2.9277,0.0,0.0,0.0,0.0,3.0913,3.1762,3.209,3.2348,3.3105,3.3297,3.3297,3.3297,3.3219,3.2535,3.0483,3.0092,2.9741,2.8699,2.8764,0.0,2.8562,2.9662,3.0703,3.1167,3.2226,3.3066,3.3363,3.35,3.3519,3.3422,3.3144,3.291,3.2808,3.2187,3.143,3.0566,2.981,2.8658,2.707,0.0,0.0,0.0,0.0,0.0,0.0,0.0,0.0,0.0,0.0,0.0,0.0,0.0,0.0,0.0,0.0,0.0,0.0,0.0,0.0,0.0,0.0,0.0,0.0,0.0,0.0,0.0,0.0,0.0,3.0879,3.1177,0.0,0.0,0.0,0.0,3.1313,3.1411,3.1782,3.2598,3.3031,3.3656,3.4473,3.498,3.543,3.5842,3.6306,3.6558,3.6577,3.697,3.7148,3.7168,3.7168,3.7168,3.7168,3.7168,3.6934,3.6462,3.472,3.3746,3.3304,3.2871,3.2476,3.2179,3.2559,3.2695,3.2754,3.3168,3.3304,3.3304,3.3246,3.2426,3.1352,3.0898,3.0469,0.0,0.0,3.1455,3.2296,3.309,3.3633,3.4095,3.4492,3.4609,3.4609,3.4609,3.4313,3.3512,3.1743,3.1411,3.1255,3.0835,0.0,3.0776,3.0737,3.1133,3.1601,3.2081,3.2851,3.3383,3.3402,3.3789,3.3883,3.3441,3.3383,3.3207,3.2812,3.2754,3.2344,3.1469,3.1035,3.0156,2.8795,2.8001,0.0,0.0,0.0,0.0,0.0,0.0,0.0,0.0,0.0,0.0,0.0,0.0,0.0,0.0,0.0,0.0,0.0,0.0,0.0,0.0,0.0,0.0,0.0,0.0,0.0,0.0,0.0,0.0,3.2109,3.2734,0.0,3.2543,3.2348,3.2387,3.2699,3.3226,3.3828,3.4434,3.5137,3.5661,3.5974,3.6387,3.6699,3.6836,3.6992,3.7088,3.7088,3.7226,3.7305,3.7305,3.7305,3.7305,3.7305,3.7305,3.7207,3.7049,3.6423,3.5566,3.4648,3.4199,3.3942,3.3824,3.3965,3.4023,3.4043,3.4199,3.4238,3.4183,3.3926,3.334,3.2699,3.2543,3.2387,3.2363,3.2828,3.318,3.3547,3.4101,3.4355,3.4528,3.4668,3.4707,3.4707,3.4707,3.4606,3.4297,3.3691,3.291,3.2109,3.1426,3.1538,3.1636,3.1328,3.2114,3.2777,3.2949,3.3711,3.4238,3.4238,3.4375,3.4297,3.3903,3.3864,3.3652,3.3207,3.3187,3.2934,3.2363,3.2187,3.1367,2.9766,2.9453,2.8275,0.0,0.0,0.0,0.0,0.0,0.0,0.0,0.0,0.0,0.0,0.0,0.0,0.0,0.0,0.0,0.0,0.0,0.0,0.0,0.0,0.0,0.0,0.0,0.0,0.0,3.2027,3.3082,3.3219,3.4137,3.457,3.4105,3.4066,3.4199,3.4492,3.5039,3.5566,3.6016,3.6736,3.709,3.709,3.7518,3.7752,3.7752,3.7752,3.7752,3.7752,3.7752,3.7752,3.7752,3.7752,3.7752,3.7752,3.7752,3.7637,3.75,3.75,3.6934,3.5996,3.5703,3.5586,3.5566,3.541,3.5371,3.5351,3.5195,3.5059,3.4883,3.4626,3.4219,3.3832,3.3832,3.3832,3.389,3.4215,3.4411,3.4606,3.4863,3.5039,3.5156,3.5156,3.5156,3.5156,3.5156,3.5156,3.5098,3.4961,3.4121,3.3262,3.2695,3.2847,3.2887,3.2441,3.3207,3.3793,3.3652,3.4394,3.4883,3.4726,3.4844,3.4766,3.4333,3.4039,3.3789,3.3652,3.3242,3.293,3.2808,3.2672,3.1988,3.0664,3.0229,2.9018,2.7044,0.0,0.0,0.0,0.0,0.0,0.0,0.0,0.0,0.0,0.0,0.0,0.0,0.0,0.0,0.0,0.0,0.0,0.0,0.0,0.0,0.0,0.0,0.0,3.1567,3.3383,3.4606,3.4215,3.5273,3.5881,3.5508,3.5469,3.5801,3.6658,3.6753,3.6912,3.7324,3.7716,3.7931,3.7931,3.8359,3.8592,3.8592,3.8592,3.8592,3.8592,3.8592,3.8592,3.8592,3.8592,3.8592,3.8592,3.8592,3.834,3.7931,3.7931,3.7677,3.7324,3.7305,3.7305,3.7246,3.6853,3.6714,3.6638,3.6211,3.5801,3.5449,3.5449,3.5137,3.4766,3.4766,3.4746,3.4746,3.4746,3.5059,3.541,3.541,3.5723,3.5999,3.5999,3.5999,3.5999,3.5999,3.5999,3.5881,3.5488,3.5039,3.4726,3.4707,3.4707,3.457,3.4192,3.4469,0.0,3.4192,3.4899,3.5234,3.4766,3.5117,3.5195,3.4746,3.391,3.3613,3.4055,3.2902,3.2378,3.2773,3.2433,3.2007,3.1528,3.0249,2.9188,2.8334,0.0,0.0,0.0,0.0,0.0,0.0,0.0,0.0,0.0,0.0,0.0,0.0,0.0,0.0,0.0,0.0,0.0,0.0,0.0,0.0,0.0,3.2402,3.3277,3.2934,3.4203,3.5407,3.5915,3.6543,3.7014,3.7189,3.6953,3.6992,3.7539,3.756,3.7773,3.8221,3.8358,3.8416,3.8416,3.8534,3.8592,3.8592,3.8592,3.8592,3.8592,3.8592,3.8592,3.8592,3.8592,3.8592,3.8592,3.8592,3.8514,3.8416,3.8416,3.8338,3.8182,3.7539,3.7305,3.7285,3.7185,3.7146,3.7127,3.6992,3.6875,3.6777,3.6777,3.6502,3.615,3.615,3.5898,3.5647,3.5647,3.5725,3.5842,3.5842,3.592,3.5999,3.5999,3.5999,3.5999,3.5999,3.5999,3.5979,3.5862,3.5725,3.5432,3.4805,3.4707,3.4668,3.4551,3.4922,3.5156,3.5056,3.5508,3.5667,3.5254,3.5312,3.5195,3.4746,3.4199,3.3809,3.3613,3.2988,3.2676,3.2808,3.2676,3.2437,3.2007,3.0419,2.9311,0.0,0.0,0.0,0.0,0.0,0.0,0.0,0.0,0.0,0.0,0.0,0.0,0.0,0.0,0.0,0.0,0.0,0.0,0.0,0.0,0.0,0.0,3.3903,3.4922,3.5022,3.5859,3.6641,3.7129,3.7734,3.8125,3.8184,3.7969,3.793,3.8184,3.8203,3.8301,3.8573,3.8592,3.8592,3.8592,3.8592,3.8592,3.8592,3.8592,3.8592,3.8592,3.8592,3.8592,3.8592,3.8592,3.8592,3.8592,3.8592,3.8592,3.8592,3.8592,3.8592,3.8534,0.0,0.0,0.0,0.0,3.7424,3.7305,3.7305,3.7305,3.7305,3.7305,3.7029,3.6716,3.6892,3.6641,3.6328,3.6504,3.6545,3.6545,3.6545,3.6545,3.6545,3.6545,3.6545,3.6545,3.6545,3.6545,3.6545,3.6545,3.6545,0.0,3.5879,3.5488,3.5195,3.5019,3.5371,3.5586,3.541,3.5762,3.5996,3.5954,3.5762,3.5625,3.5527,3.4821,0.0,0.0,0.0,3.2715,3.2554,3.2554,0.0,0.0,0.0,0.0,0.0,0.0,0.0,0.0,2.8711,2.8588,0.0,0.0,0.0,0.0,0.0,0.0,0.0,0.0,0.0,0.0,0.0,0.0,0.0,0.0,0.0,0.0,3.5351,3.6448,3.7324,3.7851,3.8087,3.799,3.8672,3.9004,3.869,3.8671,3.869,3.8729,3.8749,3.8749,3.8749,3.8749,0.0,0.0,0.0,3.8749,3.8749,3.8749,3.8749,3.8749,3.8749,3.8749,3.8749,3.8749,3.871,3.8671,3.8671,3.8631,3.8592,3.8592,3.8592,3.8592,3.8592,3.8592,3.8553,3.8126,3.7736,3.7441,3.7441,0.0,0.0,3.7363,3.7051,3.6792,3.7168,3.7029,3.6775,3.7205,3.7305,3.7305,3.7305,3.7305,3.7305,3.7305,3.7305,3.7305,3.7305,3.7305,3.7305,3.7305,3.7305,3.7305,3.7305,3.666,3.6018,3.5664,3.5879,3.5976,3.5644,3.5898,3.623,3.6675,3.6328,0.0,3.6658,3.5525,3.4785,3.4785,3.3629,3.2789,3.2433,3.2374,3.2335,3.2335,3.2296,3.2276,3.2276,3.23,3.2144,3.1743,2.9746,2.9375,0.0,0.0,0.0,0.0,0.0,0.0,0.0,0.0,0.0,0.0,0.0,0.0,0.0,0.0,0.0,3.5452,3.6426,3.7344,3.8221,3.9004,3.9258,3.8553,3.8612,3.8807,3.9062,3.9082,3.9238,3.9609,3.9648,3.9648,3.9648,3.9648,3.9648,3.9648,3.9648,3.9648,3.9648,3.9648,3.9648,3.9648,3.9648,0.0,3.9648,3.9648,3.9434,3.9082,3.9082,3.8905,3.8592,3.8592,3.8592,3.8592,3.8592,3.8592,3.8573,3.8495,3.8416,3.8338,3.8338,3.8105,3.7795,3.7795,3.7285,3.6792,3.7168,3.7029,0.0,3.7205,3.7305,3.7305,3.7305,3.7305,3.7305,3.7305,3.7305,3.7305,3.7305,3.7305,3.7305,3.7305,3.7305,3.7305,3.7305,3.7168,3.7031,3.6934,3.6736,3.6658,3.6894,3.6716,3.6599,3.6695,3.6619,3.6599,3.6677,3.5818,3.5254,3.5254,3.4372,3.3805,3.3743,3.3359,3.3184,3.3184,3.2851,3.2676,3.2676,3.3008,3.332,3.357,3.2457,3.189,0.0,0.0,0.0,0.0,0.0,0.0,0.0,0.0,0.0,0.0,0.0,3.3707,3.4587,0.0,3.613,3.7385,3.8164,3.875,3.9198,3.9805,3.9883,3.8984,3.9296,3.9551,3.9551,3.9551,3.9648,3.9883,3.9902,3.9902,3.9902,3.9902,3.9902,3.9902,3.9902,3.9902,3.9902,3.9902,3.9902,3.9902,3.9902,3.9902,3.9902,3.9902,3.9766,3.9551,3.9551,3.9452,3.9257,3.9257,3.912,3.8905,3.8905,3.8768,3.8592,3.8592,3.8592,3.8592,3.8592,3.8456,3.8242,3.8242,3.7812,3.7383,3.783,3.7654,3.7383,3.783,3.7948,3.7948,3.7948,3.7948,3.7948,3.7948,3.7948,3.7948,3.7948,3.7948,3.7948,3.7948,3.7948,3.7948,3.7948,3.7948,3.7811,3.7363,3.7146,3.7068,3.7266,3.7109,3.7088,3.7266,3.7127,3.7088,3.7285,3.6328,3.5605,3.541,3.4782,3.4411,3.4411,3.418,3.4046,3.4046,3.3848,3.375,3.375,3.3965,3.418,3.4391,3.418,3.3883,0.0,0.0,0.0,0.0,0.0,0.0,0.0,3.4549,3.3496,3.4196,3.4547,3.5266,3.7054,3.7599,3.8361,4.0181,4.0467,4.0524,4.0682,4.0678,4.0391,3.9785,4.0117,4.0313,4.0156,4.0078,4.0078,4.0254,4.0195,4.0137,4.0137,4.0137,4.0137,4.0137,4.0137,4.0137,4.0137,4.0137,4.0137,4.0137,4.0137,4.0137,4.0137,4.0137,4.0098,4.0019,3.9922,3.9902,3.9902,3.9902,3.9668,3.9336,3.9336,3.9062,3.871,3.8631,3.8592,3.8592,3.8592,3.8534,3.8475,3.8475,3.8164,3.7873,3.8338,3.8203,3.799,3.8475,3.8592,3.8592,3.8592,3.8592,3.8592,3.8592,3.8592,3.8592,3.8592,3.8592,3.8592,3.8592,3.8592,3.8592,3.8592,3.8592,3.8358,3.7656,3.748,3.7461,3.7539,3.7461,3.7578,3.799,3.7754,3.7656,3.7892,3.6975,3.6194,3.5781,3.541,3.5195,3.5195,3.5039,3.4961,3.4961,3.4961,3.4961,3.4961,3.5117,3.5195,3.5215,3.5586,3.543,3.2504,3.494,3.7809,3.8578,3.8174,3.7761,0.0,3.6722,3.5153,3.5234,3.6152,3.7528,3.9443,4.0783,4.2325,4.4604,4.3557,4.2768,4.3504,4.2192,4.123,4.1484,4.0586,4.0254,4.0976,4.0684,4.0742,4.1523,4.1269,4.1054,4.1054,4.1054,4.1054,4.1054,4.1054,4.1054,4.1054,4.1054,4.1054,4.1054,4.1054,4.1054,4.1054,4.1054,4.082,4.041,4.0059,3.9902,3.9902,3.9902,3.9863,3.9824,3.9824,3.9531,3.9082,3.8729,3.8592,3.8592,3.8592,3.832,3.797,3.797,3.7697,3.7441,3.7853,3.7951,3.799,3.8475,3.8592,3.8592,3.8592,3.8592,3.8592,3.8592,3.8592,3.8592,3.8592,3.8592,3.8592,3.8592,3.8592,3.8592,3.8592,3.8592,3.8571,3.8475,3.8105,3.797,3.8397,3.8086,3.8009,3.8475,3.8475,3.8301,3.7931,3.7775,3.7521,3.7109,3.7031,3.7012,3.7012,3.6269,3.5862,3.5862,3.5862,3.5862,3.5862,3.6641,3.7012,3.7012,3.7051,3.6445,3.5834,3.8629,4.1228,4.2089,4.209,4.1715,4.1091,4.0585,4.0104,3.9491,4.0693,4.2238,4.3552,4.427,4.5038,4.6262,4.6068,4.5883,4.6261,4.4843,4.3819,4.3983,4.3552,4.2866,4.1974,4.1718,4.1758,4.2109,4.1992,4.1894,4.1894,4.1894,4.1894,4.1894,4.1894,4.1894,4.1894,4.1894,4.1894,4.1894,4.1894,4.1894,4.1894,4.166,4.1308,4.0898,4.0742,4.0664,4.0664,4.0664,4.0488,4.0235,4.0235,4.0,3.9551,3.9101,3.8807,3.8592,3.8592,3.8475,3.8301,3.8301,3.8184,3.8084,3.8262,3.8301,3.8358,3.8534,3.8592,3.8592,3.8592,3.8592,3.8592,3.8592,3.8592,3.8592,3.8592,3.8592,3.8592,3.8592,3.8592,3.8592,3.8592,3.8592,3.8592,3.8592,3.8436,3.8377,3.8573,3.8436,3.8379,3.8573,3.8592,3.8416,3.7951,3.7912,3.7736,3.7324,3.7305,3.7305,3.7305,3.6953,3.6758,3.6758,3.6758,3.6758,3.6758,3.7129,3.7305,3.7305,3.7305,3.7012,3.9046,4.1646,4.3601,4.4299,4.4491,4.4272,4.3472,4.3512,4.3713,4.3645,4.4727,4.603,4.7247,4.7529,4.7861,4.8717,4.8896,4.8972,4.9109,4.7651,4.6603,4.6583,4.6583,4.5749,4.36,4.334,4.3081,4.2638,4.248,4.2402,4.2402,4.2402,4.2402,4.2402,4.2402,4.2402,4.2402,4.2402,4.2402,4.2402,4.2402,4.2402,4.2402,4.2089,4.1816,4.1504,4.1406,4.1367,4.1367,4.125,4.1015,4.0684,4.0684,4.0449,4.0019,3.9669,3.9297,3.8964,3.8964,3.8964,3.8964,3.8964,3.8964,3.8964,3.8964,3.8866,3.8768,3.8768,3.869,3.8592,3.8592,3.8671,3.8729,3.8631,3.8768,3.8885,3.8651,3.869,3.8729,3.8612,3.8592,3.8592,3.8592,3.8592,3.8592,3.8592,3.8592,3.8592,3.8592,3.8592,3.8592,3.8592,3.8592,3.8456,3.8107,3.8087,3.7969,3.7693,3.7656,3.7656,3.7656,3.7539,3.7461,3.7461,3.7461,3.7461,3.7461,3.7715,3.7773,3.7656,3.7773,3.7754,4.1397,4.3285,4.4505,4.4259,4.4058,4.4187,4.5263,4.4514,4.4298,4.674,4.7199,4.7745,4.9706,5.0401,5.1297,5.3203,5.2372,5.1637,5.2104,5.0444,4.9148,4.901,4.8991,4.8184,4.6094,4.5676,4.4827,4.321,4.2656,4.2402,4.2402,4.2402,4.2402,4.2402,4.2402,4.2402,4.2402,4.2402,4.2402,4.2402,4.2402,4.2402,4.2402,4.2402,4.2382,4.2343,4.1953,4.1777,4.1758,4.1367,4.1191,4.1172,4.1172,4.0879,4.0489,4.0469,4.0215,3.9863,3.9863,3.9863,3.9863,3.9863,3.9863,3.9863,3.9863,3.9551,3.918,3.918,3.8905,3.8592,3.8592,3.8905,3.9082,3.869,3.9257,3.9629,3.8768,3.8905,3.9062,3.8671,3.8592,3.8592,3.8592,3.8592,3.8592,3.8592,3.8592,3.8592,3.8592,3.8592,3.8592,3.8592,3.8592,3.8592,3.8573,3.8573,3.8573,3.8553,3.8553,3.8553,3.8553,3.8107,3.7892,3.7892,3.7892,3.7892,3.7892,3.873,3.8926,3.8573,3.8965,3.8926,4.3261,4.5006,4.651,4.7527,4.885,4.9624,4.8727,4.9747,5.0775,5.0282,5.0902,5.172,5.2404,5.264,5.2939,5.3603,5.3946,5.3698,5.2459,5.232,5.1166,4.8027,5.0401,5.0779,4.6916,4.7373,4.6702,4.3723,4.4664,4.4745,4.3342,4.3261,4.3261,4.3261,4.3261,4.3261,4.3261,4.3261,4.3261,4.3261,4.3261,4.3125,4.2851,4.2851,4.2695,4.2402,4.2265,4.2187,4.2167,4.1758,4.1602,4.1562,4.1308,4.1094,4.0957,4.0957,4.0879,4.0683,4.0098,3.9902,3.9902,3.9902,3.9902,3.9902,3.9902,3.9785,3.9668,3.9668,3.957,3.9453,3.9453,3.9551,3.9629,3.9492,3.9706,3.9824,3.953,3.957,3.9609,3.9491,3.9453,3.9453,3.9453,3.9453,3.9354,3.9043,3.8768,3.8592,3.8592,3.8592,3.8592,3.8592,3.8592,3.8592,3.8592,3.8592,3.871,3.8965,3.8984,3.9139,3.9452,3.9316,3.9238,3.9238,3.9238,3.9238,3.9238,3.9512,3.9434,3.9004,3.9141,3.8965,4.5006,4.6737,4.8212,4.9183,5.0817,5.1873,5.0807,5.2277,5.3676,5.309,5.3353,5.3708,5.3708,5.3557,5.3557,5.3976,5.4956,5.5001,5.3087,5.4087,5.3518,4.9526,5.2226,5.3015,4.94,5.046,4.9522,4.5169,4.6247,4.6188,4.407,4.4101,4.4159,4.4159,4.4159,4.4159,4.4159,4.4023,4.3867,4.3711,4.3711,4.3555,4.3321,4.3321,4.3144,4.2851,4.2714,4.2656,4.2637,4.2187,4.2011,4.1992,4.1719,4.1621,4.1621,4.1621,4.1621,4.1504,4.0664,4.0351,4.0351,4.0351,4.0351,4.0351,4.0351,4.0234,4.0117,4.0117,4.0019,3.9902,3.9902,4.0019,4.0078,3.9922,4.0156,4.0292,3.9961,4.0019,4.0078,3.9922,3.9902,3.9902,3.9902,3.9902,3.9785,3.9492,3.9219,3.8944,3.8631,3.8592,3.8592,3.8592,3.8592,3.8592,3.8592,3.8592,3.8768,3.918,3.9199,3.9414,3.9883,3.9902,3.9902,3.9902,3.9902,3.9902,3.9902,3.9902,3.9668,3.9199,3.9199,3.8965,4.6597,4.8419,4.9634,4.9332,5.0127,5.1135,5.1631,5.2217,5.3178,5.5022,5.4461,5.3658,5.3683,5.3264,5.3289,5.4454,5.5418,5.5442,5.3794,5.5502,5.5861,5.3011,5.4377,5.4952,5.3355,5.4592,5.3195,4.7549,4.745,4.6722,4.452,4.4783,4.4998,4.4998,4.4998,4.4998,4.4998,4.4608,4.4199,4.373,4.373,4.373,4.3711,4.3711,4.3711,4.3691,4.3302,4.3126,4.3087,4.2637,4.2441,4.2441,4.2421,4.2402,4.2402,4.2402,4.2402,4.2285,4.1543,4.125,4.125,4.125,4.125,4.125,4.125,4.0937,4.0606,4.0606,4.0312,4.0,4.0,4.0273,4.043,4.0059,4.0605,4.0976,4.0156,4.0273,4.041,4.0039,3.9961,3.9961,3.9961,3.9941,3.9922,3.9922,3.9902,3.959,3.8729,3.8631,3.8612,3.8592,3.8592,3.8592,3.8592,3.8592,3.8768,3.918,3.9219,3.9453,3.9902,3.9941,3.996,3.9922,3.9922,3.9922,3.9922,3.9922,3.9707,3.9277,3.9277,3.9043,4.7857,4.9581,5.0947,5.1258,5.2486,5.3662,5.381,5.4257,5.4805,5.53,5.4185,5.3239,5.3632,5.3264,5.3414,5.4956,5.4371,5.3309,5.2139,5.4179,5.423,4.9989,5.4445,5.6909,5.452,5.6086,5.5299,5.0603,4.9985,4.8228,4.4604,4.4783,4.4998,4.4998,4.4998,4.4998,4.4998,4.4901,4.4648,4.4219,4.4219,4.4043,4.3711,4.3711,4.3711,4.3691,4.3594,4.3555,4.3516,4.3086,4.291,4.2891,4.2538,4.2402,4.2402,4.2402,4.2402,4.2382,4.2167,4.2089,4.2089,4.2089,4.2089,4.2089,4.2089,4.2011,4.1914,4.1914,4.1621,4.1308,4.1308,4.1152,4.0996,4.0898,4.1035,4.1133,4.0918,4.0957,4.0996,4.0898,4.0859,4.0859,4.0859,4.0586,4.0352,4.0352,4.0098,3.9687,3.9121,3.9043,3.8926,3.8631,3.8592,3.8592,3.8592,3.8592,3.8768,3.918,3.9531,3.9902,4.0332,4.0684,4.0703,4.0352,4.0352,4.0352,4.0352,4.0352,4.0274,4.0157,4.0157,3.9942,4.9506,5.0937,5.2126,5.2678,5.3725,5.4471,5.3976,5.426,5.4436,5.375,5.2854,5.236,5.2904,5.2737,5.3163,5.5089,5.5004,5.4419,5.3617,5.5656,5.5846,5.2198,5.5863,5.8121,5.6593,5.7339,5.6611,5.3475,5.201,4.9417,4.5196,4.5351,4.5564,4.5564,4.5564,4.5508,4.5312,4.5096,4.4881,4.4668,4.4277,4.4062,4.4004,4.3789,4.3711,4.3711,4.3711,4.3711,4.3691,4.3477,4.3359,4.3341,4.3065,4.2968,4.2987,4.3202,4.3144,4.3007,4.3202,4.3144,4.2909,4.2519,4.2402,4.2402,4.2402,4.2402,4.2402,4.2402,4.2246,4.205,4.205,4.1894,4.1719,4.1719,4.1719,4.1719,4.1719,4.1719,4.166,4.1504,4.1621,4.1601,4.125,4.1133,4.0996,4.084,4.0625,4.0293,3.9825,3.9629,3.9414,3.9198,3.8983,3.8866,3.8866,3.871,3.8768,3.918,3.9648,4.0,4.0234,4.0859,4.0996,4.0508,4.0684,4.0801,4.0801,4.0606,4.0508,4.0508,4.0313,4.0117,5.1314,5.2352,5.3239,5.3708,5.4202,5.4303,5.3239,5.3256,5.308,5.1691,5.1239,5.1314,5.2076,5.2151,5.2879,5.5214,5.6156,5.652,5.6331,5.7966,5.8492,5.663,5.7976,5.9037,5.9037,5.8604,5.7627,5.5893,5.3641,5.0509,4.6354,4.6248,4.6308,4.6308,4.6308,4.6133,4.5783,4.5391,4.5154,4.5076,4.4336,4.4141,4.4473,4.4004,4.3789,4.3789,4.373,4.3711,4.3711,4.3711,4.3711,4.3711,4.3711,4.3711,4.375,4.416,4.4043,4.3769,4.416,4.4043,4.3574,4.2812,4.2577,4.2577,4.2577,4.2577,4.2577,4.2577,4.2538,4.2499,4.2499,4.2441,4.2402,4.2402,4.2402,4.2402,4.2402,4.2402,4.2304,4.1953,4.2148,4.2167,4.1484,4.1641,4.1738,4.1348,4.1269,4.1113,4.0645,4.0234,3.9961,3.9902,3.9531,3.9297,3.9297,3.8983,3.8925,3.9277,3.9726,3.998,3.998,4.0761,4.0996,4.0508,4.0898,4.1113,4.1113,4.0703,4.0528,4.0586,4.0234,4.0059,5.298,5.3775,5.4328,5.4421,5.4522,5.4421,5.3708,5.2955,5.2302,5.2026,5.0845,5.0469,5.241,5.2385,5.3113,5.6226,5.5349,5.4884,5.6628,5.7176,5.7489,5.7595,5.9486,6.0783,6.0783,6.0683,5.9539,5.6936,5.4691,5.1975,4.8608,4.7075,4.6308,4.6308,4.6308,4.6269,4.6191,4.6113,4.5898,4.5588,4.5432,4.5176,4.4881,4.4473,4.4277,4.4258,4.3867,4.3711,4.3711,4.3711,4.3711,4.3711,4.3711,4.3711,4.3711,4.3789,4.3769,4.3711,4.3789,4.3769,4.3691,4.3535,4.3456,4.3456,4.3456,4.3456,4.3456,4.3456,4.3242,4.2989,4.2989,4.2695,4.2402,4.2402,4.2402,4.2402,4.2402,4.2402,4.2382,4.2304,4.2363,4.2363,4.2207,4.2246,4.2148,4.1758,4.1699,4.1562,4.1133,4.0684,4.0254,3.9941,3.9824,3.9766,3.9766,3.9707,3.9707,3.9766,4.0176,4.0391,4.0391,4.0898,4.0996,4.0508,4.0586,4.0625,4.0625,4.0547,4.0703,4.1074,4.1015,4.0976,5.4027,5.478,5.5383,5.5082,5.5006,5.4554,5.2846,5.2051,5.1348,5.0167,4.9967,5.0444,5.1825,5.231,5.3213,5.539,5.5077,5.5453,5.7932,5.8295,5.8731,5.9898,6.0965,6.1512,6.1235,6.121,6.0642,5.9276,5.6855,5.3613,4.9533,4.7391,4.6815,4.7988,4.6902,4.6836,4.8009,4.6662,4.5998,4.6018,4.5547,4.5351,4.5351,4.4922,4.4609,4.4394,4.4373,4.4121,4.373,4.3965,4.4062,4.4043,4.3789,4.3848,4.4082,4.4295,4.4258,4.4101,4.4295,4.4373,4.4334,4.4141,4.3906,4.3711,4.3711,4.3711,4.3711,4.3711,4.3555,4.3398,4.3398,4.3242,4.3086,4.3086,4.3086,4.3086,4.3086,4.3086,4.3007,4.2812,4.2949,4.2929,4.248,4.2597,4.2617,4.2187,4.2109,4.2031,4.1855,4.1445,4.1016,4.0625,4.0351,4.0196,4.0196,4.0019,3.9902,3.9902,4.0274,4.041,4.0195,4.0839,4.0996,4.0508,4.0742,4.0859,4.0859,4.0859,4.0996,4.1191,4.1191,4.1308,5.4981,5.5717,5.6276,5.5842,5.5641,5.4863,5.2226,5.1465,5.0761,4.8821,4.9398,5.0519,5.1473,5.2335,5.3314,5.4554,5.5132,5.6344,5.9106,5.9483,6.0161,6.1969,6.2169,6.2019,6.1567,6.1542,6.1512,6.1366,5.8657,5.5025,5.0547,4.878,4.8629,5.0273,4.8161,4.7837,4.9574,4.7084,4.5998,4.6289,4.5603,4.5469,4.5822,4.5371,4.498,4.4687,4.4901,4.4608,4.4023,4.4375,4.4531,4.4492,4.4121,4.4219,4.457,4.4881,4.4803,4.457,4.4881,4.4998,4.494,4.4629,4.4277,4.3984,4.3984,4.3926,4.3848,4.3848,4.3848,4.3848,4.3848,4.3848,4.3828,4.373,4.3711,4.3711,4.3711,4.3711,4.3613,4.3302,4.3476,4.3496,4.2792,4.2988,4.3066,4.2616,4.2538,4.2519,4.2421,4.2109,4.1777,4.1367,4.0918,4.0645,4.0645,4.0351,4.0195,4.0195,4.0488,4.0508,4.0176,4.0839,4.1035,4.0645,4.1015,4.123,4.1328,4.1328,4.1367,4.1465,4.1465,4.1641,5.6226,5.6835,5.691,5.6878,5.6502,5.5523,5.3264,5.2,5.1088,5.0327,4.9916,5.0293,5.2385,5.282,5.3439,5.5039,5.5383,5.6344,5.9106,5.9483,6.0311,6.2476,6.2727,6.2701,6.2651,6.2651,6.245,6.1969,5.8875,5.5702,5.2758,5.2868,5.2892,5.2613,5.0441,4.9382,4.9595,4.7363,4.6269,4.6308,4.623,4.6211,4.623,4.5801,4.5607,4.5568,4.5176,4.4959,4.4881,4.494,4.494,4.494,4.4901,4.4901,4.4959,4.4998,4.4979,4.4959,4.4998,4.4998,4.4998,4.4959,4.492,4.4881,4.4881,4.4629,4.4336,4.4336,4.4336,4.4336,4.4336,4.4336,4.4238,4.3808,4.3711,4.3711,4.3711,4.3711,4.3691,4.3652,4.3672,4.3672,4.3594,4.3613,4.3496,4.3106,4.3048,4.2871,4.246,4.2382,4.2187,4.1797,4.1387,4.1133,4.1133,4.1094,4.1074,4.1074,4.1113,4.1113,4.1074,4.1152,4.1172,4.1133,4.1172,4.1387,4.1738,4.1738,4.1933,4.2285,4.2285,4.2304,5.62,5.7029,5.738,5.6702,5.6351,5.5523,5.2988,5.2101,5.1423,5.0167,5.0293,5.0987,5.2184,5.2686,5.3113,5.3791,5.3909,5.4745,5.7173,5.7782,5.8936,6.1542,6.2119,6.245,6.2777,6.2802,6.2576,6.2044,6.1056,5.9732,5.7987,5.5245,5.4373,5.5852,5.3753,5.3052,5.4051,5.1863,4.991,4.829,4.829,4.7598,4.6289,4.6133,4.594,4.5705,4.5762,4.5486,4.5018,4.5312,4.541,4.5391,4.5096,4.5154,4.541,4.541,4.541,4.541,4.541,4.5586,4.572,4.5508,4.5586,4.5681,4.5154,4.4881,4.4744,4.4744,4.4744,4.4744,4.4744,4.4744,4.4705,4.453,4.4316,4.4121,4.4121,4.4121,4.4121,4.4121,4.4336,4.4471,4.4471,4.4276,4.4062,4.3927,4.3633,4.3398,4.3223,4.2969,4.2754,4.2618,4.1973,4.1465,4.1211,4.1191,4.1191,4.1191,4.1191,4.1191,4.1191,4.1191,4.1308,4.1562,4.1562,4.1758,4.2148,4.2148,4.2246,4.2402,4.2402,4.2538,5.6369,5.7298,5.77,5.6903,5.647,5.5523,5.2912,5.2335,5.1925,5.0419,5.0862,5.1699,5.2251,5.2661,5.2895,5.2895,5.3038,5.3866,5.5899,5.6527,5.7681,6.018,6.0788,6.1296,6.1999,6.2526,6.2651,6.227,6.2425,6.23,6.1692,5.8171,5.6993,5.883,5.6726,5.6126,5.7275,5.425,5.1761,4.9847,4.9679,4.8763,4.7273,4.7273,4.7113,4.6832,4.6457,4.5957,4.5408,4.5742,4.5881,4.5842,4.5527,4.5586,4.5881,4.5881,4.5959,4.6035,4.592,4.6211,4.6582,4.6035,4.6152,4.6326,4.5603,4.5291,4.5215,4.5215,4.5215,4.5215,4.5215,4.5215,4.5154,4.5037,4.4783,4.459,4.459,4.459,4.459,4.459,4.4803,4.4998,4.4998,4.4764,4.459,4.459,4.4199,4.3906,4.3906,4.3535,4.3243,4.3106,4.2559,4.2012,4.1602,4.1543,4.1543,4.1543,4.1543,4.1543,4.1543,4.1543,4.168,4.1953,4.1992,4.2187,4.2597,4.2597,4.2656,4.2792,4.2792,4.3047,5.7123,5.7901,5.7901,5.7876,5.7047,5.5623,5.3414,5.2895,5.2586,5.1498,5.1699,5.2277,5.2795,5.2895,5.2895,5.2895,5.3339,5.4285,5.5949,5.62,5.6846,5.8523,5.873,5.9162,6.0217,6.1823,6.2802,6.2802,6.23,6.2245,6.2752,6.2234,6.1682,6.117,5.9037,5.7863,5.7884,5.2937,5.0438,5.0395,4.9868,4.9595,4.9574,4.9574,4.9552,4.9446,4.7251,4.6289,4.6289,4.6289,4.6289,4.6289,4.6289,4.6289,4.6289,4.6289,4.6562,4.6833,4.6445,4.6855,4.7444,4.6582,4.656,4.6814,4.6426,4.5996,4.5686,4.5686,4.5686,4.5686,4.5686,4.5686,4.5588,4.5096,4.4998,4.4998,4.4998,4.4998,4.4998,4.4998,4.4998,4.4998,4.4998,4.4998,4.4998,4.4998,4.4668,4.4394,4.4394,4.3984,4.3535,4.3145,4.3087,4.2911,4.2441,4.2402,4.2402,4.2402,4.2402,4.2402,4.2402,4.2402,4.2402,4.2402,4.2402,4.2616,4.3087,4.3087,4.3302,4.3691,4.3691,4.3945,5.5182,5.591,5.6093,5.5735,5.5358,5.473,5.3239,5.2895,5.2711,5.2,5.1975,5.226,5.2795,5.2895,5.302,5.3389,5.3607,5.4034,5.4981,5.5742,5.6696,5.802,5.9809,6.1221,6.1948,6.2501,6.2802,6.2802,6.2651,6.2626,6.2802,6.2651,6.2476,6.23,6.162,6.105,6.0725,5.8773,5.6822,5.4882,5.436,5.3312,5.1844,5.1844,5.1844,5.1803,5.1114,4.9955,4.8569,4.8569,4.7642,4.6308,4.6308,4.6484,4.6677,4.6406,4.6758,4.7305,4.6853,4.7109,4.7503,4.6892,4.6794,4.6833,4.6426,4.6211,4.6113,4.6113,4.7203,4.8385,4.8385,4.9491,5.0583,5.0432,4.9028,4.7729,4.7729,4.6562,4.5469,4.5469,4.5703,4.5898,4.5898,4.5664,4.5469,4.5469,4.5098,4.4705,4.4433,4.4277,4.4004,4.3555,4.3496,4.3223,4.246,4.2402,4.2402,4.2402,4.2402,4.2402,4.2402,4.2402,4.2538,4.2871,4.2871,4.3106,4.3496,4.3828,4.4199,4.4588,4.4588,4.4666,5.4102,5.4981,5.5333,5.4999,5.4579,5.4027,5.3113,5.2895,5.2762,5.2209,5.226,5.2511,5.2837,5.2895,5.3013,5.3339,5.3582,5.3833,5.4202,5.5031,5.6093,5.7405,5.9633,6.1366,6.2124,6.2551,6.2802,6.2802,6.2802,6.2802,6.2802,6.2802,6.2802,6.2802,6.2802,6.2651,6.23,6.0952,5.9285,5.7323,5.6758,5.5678,5.4151,5.4151,5.4153,5.409,5.3251,5.2114,0.0,5.0862,4.9636,4.784,4.8751,4.8298,4.726,4.7872,4.7987,4.7754,4.7324,4.7558,4.7991,4.7363,4.7771,4.8596,4.9231,4.87,4.8014,4.886,5.025,5.1421,5.1206,5.217,5.3004,5.2171,5.0566,4.8986,4.8159,4.6895,4.594,4.594,4.6133,4.6308,4.6308,4.6094,4.594,4.594,4.5547,4.5176,4.4922,4.4746,4.4491,4.4217,4.4178,4.3963,4.3436,4.3085,4.289,4.289,4.289,4.289,4.289,4.289,4.3047,4.3301,4.3341,4.3535,4.3965,4.4414,4.4766,4.4998,4.4998,4.5096,0.0,5.4755,5.5182,5.5189,5.4436,5.349,5.2995,5.2895,0.0,5.226,5.2561,5.2895,5.2895,5.2895,5.2895,5.2945,5.3364,5.3708,5.3708,5.4278,5.5333,5.7035,5.8654,6.006,6.121,6.222,6.2802,6.2802,6.2802,6.2802,6.2802,6.2802,6.2802,6.2802,6.2802,6.2802,6.2802,6.0229,5.868,5.8181,5.757,5.7024,5.657,5.6554,5.6578,5.6434,5.4344,5.3359,5.326,5.3215,5.2132,5.0717,5.2738,5.1208,4.8136,5.0122,4.9743,4.8183,4.7796,4.8187,4.8799,4.8117,4.9479,5.1785,5.4168,5.2922,5.1124,5.3201,5.427,5.4709,5.4151,5.3995,5.3451,5.1424,5.0272,4.9082,4.7007,4.6418,4.6308,4.6308,4.6308,4.6308,4.6348,4.6328,4.6308,4.6348,4.5996,4.5725,4.5705,4.5312,4.5037,4.5018,4.4998,4.4998,4.4998,4.4256,4.3789,4.3789,4.3789,4.3789,4.3789,4.3789,4.3789,4.3789,4.3789,4.4023,4.4492,4.4883,4.5057,4.5096,4.5096,4.5332,5.1766,0.0,5.298,5.3389,5.3289,5.3063,0.0,5.2895,5.2845,5.2737,5.2795,5.2895,5.2895,5.2895,5.3038,5.3457,5.3632,5.3708,5.3708,5.4938,5.6728,5.9238,6.0286,6.1215,6.2325,6.2651,6.2802,6.2802,6.2802,6.2802,6.2802,6.2802,6.2802,6.2802,6.2802,6.2802,6.2802,6.1758,6.1166,6.1042,6.0471,6.0149,6.0025,6.0025,6.0025,5.996,5.8974,5.7855,5.6702,5.6218,5.5061,5.3436,5.2197,5.1303,5.0554,4.898,4.8568,4.8675,4.8203,4.8441,4.9095,5.0333,5.2106,5.4254,5.6922,5.5807,5.3712,5.4241,5.5695,5.7075,5.6958,5.6828,5.6643,5.6126,5.2934,4.9926,4.9408,4.771,4.6308,4.6308,4.6308,4.6406,4.6697,4.6482,4.6406,4.6716,4.6426,4.6035,4.5744,4.5607,4.5391,4.5037,4.4998,4.4998,4.4998,4.4822,4.4686,4.4686,4.4686,4.4686,4.4686,4.4686,4.4686,4.4686,4.4686,4.4941,4.5392,4.549,4.5683,4.5996,4.5996,4.6055,5.1138,5.1674,5.2226,5.2762,5.2895,5.2895,5.2895,5.2895,5.2895,5.2895,5.2895,5.2895,5.2895,5.2895,5.3013,5.3289,5.3339,5.359,5.4361,5.5673,5.7506,5.9991,6.104,6.1893,6.2727,6.2802,6.2802,6.2802,6.2802,6.2802,6.2802,6.2802,6.2802,6.2802,6.2802,6.2802,6.2802,6.2501,6.2225,6.1994,6.1692,6.1461,6.121,6.121,6.121,6.1185,6.0839,6.0204,5.9378,5.9064,5.7908,5.6363,5.6176,5.4426,5.1967,5.1559,5.0331,4.8874,4.8617,4.9389,5.1014,5.4172,5.5895,5.7243,5.9792,5.9526,5.8302,5.8065,5.9034,5.9836,5.8519,5.8118,5.7535,5.5457,5.267,5.017,4.8961,4.7577,4.6523,4.6348,4.6465,4.6638,4.6872,4.6914,4.6894,4.6911,4.6914,4.666,4.6035,4.6133,4.6094,4.5642,4.5584,4.5584,4.5584,4.5584,4.5428,4.5037,4.4998,4.4998,4.4998,4.4998,4.4998,4.4998,4.5215,4.5527,4.5998,4.6152,4.6465,4.6894,4.6894,4.6894,5.1138,5.1674,5.2226,5.2762,5.2895,5.2895,5.2895,5.2895,5.2895,5.2895,5.2895,5.2895,5.2895,5.2895,5.2937,5.3013,5.3163,5.3841,5.5415,5.6577,5.8058,6.0166,6.1346,6.2199,6.2752,6.2802,6.2802,6.2802,6.2802,6.2802,6.2802,6.2802,6.2802,6.2802,6.2802,6.2802,6.2802,6.2802,6.2576,6.2119,6.2119,6.1893,6.1441,6.1441,6.1441,6.1461,6.1361,6.1386,6.1461,6.1361,6.0455,5.9267,6.058,5.7746,5.3125,5.4763,5.2858,4.9495,4.9842,5.1486,5.4103,5.8032,5.9538,6.0215,6.2178,6.2802,6.262,6.1839,6.1912,6.1705,5.9263,5.8097,5.6597,5.2728,5.1133,4.9882,4.7588,4.7048,4.6892,4.6562,4.6755,4.7028,4.7087,4.7383,4.748,4.7146,4.7383,4.7346,4.6582,4.6816,4.6872,4.6543,4.6445,4.6406,4.6406,4.6348,4.5974,4.5252,4.5193,4.5193,4.5193,4.5193,4.5193,4.5193,4.5586,4.5998,4.6406,4.6736,4.7126,4.76,4.76,4.76,5.1138,5.1674,5.2226,5.2762,5.2895,5.2895,5.2895,5.2895,5.2895,5.2895,5.2895,5.2895,5.2895,5.2895,5.3063,5.349,5.4386,5.5415,5.6602,5.7725,5.91,6.0839,6.1617,6.2199,6.2752,6.2802,6.2802,6.2802,6.2802,6.2802,6.2802,6.2802,6.2802,6.2802,6.2802,6.2802,6.2802,6.2802,6.2777,6.2676,6.2676,6.2626,6.2551,6.2551,6.2551,6.2526,6.2069,6.2124,6.2526,6.2069,6.1992,6.1787,5.8239,5.6224,5.5158,5.3548,5.2478,5.2162,5.4125,5.6312,5.8351,5.9074,6.0657,6.2327,6.27,6.2802,6.2363,6.0306,5.9763,5.9727,5.9296,5.6263,5.3153,5.2462,5.0402,4.8497,4.8095,4.7734,4.7461,4.7425,4.7464,4.7598,4.7949,4.7773,4.7698,4.7969,4.7773,4.7561,4.7425,4.7441,4.7483,4.7405,4.7051,4.6814,4.6814,4.6504,4.625,4.6113,4.6113,4.6113,4.6113,4.6113,4.6113,4.6113,4.6172,4.6406,4.6814,4.6872,4.7126,4.76,4.76,4.76,5.1649,5.2126,5.2737,5.3607,5.3339,5.2895,5.2895,5.2895,5.2895,5.2895,5.2895,5.2895,5.2895,5.3389,5.4084,5.4913,5.5491,5.6219,5.733,5.8428,5.9653,6.1034,6.1943,6.2526,6.2777,6.2802,6.2802,6.2802,6.2802,6.2802,6.2802,6.2802,6.2802,6.2802,6.2802,6.2802,6.2802,6.2802,6.2802,6.2802,6.2802,6.2802,6.2802,6.2802,6.2802,6.2802,6.2526,6.2576,6.2802,6.2526,6.2576,6.2597,6.0448,5.8844,5.7433,5.5092,5.4257,5.461,5.6939,5.8439,5.952,6.0782,6.1932,6.2802,6.2802,6.3028,6.2775,6.0351,5.9502,5.8712,5.6203,5.3992,5.2072,5.0825,4.952,4.8519,4.8262,4.8047,4.7851,4.764,4.7796,4.7969,4.8164,4.8265,4.8284,4.8223,4.8265,4.8128,4.7659,4.7773,4.7832,4.762,4.7402,4.7285,4.7285,4.7109,4.6797,4.6328,4.6308,4.6406,4.6618,4.6618,4.6758,4.7014,4.6992,4.7207,4.7595,4.7595,4.7851,4.8284,4.8284,4.8284,5.2101,5.2485,5.3138,5.4152,0.0,5.3188,5.3573,5.359,5.349,5.349,5.3389,5.3264,5.3113,5.4027,5.5107,5.6068,5.6627,5.7323,5.8328,5.9408,6.0412,6.1285,6.2225,6.2802,6.2802,6.2802,6.2802,6.2802,6.2802,6.2802,6.2802,6.2802,6.2802,6.2802,6.2927,6.3003,6.3003,6.3128,6.3053,6.2802,6.2802,6.2802,6.2802,6.2802,6.2802,6.2802,6.2802,6.2802,6.2802,6.2802,6.2802,6.2741,6.2178,6.0959,5.9283,5.7329,5.7185,5.8123,5.9615,6.0276,6.0808,6.2468,6.3103,6.3178,6.3178,6.3128,6.2503,6.0046,5.8684,5.7127,5.3475,5.2066,5.1123,4.9331,4.8913,4.8792,4.8437,4.8359,4.8262,4.7952,4.8167,4.8359,4.8359,4.8656,4.8773,4.8418,4.8675,4.8659,4.7991,4.8164,4.8265,4.7933,4.7815,4.7718,4.76,4.76,4.7327,4.6641,4.6601,4.6738,4.7048,4.7067,4.7246,4.76,4.76,4.7815,4.8203,4.8203,4.8437,4.8913,4.8913,4.8913,5.2101,5.2485,5.3038,5.3632,5.3708,0.0,5.5616,5.5591,0.0,5.5232,5.483,5.4321,5.3758,5.4561,5.5516,5.6118,5.7926,5.9458,6.0041,6.1095,6.1843,6.1943,6.245,6.2802,6.2802,6.2802,6.2802,6.2802,6.2802,6.2802,6.2802,6.2802,6.2802,6.2802,6.335,6.3626,6.3626,6.4124,6.3847,6.2802,6.2802,6.2802,6.2802,6.2802,6.2802,6.2802,6.2802,6.2802,6.2802,6.2802,6.2802,6.2597,6.0403,5.9785,6.0039,5.9327,6.1096,6.376,6.284,6.3227,6.4065,6.3735,6.3973,6.4396,6.4396,6.2805,6.0525,5.8179,5.581,5.3863,5.3123,5.1062,4.9101,4.894,4.8913,4.8894,4.8855,4.8855,4.8855,4.8815,4.8835,4.8855,4.8855,4.8874,4.8894,4.8855,4.8894,4.8874,4.8815,4.8835,4.8855,4.8815,4.8421,4.8008,4.764,4.76,4.7581,4.7522,4.7503,4.7522,4.7561,4.7561,4.7581,4.76,4.76,4.7815,4.8203,4.8203,4.8437,4.8913,4.8913,4.8913,5.2201,5.2485,5.3113,5.4027,5.4253,0.0,0.0,5.5559,5.5491,5.5842,5.5742,5.5516,5.5315,5.5616,5.6194,5.7123,5.8805,6.0066,6.0267,6.1291,6.1994,6.1994,6.2476,6.2802,6.2802,6.2802,6.2802,6.2802,6.3153,6.3375,6.3375,6.3676,6.3873,6.3873,6.4073,6.4199,6.4199,6.4073,6.3797,6.3375,6.3375,6.3153,6.2802,6.2802,6.2802,6.2802,6.2802,6.2802,6.2802,6.2802,6.2802,6.2745,6.222,6.2176,6.2373,6.2471,6.3363,6.4446,6.4023,6.4149,6.4471,6.4249,6.4325,6.4224,6.2666,6.1787,6.0498,5.6539,5.482,5.3632,5.1403,5.0053,4.9199,4.8972,4.8913,4.8913,4.8913,4.8913,4.8913,4.8913,4.8913,4.8913,4.8913,4.8913,4.8913,4.8913,4.8913,4.8913,4.8913,4.8913,4.8913,4.8913,4.8734,4.8578,4.8402,4.8402,4.8402,4.8402,4.7894,4.7718,4.7969,4.7969,4.8128,4.8402,4.8402,4.848,4.8636,4.8636,4.8714,4.8913,4.8913,4.8913,5.246,5.2611,5.3138,5.4077,0.0,0.0,5.5691,5.6043,5.6344,5.6878,5.6552,5.615,5.5993,5.6226,5.6778,5.775,5.9408,6.0643,6.0794,6.1647,6.225,6.225,6.2576,6.2802,6.2802,6.2802,6.2877,6.3078,6.3299,6.3576,6.3948,6.4149,6.4346,6.4496,6.4651,6.4752,6.4752,6.44,6.4124,6.3948,6.3948,6.3651,6.3078,6.3078,6.3178,6.3324,6.2952,6.2902,6.3078,6.2877,6.2902,6.3128,6.3726,6.4073,6.4249,6.4425,6.4701,6.4953,6.4601,6.4726,6.4851,6.3885,6.3722,6.3418,6.0916,5.989,5.8865,5.5497,5.4044,5.2955,5.0546,4.9801,4.9629,4.9203,4.9086,4.9046,4.8933,4.8913,4.8913,4.8913,4.8913,4.8913,4.8913,4.8913,4.8913,4.8913,4.8913,4.8913,4.8913,4.8913,4.8913,4.8913,4.8913,4.8913,4.8913,4.8913,4.8913,4.8913,4.8323,4.8128,4.8398,4.8418,4.8578,4.8894,4.8913,4.8913,4.8913,4.8913,4.8913,4.8913,4.8913,4.8913,5.2895,5.2895,5.3038,5.3565,5.4177,5.5031,5.6652,5.7481,5.8052,5.861,5.738,5.6068,5.5516,5.6301,5.7211,5.7801,5.9759,6.1411,6.1943,6.245,6.2802,6.2802,6.2802,6.2802,6.2802,6.2827,6.3053,6.3651,6.3153,6.3324,6.4446,6.4023,6.3973,6.4496,6.5028,6.5329,6.5329,6.5283,6.5028,6.4521,6.4521,6.4224,6.3701,6.3701,6.3998,6.4446,6.3324,6.3174,6.3651,6.3053,6.3153,6.3751,6.43,6.4827,6.5254,6.4701,6.5204,6.5961,6.4877,6.5208,6.5556,6.2574,6.1997,6.2002,5.9522,5.706,5.5094,5.5091,5.3299,5.1304,5.0918,5.0508,5.0102,4.9625,4.9508,4.9414,4.9011,4.8913,4.8913,4.8913,4.8913,4.8913,4.8913,4.8913,4.8913,4.8913,4.8913,4.8913,4.8913,4.8913,4.8913,4.8913,4.8913,4.8913,4.8913,4.8913,4.8913,4.8913,4.8913,4.8913,4.8913,4.8913,4.8913,4.8913,4.8913,4.8913,4.8913,4.8913,4.8913,4.8913,4.8913,4.8913,5.2335,5.2611,5.3138,5.4102,5.5031,5.6244,5.8303,5.861,5.871,5.9639,5.8836,5.7782,5.7248,5.7732,5.8259,5.8434,6.0337,6.1818,6.1994,6.245,6.2802,6.2802,6.2802,6.2802,6.2802,6.3178,6.35,6.3676,6.4228,6.4705,6.5053,6.5258,6.5459,6.5609,6.5785,6.586,6.586,6.5484,6.5229,6.5053,6.5053,6.4601,6.3701,6.4099,6.435,6.4496,6.4149,6.4099,6.4249,6.4073,6.4099,6.4325,6.4852,6.5153,6.5329,6.5534,6.5835,6.604,6.5735,6.4732,6.342,6.25,6.1168,5.9431,5.6946,5.5682,5.4737,5.2988,5.1964,5.1382,5.1245,5.1128,5.0879,5.0156,4.998,4.9941,4.9848,4.9809,4.9809,4.9809,4.9809,4.9809,4.9809,4.9531,4.9336,4.9336,4.9086,4.8913,4.8913,4.8913,4.8913,4.8913,4.8913,4.8913,4.8913,4.9164,4.9336,4.9336,4.9336,4.9203,4.8913,4.8913,4.8913,4.8913,4.8913,4.8913,4.8913,4.918,4.9336,4.9336,4.9672,4.9652,5.2678,5.3155,5.3783,5.468,5.5717,5.7154,5.9608,5.9935,5.9809,6.0217,5.979,5.9238,5.8911,5.9112,5.9338,5.9338,6.0819,6.1994,6.1994,6.245,6.2802,6.2802,6.3003,6.3053,6.2807,6.3525,6.4023,6.4023,6.4626,6.5179,6.5584,6.5735,6.5886,6.609,6.609,6.609,6.609,6.5559,6.5283,6.5283,6.5283,6.4957,6.4329,6.4676,6.4927,6.5128,6.4902,6.4701,6.4521,6.4726,6.4827,6.4877,6.5409,6.5609,6.566,6.5986,6.5505,6.4674,6.4674,6.3067,6.0857,5.9863,5.8539,5.6874,5.4379,5.3638,5.3323,5.1818,5.1401,5.1401,5.1401,5.1401,5.1245,5.0586,5.043,5.0391,5.0238,5.0199,5.0199,5.0199,5.0199,5.0199,5.0199,4.9961,4.9785,4.9785,4.9574,4.9422,4.9422,4.9422,4.9422,4.9422,4.9422,4.9422,4.9422,4.9629,4.9785,4.9785,4.9785,4.9668,4.9441,4.9066,4.8991,4.9144,4.8968,4.8968,4.9144,4.9219,4.9332,4.9508,4.9805,4.9863,5.354,5.4228,5.4898,5.5559,5.6595,5.8108,6.0632,6.1285,6.1185,6.0568,6.0442,6.0442,6.0392,6.0417,6.0442,6.0442,6.1371,6.2069,6.2069,6.2501,6.2802,6.2802,6.3279,6.3425,6.2927,6.3852,6.45,6.4551,6.4601,6.5078,6.6061,6.5634,6.5584,6.6065,6.609,6.609,6.609,6.5609,6.5358,6.5358,6.5358,6.5358,6.5358,6.5358,6.5634,6.6065,6.5584,6.5103,6.4676,6.5179,6.5358,6.5409,6.5911,6.609,6.6069,6.5828,6.4391,6.2469,6.2247,6.0542,5.8102,5.5823,5.495,5.4355,5.2065,5.1571,5.1721,5.1721,5.1891,5.2085,5.2085,5.2085,5.1937,5.1322,5.1027,5.0762,5.0395,5.0317,5.0317,5.0317,5.0317,5.0317,5.0317,5.0278,5.0238,5.0219,5.0199,5.0199,5.0199,5.0199,5.0199,5.0199,5.0199,5.0199,5.0199,5.0238,5.0258,5.0258,5.0258,5.0258,5.0258,4.9457,4.9183,4.9488,4.9144,4.9121,4.9508,4.9183,4.9222,4.9625,4.9664,4.9883,5.354,5.4762,5.6194,5.7631,5.9463,6.0989,6.116,6.1843,6.23,6.1768,6.1622,6.1517,6.1065,6.1341,6.1622,6.1622,6.2174,6.2626,6.2626,6.2727,6.2802,6.2802,6.2927,6.3128,6.3475,6.4099,6.4676,6.5103,6.5509,6.586,6.6086,6.5986,6.5986,6.609,6.609,6.609,6.609,6.5986,6.5936,6.5936,6.5936,6.5936,6.5936,6.5936,6.5986,6.609,6.5986,6.586,6.576,6.5886,6.5936,6.5936,6.604,6.609,6.5875,6.3973,6.2958,6.2225,6.0271,5.7964,5.58,5.5259,5.3781,5.2089,5.1571,5.2768,5.4307,5.4307,5.5727,5.72,5.72,5.72,5.669,5.468,5.2699,5.1245,5.1148,5.1148,5.1148,5.1148,5.1148,5.1148,5.1148,5.0898,5.0566,5.0258,5.0199,5.0199,5.0199,5.0199,5.0199,5.0199,5.0199,5.0199,5.0199,5.0488,5.0664,5.0664,5.0664,5.0664,5.0664,5.0199,4.9809,4.9508,4.941,4.941,4.9508,4.9766,5.0141,5.0547,5.0835,5.0874,5.3851,5.534,5.7129,5.9357,6.0964,6.1994,6.1969,6.24,6.2802,6.2822,6.2596,6.23,6.2019,6.2174,6.2496,6.2772,6.2802,6.2902,6.3178,6.2978,6.2802,6.2802,6.3279,6.3626,6.3676,6.463,6.5279,6.5283,6.581,6.609,6.609,6.609,6.609,6.609,6.609,6.609,6.609,6.609,6.5986,6.5735,6.5986,6.5986,6.571,6.571,6.571,6.571,6.571,6.586,6.609,6.609,6.609,6.609,6.609,6.5372,6.4214,6.2981,6.0992,5.8769,5.7479,5.5398,5.3347,5.3347,5.3275,5.318,5.318,5.4903,5.6874,5.6874,5.778,5.8791,5.8791,5.8791,5.847,5.7177,5.4973,5.2864,5.1668,5.1401,5.1401,5.1401,5.1401,5.1401,5.1401,5.1226,5.1011,5.082,5.0781,5.0781,5.0781,5.0781,5.0781,5.0781,5.0781,5.0781,5.0781,5.0976,5.1089,5.1089,5.1089,5.1089,5.1089,5.0898,5.0586,5.0132,4.9918,4.9941,5.0113,5.0156,5.0414,5.082,5.1035,5.1089,5.3901,5.5842,5.8033,6.0582,6.1667,6.225,6.2701,6.2877,6.3103,6.3601,6.3279,6.2978,6.3078,6.3078,6.3274,6.3751,6.3425,6.3274,6.3751,6.3425,6.3078,6.3078,6.3948,6.435,6.4002,6.5183,6.5835,6.5459,6.586,6.609,6.609,6.609,6.609,6.609,6.609,6.609,6.609,6.599,6.5735,6.5329,6.576,6.5685,6.5179,6.5279,6.5283,6.5283,6.5283,6.5609,6.609,6.609,6.609,6.6069,6.5634,6.4257,6.2403,6.1554,5.8631,5.5044,5.4595,5.3108,5.1474,5.1891,5.3443,5.5186,5.5612,5.7456,5.9431,5.9431,5.9749,6.0067,6.0067,6.0067,5.9954,5.9545,5.7872,5.5565,5.2672,5.206,5.1915,5.1474,5.1401,5.1401,5.1401,5.1401,5.1401,5.1401,5.1401,5.1401,5.1401,5.1401,5.1401,5.1401,5.1401,5.1401,5.1401,5.1401,5.1401,5.1401,5.1401,5.1401,5.1401,5.1401,5.1245,5.0918,5.0508,5.0449,5.0801,5.0449,5.0508,5.0894,5.0894,5.1069,5.2937,5.6075,5.9483,6.0858,6.1943,6.2727,6.2802,6.3203,6.3601,6.3676,6.3626,6.3726,6.4199,6.4274,6.43,6.4375,6.4346,6.43,6.4375,6.4325,6.4274,6.4274,6.44,6.4651,6.5053,6.5283,6.5559,6.5939,6.604,6.609,6.609,6.609,6.609,6.609,6.609,6.609,6.609,6.5634,6.5358,6.5283,6.5358,6.5128,6.4601,6.5103,6.5283,6.5283,6.5283,6.5609,6.609,6.609,6.609,6.5896,6.3798,6.2781,6.1978,5.7664,5.5659,5.4784,5.2648,5.1693,5.1746,5.3924,5.4832,5.5494,5.7641,6.0044,6.2024,6.2024,6.351,6.5134,6.5134,6.5134,6.4609,6.2491,6.1755,6.0248,5.5612,5.4595,5.3975,5.1818,5.1401,5.1401,5.1401,5.1401,5.1401,5.1401,5.1401,5.1401,5.1401,5.1401,5.1401,5.1401,5.1401,5.1401,5.1401,5.1401,5.1401,5.1401,5.1401,5.1401,5.1401,5.1401,5.1382,5.1323,5.0913,5.0742,5.0801,5.0742,5.0937,5.1323,5.1323,5.1362,5.4092,5.7072,5.9834,6.1291,6.1994,6.2425,6.2727,6.3003,6.3375,6.4023,6.4149,6.4224,6.4471,6.4496,6.4597,6.4902,6.4701,6.4601,6.4902,6.4676,6.4496,6.4496,6.4752,6.5053,6.5279,6.5559,6.586,6.6065,6.609,6.609,6.609,6.609,6.609,6.609,6.581,6.566,6.566,6.5128,6.4852,6.4852,6.4551,6.445,6.4521,6.4752,6.5028,6.5283,6.5283,6.5609,6.609,6.609,6.5285,6.3973,6.2914,6.079,5.8103,5.5917,5.4212,5.2888,5.177,5.2306,5.3661,5.4737,5.6992,5.9454,6.0542,6.258,6.4522,6.4522,6.5264,6.609,6.609,6.609,6.5828,6.4761,6.3466,6.1532,5.7941,5.6081,5.4379,5.1891,5.1401,5.1401,5.1401,5.1401,5.1401,5.1401,5.1401,5.1401,5.1401,5.1401,5.1401,5.1401,5.1401,5.1401,5.1401,5.1401,5.1401,5.1401,5.1401,5.1401,5.1401,5.1401,5.1401,5.1401,5.1226,5.1128,5.1128,5.1128,5.1226,5.1401,5.1401,5.1401,5.4443,5.6771,5.8724,6.0663,6.1366,6.1768,6.2425,6.2827,6.3324,6.43,6.4601,6.4752,6.4877,6.4902,6.5053,6.5434,6.5179,6.5053,6.5434,6.5153,6.4902,6.4902,6.5279,6.5484,6.5484,6.6011,6.6262,6.609,6.6237,6.6262,6.609,6.609,6.609,6.609,6.571,6.5484,6.5484,6.4827,6.435,6.4073,6.3973,6.4099,6.4521,6.4777,6.5128,6.5484,6.538,6.5609,6.6047,6.544,6.4104,6.2358,6.1105,5.8356,5.5,5.4402,5.3375,5.2354,5.2354,5.3971,5.6151,5.6783,5.9476,6.2602,6.3223,6.4674,6.609,6.609,6.609,6.609,6.609,6.609,6.609,6.609,6.4718,6.2403,5.8654,5.5894,5.3614,5.1746,5.1401,5.1401,5.1401,5.1401,5.1401,5.1401,5.1401,5.1401,5.1401,5.1401,5.1401,5.1401,5.1401,5.1401,5.1401,5.1401,5.1401,5.1401,5.1401,5.1401,5.1401,5.1401,5.1401,5.1401,5.1401,5.1401,5.1401,5.1401,5.1401,5.1401,5.1401,5.1401,5.2586,5.3934,5.5501,5.8215,5.9633,6.0668,6.1793,6.2873,6.3802,6.4375,6.4902,6.5409,6.5936,6.6036,6.6036,6.604,6.6015,6.6036,6.604,6.6015,6.6036,6.6036,6.604,6.604,6.604,6.6589,6.6736,6.614,6.6614,6.6689,6.6137,6.609,6.609,6.609,6.6065,6.604,6.604,6.5028,6.3973,6.2902,6.3973,6.445,6.4547,6.5559,6.6015,6.6036,6.5509,6.5609,6.594,6.362,6.2602,6.2023,5.7317,5.533,5.4832,5.2475,5.2988,5.4903,5.4903,5.6525,5.8997,6.1352,6.2291,6.2936,6.522,6.6004,6.609,6.609,6.609,6.609,6.609,6.609,6.609,6.609,6.6004,6.3949,5.683,5.3347,5.1547,5.1426,5.1401,5.1401,5.1401,5.1401,5.1401,5.1401,5.1401,5.1401,5.1401,5.1401,5.1401,5.1401,5.1401,5.1401,5.1401,5.1401,5.1401,5.1401,5.1401,5.1401,5.1401,5.1401,5.1401,5.1401,5.1401,5.1401,5.1401,5.1401,5.1401,5.1401,5.1401,5.1401,5.2134,5.3474,5.4999,5.6671,5.8183,5.9564,6.0643,6.1793,6.2973,6.4224,6.4651,6.5053,6.5936,6.609,6.6237,6.6614,6.6686,6.6686,6.6686,6.6686,6.6538,6.6162,6.609,6.609,6.609,6.6639,6.6761,6.6162,6.666,6.6736,6.6115,6.609,6.609,6.609,6.576,6.5258,6.458,6.3802,6.34,6.34,6.3797,6.435,6.5028,6.5409,6.5785,6.609,6.5911,6.5936,6.5918,6.3488,6.1554,5.9795,5.6432,5.4141,5.2624,5.1721,5.2964,5.5094,5.5094,5.778,6.133,6.2225,6.3532,6.4982,6.5828,6.609,6.609,6.609,6.609,6.609,6.609,6.609,6.5699,6.4148,6.258,6.0248,5.6011,5.3378,5.1933,5.2182,5.2031,5.1855,5.1855,5.1597,5.1323,5.105,5.1226,5.1304,5.103,5.1245,5.1401,5.1401,5.1401,5.1401,5.1401,5.1401,5.1401,5.1401,5.1401,5.1401,5.1401,5.1401,5.1401,5.1401,5.1401,5.1401,5.1401,5.1401,5.1401,5.1401,5.1401,5.1401,5.1381,5.2327,5.36,5.5239,5.6495,5.7851,5.984,6.0894,6.2019,6.4073,6.4496,6.4827,6.5911,6.609,6.6312,6.6912,6.7163,6.7288,6.7288,6.7288,6.7116,6.6714,6.6689,6.6614,6.6413,6.6937,6.694,6.614,6.666,6.6736,6.6115,6.609,6.609,6.609,6.576,6.5032,6.3973,6.3576,6.3475,6.3701,6.3877,6.445,6.5329,6.5484,6.576,6.6047,6.5242,6.487,6.4696,6.2269,5.9795,5.7316,5.4832,5.2864,5.1499,5.233,5.4212,5.65,5.7492,6.0408,6.3734,6.395,6.4956,6.609,6.609,6.6237,6.6363,6.6162,6.6262,6.6363,6.614,6.609,6.5505,6.3069,6.061,5.8169,5.5847,5.3645,5.2129,5.2246,5.2168,5.2056,5.1894,5.1597,5.1304,5.103,5.1226,5.1304,5.1055,5.1226,5.1401,5.1401,5.1401,5.1401,5.1401,5.1401,5.1401,5.1401,5.1401,5.1401,5.1401,5.1401,5.1401,5.1401,5.1401,5.1401,5.1401,5.1401,5.1401,5.1401,5.1401,5.1401,0.0,0.0,0.0,5.3775,5.4522,5.5534,5.9263,6.0191,6.104,6.3847,6.4446,6.4802,6.5911,6.6115,6.6312,6.6912,6.7464,6.7794,6.7794,6.7819,6.7819,6.7794,6.7794,6.7615,6.7062,6.7493,6.7342,6.619,6.6664,6.6739,6.6115,6.609,6.609,6.609,6.6065,6.5584,6.4547,6.4521,6.4249,6.3751,6.4274,6.4802,6.5333,6.586,6.609,6.5983,6.3532,6.2471,6.2226,5.9727,5.7271,5.4855,5.2379,5.1426,5.1794,5.4233,5.6756,5.9339,6.2299,6.457,6.6216,6.6811,6.6589,6.609,6.609,6.6513,6.6861,6.6262,6.6513,6.6836,6.6262,6.6047,6.5393,6.3069,6.0542,5.8165,5.6205,5.3847,5.1953,5.1519,5.1797,5.1953,5.1499,5.1421,5.1401,5.1382,5.1382,5.1382,5.1382,5.1382,5.1401,5.1401,5.1401,5.1401,5.1401,5.1401,5.1401,5.1401,5.1401,5.1401,5.1401,5.1401,5.1401,5.1401,5.1401,5.1401,5.1401,5.1401,5.1401,5.1401,5.1401,5.1401,4.9665,0.0,0.0,0.0,0.0,0.0,5.5835,5.7417,5.9357,6.2119,6.2998,6.3831,6.5739,6.6463,6.6811,6.6962,6.7464,6.7794,6.7794,6.8123,6.8224,6.7844,6.7794,6.7744,6.7593,6.807,6.7945,6.6836,6.7288,6.7141,6.614,6.609,6.609,6.609,6.5735,6.5383,6.5078,6.4676,6.4626,6.4856,6.5003,6.538,6.5886,6.6015,6.609,6.5983,6.3532,6.1653,6.0044,5.7284,5.5729,5.4855,5.2379,5.2499,5.4206,5.5279,5.8379,6.2232,6.3453,6.5153,6.6786,6.6937,6.6589,6.609,6.609,6.6237,6.6312,6.6162,6.6237,6.6312,6.614,6.4783,6.3334,6.2671,5.9226,5.5983,5.5404,5.3625,5.2129,5.2324,5.2207,5.2075,5.1914,5.1616,5.1304,5.0991,5.0976,5.0976,5.0976,5.0976,5.1069,5.1382,5.1401,5.1401,5.1401,5.1401,5.1401,5.1401,5.1401,5.1401,5.1401,5.1401,5.1401,5.1401,5.1401,5.1401,5.1401,5.1401,5.1401,5.1401,5.1401,5.1401,0.0,0.0,0.0,5.067,0.0,0.0,5.483,5.6287,5.8102,6.1341,6.225,6.3078,6.5057,6.5731,6.6033,6.6259,6.7141,6.7869,6.812,6.86,6.8826,6.85,6.8475,6.8374,6.817,6.8424,6.8249,6.7414,6.7439,6.7066,6.614,6.6338,6.6363,6.609,6.581,6.5534,6.5283,6.5003,6.5003,6.5283,6.5283,6.5584,6.609,6.6363,6.5794,6.4503,6.245,6.0179,5.778,5.6321,5.5081,5.4064,5.3722,5.4454,5.6012,5.8424,6.1143,6.3862,6.5432,6.6441,6.7037,6.7263,6.6764,6.609,6.609,6.6287,6.6413,6.6187,6.609,6.609,6.609,6.4301,6.2247,6.1195,5.7964,5.4832,5.3781,5.265,5.1894,5.2104,5.2129,5.2056,5.1836,5.1577,5.1323,5.1069,5.105,5.105,5.105,5.105,5.1128,5.1382,5.1401,5.1401,5.1401,5.1401,5.1401,5.1401,5.1401,5.1401,5.1401,5.1401,5.1401,5.1401,5.1401,5.1401,5.1401,5.1401,5.1401,5.1401,5.1401,5.1401,4.9565,4.959,0.0,0.0,5.0795,0.0,5.487,5.5774,5.6953,6.0668,6.1441,6.1994,6.3797,6.4073,6.4199,6.4777,6.6287,6.7693,6.8399,6.9004,6.9406,6.9406,6.9406,6.9205,6.8751,6.8701,6.8424,6.7844,6.7238,6.6711,6.6237,6.6639,6.6664,6.619,6.6115,6.5886,6.5383,6.5383,6.5383,6.5383,6.5383,6.566,6.6237,6.6761,6.5421,6.255,6.098,5.8799,5.6382,5.6588,5.525,5.3396,5.5991,5.7203,5.7994,6.2503,6.436,6.4978,6.766,6.7945,6.7163,6.7568,6.699,6.609,6.609,6.6513,6.6887,6.6363,6.614,6.609,6.609,6.4104,6.1532,5.9317,5.6688,5.4094,5.1867,5.1401,5.1401,5.1401,5.1738,5.1894,5.1479,5.1401,5.1401,5.1401,5.1362,5.1362,5.1401,5.1362,5.1362,5.1401,5.1401,5.1401,5.1401,5.1401,5.1401,5.1401,5.1401,5.1401,5.1401,5.1401,5.1401,5.1401,5.1401,5.1401,5.1401,5.1401,5.1401,5.1401,5.1401,5.1401,4.948,4.959,4.964,4.9882,5.0535,0.0,5.2076,5.3256,5.4913,5.7455,5.7983,5.8761,6.1361,6.1441,6.1316,6.1893,6.3772,6.5807,6.7693,6.8801,6.9406,6.9406,6.9406,6.9356,6.9255,6.923,6.8851,6.7869,6.6865,6.6438,6.6811,6.6488,6.6438,6.6811,6.6363,6.604,6.5939,6.5936,6.5936,6.5936,6.5936,6.6262,6.6836,6.6937,6.5771,6.3502,6.1277,6.0143,5.9745,5.7858,5.6572,5.6089,5.8666,6.088,6.2803,6.4214,6.6006,6.7822,6.8394,6.8173,6.7593,6.7263,6.6664,6.609,6.609,6.6513,6.6987,6.6861,6.6463,6.609,6.609,6.2824,5.9408,5.8928,5.5374,5.1988,5.1499,5.1401,5.1401,5.1401,5.1479,5.1499,5.1421,5.1401,5.1401,5.1401,5.1109,5.103,5.1362,5.1109,5.103,5.1382,5.1401,5.1401,5.1401,5.1401,5.1401,5.1401,5.1401,5.1401,5.1401,5.1401,5.1401,5.1401,5.1401,5.1401,5.1401,5.1401,5.1401,5.1401,5.1401,5.1401,4.959,4.959,4.9665,4.9941,0.0,0.0,0.0,5.2327,5.3532,5.5749,5.62,5.6897,5.9131,5.9307,5.9458,6.0563,6.2642,6.45,6.5584,6.7621,6.8979,6.8979,6.923,6.9406,6.9406,6.9155,6.855,6.7467,6.7367,6.7241,6.7012,6.7216,6.7241,6.7012,6.6711,6.6413,6.609,6.609,6.609,6.609,6.609,6.6413,6.7012,6.7288,6.547,6.2134,6.2688,6.146,5.9167,6.073,6.1259,6.1223,6.2474,6.3758,6.5031,6.6581,6.7935,6.8979,6.8979,6.8475,6.7744,6.7467,6.6815,6.609,6.609,6.6312,6.6538,6.6538,6.6338,6.609,6.609,6.2469,5.8791,5.8791,5.5018,5.1401,5.1401,5.1401,5.1401,5.1401,5.1401,5.1401,5.1401,5.1401,5.1401,5.1401,5.1226,5.1167,5.1382,5.1226,5.1167,5.1382,5.1401,5.1401,5.1401,5.1401,5.1401,5.1401,5.1401,5.1401,5.1401,5.1401,5.1401,5.1401,5.1401,5.1401,5.1401,5.1401,5.1401,5.1401,5.1401,5.1401,0.0,4.9992,5.0142,5.0352,0.0,5.0368,0.0,0.0,0.0,5.4511,5.4838,5.5282,5.6965,5.7173,5.7549,5.8961,6.109,6.2571,6.2571,6.5312,6.7521,6.8048,6.8678,6.913,6.923,6.8575,6.7869,6.7213,6.7568,6.7568,6.7037,6.7719,6.7819,6.7188,6.6937,6.6689,6.6438,6.619,6.6162,6.6287,6.6287,6.6589,6.7188,6.7719,6.555,6.1476,6.4343,6.3025,5.9174,6.3709,6.5888,6.633,6.633,6.633,6.6584,6.8631,6.9406,6.9381,6.928,6.86,6.7769,6.7668,6.694,6.6137,6.6237,6.6187,6.6115,6.6237,6.6187,6.609,6.609,6.2824,5.9385,5.8905,5.5374,5.1988,5.1499,5.1401,5.1401,5.1401,5.1401,5.1401,5.1401,5.1401,5.1401,5.1401,5.1401,5.1401,5.1401,5.1401,5.1401,5.1401,5.1401,5.1401,5.1401,5.1401,5.1401,5.1401,5.1401,5.1401,5.1401,5.1401,5.1401,5.1401,5.1401,5.1401,5.1401,5.1401,5.1401,5.1401,5.1401,5.1401,0.0,0.0,0.0,0.0,5.1105,5.1599,5.0779,0.0,5.1724,5.2937,0.0,5.298,5.4672,0.0,0.0,5.5132,5.7116,5.8554,5.8554,6.0989,6.363,6.609,6.7342,6.817,6.865,6.7295,6.6764,6.7643,6.6007,6.5555,6.6937,6.6614,6.6768,6.7668,6.6739,6.6664,6.7593,6.6614,6.6363,6.6912,6.6912,6.7166,6.7719,6.8249,6.7213,6.5022,6.542,6.5234,6.4695,6.5327,6.6932,6.8974,6.8974,6.8974,6.8996,6.9293,6.9406,6.9331,6.8876,6.8299,6.7719,6.7263,6.6639,6.6212,6.6736,6.6513,6.6212,6.6761,6.6513,6.609,6.609,6.4104,6.1532,5.9317,5.6688,5.407,5.1867,5.1401,5.1401,5.1401,5.1401,5.1401,5.1401,5.1401,5.1401,5.1401,5.1401,5.1401,5.1401,5.1401,5.1401,5.1401,5.1401,5.1401,5.1401,5.1401,5.1401,5.1401,5.1401,5.1401,5.1401,5.1401,5.1401,5.1401,5.1401,5.1401,5.1401,5.1401,5.1401,5.1401,5.1401,5.1401,0.0,0.0,0.0,5.1122,5.1272,5.1423,5.0578,5.0603,5.0996,5.18,0.0,0.0,0.0,0.0,0.0,0.0,5.591,5.6922,5.6922,5.9006,6.1341,6.3475,6.4408,6.5111,6.571,6.5383,6.538,6.5857,6.5304,6.5405,6.6413,6.6865,6.7166,6.7339,6.6887,6.6689,6.6815,6.6689,6.6761,6.6987,6.7314,6.7744,6.8274,6.85,6.7497,6.5678,6.7162,6.6978,6.5701,6.7185,6.8449,6.9406,6.9406,6.9406,6.9406,6.9406,6.9406,6.9356,6.913,6.85,6.7643,6.6764,6.6312,6.619,6.6836,6.6564,6.6237,6.6836,6.6564,6.609,6.609,6.4301,6.1867,5.9385,5.6921,5.4426,5.1939,5.1401,5.1401,5.1401,5.1401,5.1401,5.1401,5.1401,5.1401,5.1401,5.1401,5.1401,5.1401,5.1401,5.1401,5.1401,5.1401,5.1401,5.1401,5.1401,5.1401,5.1401,5.1401,5.1401,5.1401,5.1401,5.1401,5.1401,5.1401,5.1401,5.1401,5.1401,5.1401,5.1401,5.1401,5.1401,5.2228,5.2369,5.2578,5.1741,5.1515,5.1322,5.0553,5.0528,5.0854,5.1574,5.2176,0.0,0.0,0.0,5.3582,0.0,0.0,5.5717,5.5541,5.7047,5.888,6.0864,6.2099,6.3028,6.3626,6.3646,6.3868,6.445,6.43,6.4701,6.5835,6.6664,6.7087,6.6987,6.6836,6.6689,6.6589,6.684,6.7062,6.7238,6.7769,6.8224,6.86,6.8751,6.8007,6.6723,6.8608,6.8333,6.6769,6.8631,6.9406,6.9406,6.9406,6.9406,6.9406,6.9406,6.9406,6.9406,6.9406,6.8701,6.7643,6.6664,6.6338,6.6438,6.6861,6.6689,6.6413,6.6686,6.6438,6.609,6.609,6.4301,6.1867,5.9385,5.6921,5.4426,5.1939,5.1401,5.1401,5.1401,5.1401,5.1401,5.1401,5.1401,5.1401,5.1401,5.1401,5.1401,5.1401,5.1401,5.1401,5.1401,5.1304,5.1284,5.1401,5.1304,5.1284,5.1401,5.1401,5.1401,5.1401,5.1401,5.1401,5.1401,5.1401,5.1401,5.1401,5.1401,5.1401,5.1401,5.1401,5.1401,5.4255,5.4077,5.4145,5.2477,5.2076,5.1774,5.0653,5.0845,5.1565,5.2636,5.3264,5.3833,5.4429,0.0,0.0,0.0,0.0,0.0,0.0,5.4353,5.576,5.8485,6.117,6.3028,6.3626,6.2265,6.219,6.4346,6.2541,6.2491,6.5183,6.538,6.5882,6.6962,6.6438,6.6664,6.7744,6.7263,6.7263,6.7769,6.8324,6.8575,6.8625,6.913,6.9336,6.9268,6.9361,6.9361,6.9268,6.9383,6.9406,6.9406,6.9406,6.9406,6.9406,6.9406,6.9406,6.9406,6.9406,6.8701,6.7719,6.7163,6.6962,6.6962,6.6987,6.6987,6.6861,6.6287,6.6115,6.609,6.609,6.4301,6.1867,5.9385,5.6921,5.4426,5.1939,5.1401,5.1401,5.1401,5.1401,5.1401,5.1401,5.1401,5.1401,5.1401,5.1401,5.1401,5.1401,5.1401,5.1401,5.1401,5.105,5.0996,5.1382,5.103,5.0996,5.1382,5.1401,5.1401,5.1401,5.1401,5.1401,5.1401,5.1401,5.1401,5.1401,5.1401,5.1401,5.1401,5.1401,5.1401,5.5142,5.5491,5.5698,5.3658,5.3474,5.3273,5.1414,5.1992,5.298,5.3339,5.416,0.0,0.0,0.0,0.0,0.0,0.0,0.0,0.0,5.3884,5.4612,5.6319,5.8328,5.9784,6.0362,6.0537,6.0914,6.1667,6.1411,6.1939,6.3555,6.4375,6.5103,6.5857,6.6036,6.6287,6.6689,6.7241,6.7618,6.7819,6.8701,6.913,6.913,6.9306,6.9406,6.9406,6.9406,6.9406,6.9406,6.9406,6.9406,6.9406,6.9406,6.9406,6.9406,6.9406,6.9406,6.9306,6.8575,6.8324,6.8173,6.7288,6.6987,6.7062,6.7417,6.699,6.6438,6.6639,6.6413,6.609,6.609,6.4301,6.1867,5.9385,5.6921,5.4426,5.1939,5.1401,5.1401,5.1401,5.1401,5.1401,5.1401,5.1401,5.1401,5.1401,5.1401,5.1401,5.1401,5.1401,5.1401,5.1401,5.1284,5.1245,5.1401,5.1284,5.1265,5.1401,5.1401,5.1401,5.1401,5.1401,5.1401,5.1401,5.1401,5.1401,5.1401,5.1401,5.1401,5.1401,5.1401,5.1401,5.6621,5.6928,5.723,5.5616,5.5315,5.5031,5.3406,5.3984,5.4996,5.5397,5.5742,5.6143,0.0,0.0,0.0,0.0,0.0,0.0,0.0,5.3582,5.4185,5.5516,5.6821,5.7932,5.8886,5.9062,5.9463,6.0242,6.0136,6.0663,6.2149,6.3475,6.4551,6.5279,6.5835,6.6291,6.6714,6.7442,6.7894,6.8095,6.8977,6.9406,6.9406,6.9406,6.9406,6.9406,6.9406,6.9406,6.9406,6.9406,6.9406,6.9406,6.9406,6.9406,6.9406,6.9406,6.9406,6.9255,6.8374,6.8299,6.845,6.7568,6.7267,6.7314,6.7467,6.699,6.6463,6.6614,6.6388,6.609,6.609,6.3642,6.0791,5.918,5.6221,5.3347,5.1746,5.1401,5.1401,5.1401,5.1401,5.1401,5.1401,5.1401,5.1401,5.1401,5.1401,5.1401,5.1401,5.1401,5.1401,5.1401,5.1284,5.1187,5.1187,5.1323,5.1401,5.1401,5.1401,5.1401,5.1401,5.1401,5.1401,5.1401,5.1401,5.1401,5.1401,5.1401,5.1401,5.1401,5.1401,5.1401]}]]